[[{"header":{"parameterUnit":"m.s-1","parameterCategory":1,"la1":30.6,"la2":28.766,"lo1":-90.7593,"lo2":-88.6598,"dy":0.0162,"dx":0.0183,"nx":116,"ny":114,"refTime":"2023-06-26T06:00:00:Z","depth":0,"parameterNumber":2,"parameterNumberName":"U-component_of_WINDS"},"data":[0.0,0.0,0.0,0.0,0.0,0.0,0.0,0.0,0.0,0.0,0.0,0.0,0.0,0.0,0.0,0.0,0.0,0.0,0.0,0.0,0.0,0.0,0.0,0.0,0.0,0.0,0.0,0.0,0.0,0.0,0.0,0.0,0.0,0.0,0.0,0.0,0.0,0.0,0.0,0.0,0.0,0.0,0.0,0.0,0.0,0.0,0.0,0.0,0.0,0.0,0.0,0.0,0.0,0.0,0.0,0.0,0.0,0.0,0.0,0.0,0.0,0.0,0.0,0.0,0.0,0.0,0.0,0.0,0.0,0.0,0.0,0.0,0.0,0.0,0.0,0.0,0.0,0.0,0.0,0.0,0.0,0.0,0.0,0.0,0.0,0.0,0.0,0.0,0.0,0.0,0.0,0.0,0.0,0.0,0.0,0.0,0.0,0.0,0.0,0.0,0.0,0.0,0.0,0.0,0.0,0.0,0.0,0.0,0.0,0.0,0.0,0.0,0.0,0.0,0.0,0.0,0.0,0.0,0.0,0.0,0.0,0.0,0.0,0.0,0.0,0.0,0.0,0.0,0.0,0.0,0.0,0.0,0.0,0.0,0.0,0.0,0.0,0.0,0.0,0.0,0.0,0.0,0.0,0.0,0.0,0.0,0.0,0.0,0.0,0.0,0.0,0.0,0.0,0.0,0.0,0.0,0.0,0.0,0.0,0.0,0.0,0.0,0.0,0.0,0.0,0.0,0.0,0.0,0.0,0.0,0.0,0.0,0.0,0.0,0.0,0.0,0.0,0.0,0.0,0.0,0.0,0.0,0.0,0.0,0.0,0.0,0.0,0.0,0.0,0.0,0.0,0.0,0.0,0.0,0.0,0.0,0.0,0.0,0.0,0.0,0.0,0.0,0.0,0.0,0.0,0.0,0.0,0.0,0.0,0.0,0.0,0.0,0.0,0.0,0.0,0.0,0.0,0.0,0.0,0.0,0.0,0.0,0.0,0.0,0.0,0.0,0.0,0.0,0.0,0.0,0.0,0.0,0.0,0.0,0.0,0.0,0.0,0.0,0.0,0.0,0.0,0.0,0.0,0.0,0.0,0.0,0.0,0.0,0.0,0.0,0.0,0.0,0.0,0.0,0.0,0.0,0.0,0.0,0.0,0.0,0.0,0.0,0.0,0.0,0.0,0.0,0.0,0.0,0.0,0.0,0.0,0.0,0.0,0.0,0.0,0.0,0.0,0.0,0.0,0.0,0.0,0.0,0.0,0.0,0.0,0.0,0.0,0.0,0.0,0.0,0.0,0.0,0.0,0.0,0.0,0.0,0.0,0.0,0.0,0.0,0.0,0.0,0.0,0.0,0.0,0.0,0.0,0.0,0.0,0.0,0.0,0.0,0.0,0.0,0.0,0.0,0.0,0.0,0.0,0.0,0.0,0.0,0.0,0.0,0.0,0.0,0.0,0.0,0.0,0.0,0.0,0.0,0.0,0.0,0.0,0.0,0.0,0.0,0.0,0.0,0.0,0.0,0.0,0.0,0.0,0.0,0.0,0.0,0.0,0.0,0.0,0.0,0.0,0.0,0.0,0.0,0.0,0.0,0.0,0.0,0.0,0.0,0.0,0.0,0.0,0.0,0.0,0.0,0.0,0.0,0.0,0.0,0.0,0.0,0.0,0.0,0.0,0.0,0.0,0.0,0.0,0.0,0.0,0.0,0.0,0.0,0.0,0.0,0.0,0.0,0.0,0.0,0.0,0.0,0.0,0.0,0.0,0.0,0.0,0.0,0.0,0.0,0.0,0.0,0.0,0.0,0.0,0.0,0.0,0.0,0.0,0.0,0.0,0.0,0.0,0.0,0.0,0.0,0.0,0.0,0.0,0.0,0.0,0.0,0.0,0.0,0.0,0.0,0.0,0.0,0.0,0.0,0.0,0.0,0.0,0.0,0.0,0.0,0.0,0.0,0.0,0.0,0.0,0.0,0.0,0.0,0.0,0.0,0.0,0.0,0.0,0.0,0.0,0.0,0.0,0.0,0.0,0.0,0.0,0.0,0.0,0.0,0.0,0.0,0.0,0.0,0.0,0.0,0.0,0.0,0.0,0.0,0.0,0.0,0.0,0.0,0.0,0.0,0.0,0.0,0.0,0.0,0.0,0.0,0.0,0.0,0.0,0.0,0.0,0.0,0.0,0.0,0.0,0.0,0.0,0.0,0.0,0.0,0.0,0.0,0.0,0.0,0.0,0.0,0.0,0.0,0.0,0.0,0.0,0.0,0.0,0.0,0.0,0.0,0.0,0.0,0.0,0.0,0.0,0.0,0.0,0.0,0.0,0.0,0.0,0.0,0.0,0.0,0.0,0.0,0.0,0.0,0.0,0.0,0.0,0.0,0.0,0.0,0.0,0.0,0.0,0.0,0.0,0.0,0.0,0.0,0.0,0.0,0.0,0.0,0.0,0.0,0.0,0.0,0.0,0.0,0.0,0.0,0.0,0.0,0.0,0.0,0.0,0.0,0.0,0.0,0.0,0.0,0.0,0.0,0.0,0.0,0.0,0.0,0.0,0.0,0.0,0.0,0.0,0.0,0.0,0.0,0.0,0.0,0.0,0.0,0.0,0.0,0.0,0.0,0.0,0.0,0.0,0.0,0.0,0.0,0.0,0.0,0.0,0.0,0.0,0.0,0.0,0.0,0.0,0.0,0.0,0.0,0.0,0.0,0.0,0.0,0.0,0.0,0.0,0.0,0.0,0.0,0.0,0.0,0.0,0.0,0.0,0.0,0.0,0.0,0.0,0.0,0.0,0.0,0.0,0.0,0.0,0.0,0.0,0.0,0.0,0.0,0.0,0.0,0.0,0.0,0.0,0.0,0.0,0.0,0.0,0.0,0.0,0.0,0.0,0.0,0.0,0.0,0.0,0.0,0.0,0.0,0.0,0.0,0.0,0.0,0.0,0.0,0.0,0.0,0.0,0.0,0.0,0.0,0.0,0.0,0.0,0.0,0.0,0.0,0.0,0.0,0.0,0.0,0.0,0.0,0.0,0.0,0.0,0.0,0.0,0.0,0.0,0.0,0.0,0.0,0.0,0.0,0.0,0.0,0.0,0.0,0.0,0.0,0.0,0.0,0.0,0.0,0.0,0.0,0.0,0.0,0.0,0.0,0.0,0.0,0.0,0.0,0.0,0.0,0.0,0.0,0.0,0.0,0.0,0.0,0.0,0.0,0.0,0.0,0.0,0.0,0.0,0.0,0.0,0.0,0.0,0.0,0.0,0.0,0.0,0.0,0.0,0.0,0.0,0.0,0.0,0.0,0.0,0.0,0.0,0.0,0.0,0.0,0.0,0.0,0.0,0.0,0.0,0.0,0.0,0.0,0.0,0.0,0.0,0.0,0.0,0.0,0.0,0.0,0.0,0.0,0.0,0.0,0.0,0.0,0.0,0.0,0.0,0.0,0.0,0.0,0.0,0.0,0.0,0.0,0.0,0.0,0.0,0.0,0.0,0.0,0.0,0.0,0.0,0.0,0.0,0.0,0.0,0.0,0.0,0.0,0.0,0.0,0.0,0.0,0.0,0.0,0.0,0.0,0.0,0.0,0.0,0.0,0.0,0.0,0.0,0.0,0.0,0.0,0.0,0.0,0.0,0.0,0.0,0.0,0.0,0.0,0.0,0.0,0.0,0.0,0.0,0.0,0.0,0.0,0.0,0.0,0.0,0.0,0.0,0.0,0.0,0.0,0.0,0.0,0.0,0.0,0.0,0.0,0.0,0.0,0.0,0.0,0.0,0.0,0.0,0.0,0.0,0.0,0.0,0.0,0.0,0.0,0.0,0.0,0.0,0.0,0.0,0.0,0.0,0.0,0.0,0.0,0.0,0.0,0.0,0.0,0.0,0.0,0.0,0.0,0.0,0.0,0.0,0.0,0.0,0.0,0.0,0.0,0.0,0.0,0.0,0.0,0.0,0.0,0.0,0.0,0.0,0.0,0.0,0.0,0.0,0.0,0.0,0.0,0.0,0.0,0.0,0.0,0.0,0.0,0.0,0.0,0.0,0.0,0.0,0.0,0.0,0.0,0.0,0.0,0.0,0.0,0.0,0.0,0.0,0.0,0.0,0.0,0.0,0.0,0.0,0.0,0.0,0.0,0.0,0.0,0.0,0.0,0.0,0.0,0.0,0.0,0.0,0.0,0.0,0.0,0.0,0.0,0.0,0.0,0.0,0.0,0.0,0.0,0.0,0.0,0.0,0.0,0.0,0.0,0.0,0.0,0.0,0.0,0.0,0.0,0.0,0.0,0.0,0.0,0.0,0.0,0.0,0.0,0.0,0.0,0.0,0.0,0.0,0.0,0.0,0.0,0.0,0.0,0.0,0.0,0.0,0.0,0.0,0.0,0.0,0.0,0.0,0.0,0.0,0.0,0.0,0.0,0.0,0.0,0.0,0.0,0.0,0.0,0.0,0.0,0.0,0.0,0.0,0.0,0.0,0.0,0.0,0.0,0.0,0.0,0.0,0.0,0.0,0.0,0.0,0.0,0.0,0.0,0.0,0.0,0.0,0.0,0.0,0.0,0.0,0.0,0.0,0.0,0.0,0.0,0.0,0.0,0.0,0.0,0.0,0.0,0.0,0.0,0.0,0.0,0.0,0.0,0.0,0.0,0.0,0.0,0.0,0.0,0.0,0.0,0.0,0.0,0.0,0.0,0.0,0.0,0.0,0.0,0.0,0.0,0.0,0.0,0.0,0.0,0.0,0.0,0.0,0.0,0.0,0.0,0.0,0.0,0.0,0.0,0.0,0.0,0.0,0.0,0.0,0.0,0.0,0.0,0.0,0.0,0.0,0.0,0.0,0.0,0.0,0.0,0.0,0.0,0.0,0.0,0.0,0.0,0.0,0.0,0.0,0.0,0.0,0.0,0.0,0.0,0.0,0.0,0.0,0.0,0.0,0.0,0.0,0.0,0.0,0.0,0.0,0.0,0.0,0.0,0.0,0.0,0.0,0.0,0.0,0.0,0.0,0.0,0.0,0.0,0.0,0.0,0.0,0.0,0.0,0.0,0.0,0.0,0.0,0.0,0.0,0.0,0.0,0.0,0.0,0.0,0.0,0.0,0.0,0.0,0.0,0.0,0.0,0.0,0.0,0.0,0.0,0.0,0.0,0.0,0.0,0.0,0.0,0.0,0.0,0.0,0.0,0.0,0.0,0.0,0.0,0.0,0.0,0.0,0.0,0.0,0.0,0.0,0.0,0.0,0.0,0.0,0.0,0.0,0.0,0.0,0.0,0.0,0.0,0.0,0.0,0.0,0.0,0.0,0.0,0.0,0.0,0.0,0.0,0.0,0.0,0.0,0.0,0.0,0.0,0.0,0.0,0.0,0.0,0.0,0.0,0.0,0.0,0.0,0.0,0.0,0.0,0.0,0.0,0.0,0.0,0.0,0.0,0.0,0.0,0.0,0.0,0.0,0.0,0.0,0.0,0.0,0.0,0.0,0.0,0.0,0.0,0.0,0.0,0.0,0.0,0.0,0.0,0.0,0.0,0.0,0.0,0.0,0.0,0.0,0.0,0.0,0.0,0.0,0.0,0.0,0.0,0.0,0.0,0.0,0.0,0.0,0.0,0.0,0.0,0.0,0.0,0.0,0.0,0.0,0.0,0.0,0.0,0.0,0.0,0.0,0.0,0.0,0.0,0.0,0.0,0.0,0.0,0.0,0.0,0.0,0.0,0.0,0.0,0.0,0.0,0.0,0.0,0.0,0.0,0.0,0.0,0.0,0.0,0.0,0.0,0.0,0.0,0.0,0.0,0.0,0.0,0.0,0.0,0.0,0.0,0.0,0.0,0.0,0.0,0.0,0.0,0.0,0.0,0.0,0.0,0.0,0.0,0.0,0.0,0.0,0.0,0.0,0.0,0.0,0.0,0.0,0.0,0.0,0.0,0.0,0.0,0.0,0.0,0.0,0.0,0.0,0.0,0.0,0.0,0.0,0.0,0.0,0.0,0.0,0.0,0.0,0.0,0.0,0.0,0.0,0.0,0.0,0.0,0.0,0.0,0.0,0.0,0.0,0.0,0.0,0.0,0.0,0.0,0.0,0.0,0.0,0.0,0.0,0.0,0.0,0.0,0.0,-4.007,0.0,0.0,0.0,0.0,0.0,0.0,0.0,0.0,0.0,0.0,0.0,0.0,0.0,0.0,0.0,0.0,0.0,0.0,0.0,0.0,0.0,0.0,0.0,0.0,0.0,0.0,0.0,0.0,0.0,0.0,0.0,0.0,0.0,0.0,0.0,0.0,0.0,0.0,0.0,0.0,0.0,0.0,0.0,0.0,0.0,0.0,0.0,0.0,0.0,0.0,0.0,0.0,0.0,0.0,0.0,0.0,0.0,0.0,0.0,0.0,0.0,0.0,0.0,0.0,0.0,0.0,0.0,0.0,0.0,0.0,0.0,0.0,0.0,0.0,0.0,0.0,0.0,0.0,0.0,0.0,0.0,0.0,0.0,0.0,0.0,0.0,0.0,0.0,0.0,0.0,0.0,0.0,0.0,0.0,0.0,0.0,0.0,0.0,0.0,0.0,0.0,0.0,0.0,0.0,0.0,0.0,0.0,0.0,0.0,0.0,0.0,0.0,0.0,0.0,0.0,0.0,-3.9332,0.0,0.0,0.0,0.0,0.0,0.0,0.0,0.0,0.0,0.0,0.0,0.0,0.0,0.0,0.0,0.0,0.0,0.0,0.0,0.0,0.0,0.0,0.0,0.0,0.0,0.0,0.0,0.0,0.0,0.0,0.0,0.0,0.0,0.0,0.0,0.0,0.0,0.0,0.0,0.0,0.0,0.0,0.0,0.0,0.0,0.0,0.0,0.0,0.0,0.0,0.0,0.0,0.0,0.0,0.0,0.0,0.0,0.0,0.0,0.0,0.0,0.0,0.0,0.0,0.0,0.0,0.0,0.0,0.0,0.0,0.0,0.0,0.0,0.0,0.0,0.0,0.0,0.0,0.0,0.0,0.0,0.0,0.0,0.0,0.0,0.0,0.0,0.0,0.0,0.0,0.0,0.0,0.0,0.0,0.0,0.0,0.0,0.0,0.0,0.0,0.0,0.0,0.0,0.0,0.0,0.0,0.0,0.0,-4.0392,-4.0781,-4.139,-4.139,-4.0987,-4.0232,-3.944,-3.8585,-3.7748,0.0,0.0,0.0,0.0,0.0,0.0,0.0,0.0,0.0,0.0,0.0,0.0,0.0,0.0,0.0,0.0,0.0,0.0,0.0,0.0,0.0,0.0,0.0,0.0,0.0,0.0,0.0,0.0,0.0,0.0,0.0,0.0,0.0,0.0,0.0,0.0,0.0,0.0,0.0,-3.6468,-3.7276,-3.7643,-3.7679,-3.8297,0.0,0.0,0.0,0.0,0.0,0.0,0.0,0.0,0.0,0.0,0.0,0.0,0.0,0.0,0.0,0.0,0.0,0.0,0.0,0.0,0.0,0.0,0.0,0.0,0.0,0.0,0.0,0.0,0.0,0.0,0.0,0.0,0.0,0.0,0.0,0.0,0.0,0.0,0.0,0.0,0.0,0.0,0.0,-4.0668,-4.078,0.0,0.0,0.0,0.0,0.0,0.0,0.0,0.0,0.0,0.0,0.0,0.0,0.0,0.0,-4.007,-4.073,-4.1052,-4.1068,-4.1694,-4.2049,-4.2151,-4.2151,-4.167,-4.082,-4.0065,0.0,-3.7748,-3.6904,0.0,0.0,0.0,0.0,0.0,0.0,0.0,0.0,0.0,0.0,0.0,0.0,0.0,0.0,0.0,0.0,0.0,0.0,0.0,0.0,0.0,0.0,0.0,0.0,0.0,0.0,0.0,0.0,0.0,0.0,0.0,0.0,0.0,0.0,0.0,0.0,-3.659,-3.6433,-3.5869,-3.6684,-3.698,-3.6835,-3.7184,-3.7283,-3.719,-3.719,0.0,0.0,0.0,0.0,0.0,0.0,0.0,0.0,0.0,0.0,0.0,0.0,0.0,0.0,0.0,0.0,0.0,0.0,0.0,0.0,0.0,0.0,0.0,0.0,0.0,0.0,0.0,0.0,0.0,0.0,0.0,0.0,0.0,0.0,0.0,0.0,0.0,0.0,0.0,-4.0286,-4.0577,-4.0856,-4.1133,-4.1446,0.0,0.0,0.0,0.0,0.0,0.0,0.0,0.0,0.0,-4.0696,-4.0713,-4.0916,-4.1322,-4.1644,-4.1813,-4.1813,-4.2151,-4.2523,-4.2929,-4.2929,-4.2199,-4.0966,-4.0662,-3.9424,-3.7492,-3.6835,-3.6569,-3.6459,0.0,0.0,0.0,0.0,0.0,-3.5504,0.0,0.0,0.0,0.0,0.0,0.0,0.0,0.0,0.0,0.0,0.0,0.0,0.0,0.0,0.0,0.0,0.0,0.0,0.0,0.0,0.0,0.0,0.0,0.0,0.0,0.0,0.0,0.0,-3.6241,-3.607,-3.5324,-3.605,-3.63,-3.6095,-3.625,-3.6522,-3.6872,-3.6872,-3.6371,0.0,0.0,0.0,0.0,0.0,0.0,0.0,0.0,0.0,0.0,0.0,0.0,0.0,0.0,0.0,0.0,0.0,0.0,0.0,0.0,0.0,0.0,0.0,0.0,0.0,0.0,0.0,0.0,0.0,0.0,0.0,0.0,0.0,0.0,0.0,0.0,0.0,0.0,-4.0336,-4.0672,-4.1087,-4.1385,-4.186,0.0,0.0,0.0,0.0,0.0,0.0,-4.0675,-4.0965,-4.1309,-4.1457,-4.1474,-4.1745,-4.2286,-4.2489,-4.2574,-4.2574,-4.2777,-4.3183,-4.3724,-4.3724,-4.2833,-4.1276,-4.1276,-3.9966,-3.7853,-3.706,-3.6626,-3.6432,-3.5953,-3.5654,-3.5504,-3.5504,-3.5504,-3.5504,0.0,0.0,0.0,0.0,0.0,0.0,0.0,0.0,0.0,0.0,0.0,0.0,0.0,0.0,0.0,0.0,0.0,0.0,0.0,0.0,0.0,0.0,0.0,0.0,0.0,0.0,0.0,-3.5145,-3.4926,-3.4787,-3.4749,-3.531,-3.5559,-3.5547,-3.6086,-3.6164,-3.5948,-3.5948,-3.5809,-3.5622,0.0,0.0,0.0,0.0,0.0,0.0,0.0,0.0,0.0,0.0,0.0,0.0,0.0,0.0,0.0,0.0,0.0,0.0,0.0,0.0,0.0,0.0,0.0,0.0,0.0,0.0,0.0,0.0,0.0,0.0,0.0,0.0,0.0,0.0,0.0,0.0,0.0,0.0,0.0,-4.175,-4.2716,0.0,0.0,0.0,0.0,-4.1835,-4.181,-4.1842,-4.1981,-4.2016,-4.2085,-4.2272,-4.2236,-4.2252,-4.2286,-4.2997,-4.3352,-4.3369,-4.4113,-4.4485,-4.4519,-4.4519,-4.3614,-4.1949,-4.1949,-4.0966,-3.9215,-3.7898,-3.7015,-3.6492,-3.6447,-3.6058,-3.5504,-3.5504,-3.5504,-3.5504,0.0,0.0,0.0,0.0,0.0,0.0,0.0,0.0,0.0,0.0,0.0,0.0,0.0,0.0,0.0,0.0,0.0,0.0,0.0,0.0,0.0,0.0,0.0,0.0,0.0,0.0,-3.5484,-3.5432,-3.5328,-3.517,-3.4963,-3.5154,-3.5044,-3.4684,-3.486,-3.4754,-3.4465,-3.496,-3.4996,-3.4607,-3.4331,-3.4259,0.0,0.0,0.0,0.0,0.0,0.0,0.0,0.0,0.0,0.0,0.0,0.0,0.0,0.0,0.0,0.0,0.0,0.0,0.0,0.0,0.0,0.0,0.0,0.0,0.0,0.0,0.0,0.0,0.0,0.0,0.0,0.0,0.0,0.0,0.0,0.0,0.0,-4.1707,-4.2144,0.0,-4.316,-4.2902,-4.2832,-4.314,-4.2768,-4.2625,-4.2857,-4.2843,-4.2859,-4.2997,-4.3014,-4.325,-4.3758,-4.4028,-4.4164,-4.4181,-4.4451,-4.4587,-4.4587,-4.4587,-4.3663,-4.1997,-4.1997,-4.1028,-3.9379,-3.8901,-3.8317,-3.7674,-3.724,-3.6701,-3.6133,-3.6133,-3.5863,-3.5504,0.0,0.0,0.0,0.0,0.0,0.0,0.0,0.0,0.0,0.0,0.0,0.0,0.0,0.0,0.0,0.0,0.0,0.0,0.0,0.0,0.0,0.0,0.0,0.0,0.0,-3.5766,-3.5723,-3.5639,-3.5639,-3.5499,-3.5273,-3.5193,-3.485,-3.4357,-3.4246,-3.4007,-3.3691,-3.3912,-3.3964,-3.3802,-3.3323,-3.3307,-3.3381,0.0,0.0,0.0,0.0,0.0,0.0,0.0,0.0,0.0,0.0,0.0,0.0,0.0,0.0,0.0,0.0,0.0,0.0,0.0,0.0,0.0,0.0,0.0,0.0,0.0,0.0,0.0,0.0,0.0,0.0,0.0,0.0,0.0,0.0,0.0,-4.0625,-4.1402,-4.1664,-4.2185,-4.3124,-4.2948,-4.317,-4.4082,-4.3596,-4.3462,-4.3943,-4.3721,-4.3649,-4.3792,-4.3809,-4.4062,-4.457,-4.4587,-4.4587,-4.4587,-4.4587,-4.4587,-4.457,-4.4327,-4.335,-4.1997,-4.1674,-4.0774,-3.9424,-3.9424,-3.9155,-3.8676,-3.8003,-3.7345,-3.6791,-3.6791,-3.6387,-3.5738,0.0,0.0,0.0,0.0,0.0,0.0,0.0,0.0,0.0,0.0,0.0,0.0,0.0,0.0,0.0,0.0,0.0,0.0,0.0,0.0,0.0,0.0,0.0,0.0,-3.5907,-3.5907,-3.5841,-3.571,-3.571,-3.5679,-3.5591,-3.5348,-3.5028,-3.4714,-3.4379,-3.4068,-3.3734,-3.2872,-3.2838,-3.3296,-3.2685,-3.283,-3.3268,0.0,0.0,0.0,0.0,0.0,0.0,0.0,0.0,0.0,0.0,0.0,0.0,0.0,0.0,0.0,0.0,0.0,0.0,0.0,0.0,0.0,0.0,0.0,0.0,0.0,0.0,0.0,0.0,0.0,0.0,0.0,0.0,0.0,-4.007,-4.0528,-4.0856,-4.0903,-4.1446,-4.2038,-4.2652,-4.2816,-4.3406,-4.4602,-4.4259,-4.4347,-4.5152,-4.4634,-4.4387,-4.4609,-4.4587,-4.4587,-4.4587,-4.4587,-4.4587,-4.4587,-4.4587,-4.4587,-4.4514,-4.3697,-4.2785,-4.1933,-4.108,-4.0185,-3.9424,-3.9424,-3.9424,-3.9349,-3.8676,-3.8018,-3.7434,-3.7434,-3.703,-3.6239,0.0,0.0,0.0,0.0,0.0,0.0,0.0,0.0,0.0,0.0,0.0,0.0,0.0,0.0,0.0,0.0,0.0,0.0,0.0,0.0,0.0,0.0,0.0,0.0,-3.589,-3.5891,-3.5878,-3.5841,-3.5841,-3.5791,-3.5659,-3.5543,-3.5342,-3.5044,-3.4718,-3.4228,-3.3588,-3.2818,-3.2389,-3.2179,-3.1325,-3.1096,-3.1229,0.0,0.0,0.0,0.0,0.0,0.0,0.0,0.0,0.0,0.0,0.0,0.0,0.0,0.0,0.0,0.0,0.0,0.0,0.0,0.0,0.0,0.0,0.0,0.0,0.0,0.0,0.0,0.0,0.0,0.0,0.0,0.0,-4.007,-4.007,-4.0254,-4.0449,-4.0856,-4.1446,-4.2065,-4.2761,-4.2863,-4.3491,-4.4936,-4.4129,-4.4096,-4.5333,-4.4833,-4.4555,-4.457,-4.4587,-4.4587,-4.4587,-4.4587,-4.4587,-4.4587,-4.4587,-4.4253,-4.3621,-4.3426,-4.2458,-4.1013,-4.0811,-4.0185,-3.9424,-3.9424,-3.9424,-3.9394,-3.9215,-3.8721,-3.8123,-3.8123,-3.7434,-3.6157,0.0,0.0,0.0,0.0,0.0,0.0,0.0,0.0,0.0,0.0,0.0,0.0,0.0,0.0,0.0,0.0,0.0,0.0,0.0,0.0,0.0,0.0,0.0,-3.5437,-3.5645,-3.5645,-3.5704,-3.5818,-3.5818,-3.5779,-3.5697,-3.5626,-3.5447,-3.5185,-3.485,-3.4383,-3.3781,-3.2862,-3.2332,-3.1986,-3.0527,-3.0144,-3.0354,-2.9901,-3.0043,-3.0496,-3.0541,-3.0734,-3.0896,-3.0011,0.0,0.0,0.0,0.0,0.0,0.0,0.0,0.0,0.0,0.0,0.0,0.0,0.0,0.0,0.0,0.0,0.0,0.0,0.0,0.0,0.0,0.0,0.0,0.0,-4.007,-4.007,-4.007,-4.007,-4.0204,-4.0546,-4.0891,-4.1464,-4.2461,-4.2626,-4.3353,-4.5064,-4.4406,-4.4374,-4.5425,-4.4906,-4.4587,-4.4587,-4.4587,-4.4587,-4.4587,-4.4587,-4.4587,-4.4587,-4.4587,-4.4138,-4.3306,-4.2909,-4.1997,0.0,-4.0309,-3.9864,-3.9424,-3.9424,-3.9424,0.0,0.0,0.0,0.0,0.0,-3.7511,-3.6035,0.0,0.0,0.0,0.0,0.0,0.0,0.0,0.0,0.0,0.0,0.0,0.0,0.0,0.0,0.0,0.0,0.0,0.0,0.0,0.0,0.0,-3.4694,-3.4767,-3.494,-3.5229,-3.524,-3.5369,-3.5651,-3.5651,-3.5671,-3.5702,-3.5634,-3.5483,-3.5239,-3.4901,-3.4574,-3.4176,-3.3028,-3.2533,-3.2332,-3.0219,-2.9745,-3.0164,-2.9032,-2.9295,-3.0186,-2.9508,-2.9693,-3.0047,-2.9164,0.0,0.0,0.0,0.0,0.0,0.0,0.0,0.0,0.0,0.0,0.0,0.0,0.0,0.0,0.0,0.0,0.0,0.0,0.0,0.0,0.0,0.0,0.0,0.0,-4.007,-4.007,-4.007,-4.007,-4.007,-4.007,-4.0204,-4.0724,-4.1871,-4.2279,-4.3202,-4.4864,-4.4749,-4.4814,-4.5372,0.0,0.0,0.0,0.0,-4.4587,-4.4587,-4.4587,-4.4587,-4.4587,-4.4587,-4.4064,-4.3108,-4.2316,-4.1478,-4.05,-3.9737,-3.9424,-3.9424,-3.9424,-3.9424,-3.9424,-3.9424,-3.9424,-3.9334,-3.8646,-3.7411,0.0,0.0,0.0,0.0,0.0,0.0,0.0,0.0,0.0,0.0,0.0,0.0,0.0,0.0,0.0,0.0,0.0,0.0,0.0,0.0,0.0,-3.4128,-3.4304,-3.4578,-3.4774,-3.4891,-3.4891,-3.5045,-3.5379,-3.5379,-3.5496,-3.5694,-3.5699,-3.5628,-3.5507,-3.5237,-3.4916,-3.451,-3.3323,-3.2715,-3.2332,-3.0219,-2.9486,-2.9542,-2.8865,-2.8757,-2.8994,-2.9203,-2.9405,-2.934,-2.8265,-2.8427,-2.8748,-2.7229,0.0,0.0,0.0,0.0,0.0,0.0,0.0,0.0,0.0,0.0,0.0,0.0,0.0,0.0,0.0,0.0,0.0,0.0,0.0,0.0,-4.007,-4.007,-4.007,-4.007,-4.007,-4.007,-4.007,-4.0891,-4.1464,-4.1359,-4.2774,-4.3698,-4.3714,-4.4279,-4.4626,-4.4776,-4.4682,0.0,-4.4587,-4.4587,-4.4587,-4.4587,-4.4587,-4.4587,-4.4587,0.0,0.0,-4.2252,-4.2062,-4.1162,-3.961,-3.9481,-3.9424,-3.9424,-3.9424,-3.9424,-3.9424,-3.9424,-3.9424,-3.9334,-3.8646,-3.7691,-3.6343,0.0,0.0,0.0,0.0,0.0,0.0,0.0,0.0,0.0,0.0,0.0,0.0,0.0,0.0,0.0,0.0,0.0,0.0,0.0,-3.2958,-3.3586,-3.3975,-3.416,-3.4319,-3.4505,-3.4505,-3.4661,-3.4998,-3.4998,-3.5141,-3.5446,-3.5418,-3.5489,-3.5632,-3.5299,-3.4995,-3.4661,-3.3421,-3.2742,-3.2332,-3.0219,-2.9406,-2.9257,-2.8041,-2.7753,-2.7983,-2.7395,-2.7594,-2.7961,-2.7,-2.717,-2.7604,-2.6782,-2.7095,-2.7604,0.0,0.0,0.0,0.0,0.0,0.0,0.0,0.0,0.0,0.0,0.0,0.0,0.0,0.0,-3.8908,0.0,0.0,-4.007,-4.007,-4.007,-4.007,-4.007,-4.007,-4.007,-4.007,-4.0844,-4.1325,-4.1222,-4.2299,-4.3138,-4.3373,-4.3775,-4.4181,-4.4553,-4.4587,-4.4587,-4.4587,-4.4587,-4.4587,-4.4587,-4.4587,-4.4587,-4.4587,-4.4587,-4.3931,-4.2645,-4.2189,-4.1295,-4.006,-3.961,-3.9424,-3.9424,-3.9424,-3.9424,-3.9424,-3.9424,-3.9424,-3.9379,-3.9035,-3.7682,-3.593,0.0,0.0,0.0,0.0,0.0,0.0,0.0,0.0,0.0,0.0,0.0,0.0,0.0,0.0,0.0,0.0,0.0,0.0,0.0,-3.2465,-3.3188,-3.377,-3.3807,-3.3858,-3.4006,-3.408,-3.4242,-3.4489,-3.4572,-3.4813,-3.5182,-3.5148,-3.5334,-3.5664,-3.5366,-3.5071,-3.4729,-3.3504,-3.2798,-3.2332,-3.0219,-2.93,-2.8979,-2.7012,-2.6705,-2.7109,-2.563,-2.5823,-2.6593,-2.5879,-2.5988,-2.6533,-2.6533,-2.6533,-2.6533,-2.6533,-2.6533,0.0,0.0,0.0,0.0,0.0,0.0,0.0,0.0,0.0,-3.6484,-3.6609,-3.785,-3.8974,-3.9123,-3.9662,-4.007,-4.007,-4.007,-4.007,-4.007,-4.007,-4.007,-4.007,-4.0672,-4.1069,-4.1137,-4.1836,-4.2472,-4.3093,-4.3169,-4.347,-4.4096,-4.4265,-4.435,-4.435,-4.4502,-4.4587,-4.4587,-4.4587,-4.4587,-4.4587,-4.4587,-4.4064,-4.3047,-4.2332,-4.1412,-4.0432,-3.9737,-3.9424,-3.9424,-3.9424,-3.9424,-3.9424,-3.9424,-3.9424,-3.9424,-3.9424,-3.775,-3.5571,0.0,0.0,0.0,0.0,0.0,0.0,0.0,0.0,0.0,0.0,0.0,0.0,0.0,0.0,0.0,0.0,0.0,0.0,-3.1544,-3.3062,-3.3951,-3.3815,-3.3807,-3.3634,-3.3314,-3.3643,-3.3795,-3.3718,-3.4067,-3.4555,-3.5117,-3.5225,-3.5395,-3.56,-3.5635,-3.5328,-3.4729,-3.3696,-3.2965,-3.2332,-3.0219,-2.9009,-2.8215,-2.6236,-2.6002,-2.6469,-2.5482,-2.5485,-2.5965,-2.5673,-2.5988,-2.6533,-2.6533,-2.6533,-2.6533,-2.6533,0.0,-2.6521,-2.6589,-2.7229,-2.8065,-2.9149,-3.0429,-3.1678,0.0,0.0,-3.5999,-3.6662,-3.7969,-3.9193,-3.9834,-4.002,-4.007,-4.007,-4.007,-4.007,-4.007,-4.007,-4.007,-4.007,-4.103,-4.1481,-4.0977,-4.2048,-4.263,-4.2279,-4.233,-4.2455,-4.254,-4.3183,-4.3538,-4.3538,-4.4215,-4.4587,-4.4587,-4.4587,-4.4587,-4.4587,-4.4587,-4.3739,-4.2125,-4.2062,-4.1095,-3.9553,-3.9409,-3.9424,-3.9424,-3.9424,-3.9424,-3.9424,-3.9424,-3.9424,-3.9424,-3.9424,-3.7997,-3.6032,0.0,0.0,0.0,0.0,0.0,0.0,0.0,0.0,0.0,0.0,0.0,0.0,0.0,0.0,0.0,0.0,0.0,0.0,-3.2147,-3.3619,-3.4482,-3.433,-3.3906,-3.3606,-3.3441,-3.3189,-3.3039,-3.2937,-3.3551,-3.4059,-3.4484,-3.499,-3.5368,-3.5594,-3.5628,-3.5175,-3.4302,-3.2782,-3.1659,-3.0717,-2.8528,-2.742,-2.6952,-2.5384,-2.4951,-2.509,-2.4262,-2.4307,0.0,0.0,-2.5511,-2.6013,-2.642,-2.6533,-2.6533,-2.6533,-2.6533,0.0,-2.767,-2.8182,-2.8812,-3.0133,-3.1245,-3.2032,-3.2452,-3.3848,-3.5417,-3.659,-3.7642,-3.8773,-3.9885,-4.007,-4.007,0.0,-4.007,-4.007,-4.007,-4.007,-4.0204,-4.0546,-4.1286,-4.1578,-4.0949,-4.1411,-4.1858,-4.2098,-4.1818,-4.1847,-4.2269,-4.2591,-4.276,-4.276,-4.3081,-4.325,-4.325,-4.325,-4.347,-4.391,-4.391,-4.3497,-4.2724,-4.2252,-4.0876,-3.8841,-3.9245,-3.9185,-3.8856,-3.926,-3.9424,-3.9424,-3.9424,-3.9424,-3.9337,-3.8708,-3.7496,-3.6091,0.0,0.0,0.0,0.0,0.0,0.0,0.0,0.0,0.0,0.0,0.0,0.0,0.0,0.0,0.0,0.0,0.0,0.0,0.0,-3.4131,-3.4833,-3.4639,-3.3985,-3.345,-3.3049,-3.2524,-3.2126,-3.1811,-3.2626,-3.3194,-3.3478,-3.447,-3.4979,-3.5009,-3.4866,-3.4101,-3.2797,-3.0917,-2.966,-2.869,-2.6484,-2.561,-2.549,-2.4346,-2.3669,-2.3242,-2.3113,-2.3502,0.0,0.0,-2.5172,-2.5699,-2.6276,-2.6533,-2.6533,-2.6533,-2.6533,-2.6782,-2.8247,-2.8812,-2.938,-3.0837,-3.1708,-3.2243,-3.2243,-3.3218,-3.4529,-3.5959,-3.6987,-3.8116,-3.9531,-3.9935,-4.007,-4.007,-4.007,-4.0171,-4.0286,-4.0336,-4.0546,-4.1087,-4.1534,-4.1707,-4.1446,-4.1402,-4.1558,-4.1986,-4.1467,-4.1291,-4.1644,-4.188,-4.1999,-4.1999,-4.2185,-4.2286,-4.2286,-4.2286,-4.2574,-4.3098,-4.2879,-4.2665,-4.2321,-4.1231,-3.9787,-3.8138,-3.8646,-3.8571,-3.8153,-3.8661,-3.8871,-3.8871,-3.8871,-3.8713,-3.8324,-3.7221,-3.6459,-3.5898,0.0,0.0,0.0,0.0,0.0,0.0,0.0,0.0,0.0,0.0,0.0,0.0,0.0,0.0,0.0,0.0,0.0,0.0,0.0,-3.4642,-3.5033,-3.4432,-3.3945,-3.3067,-3.1707,-3.1654,-3.1124,-3.0087,-3.1145,-3.1794,-3.2083,-3.362,-3.4048,-3.3548,-3.3034,-3.1732,-2.9814,-2.792,-2.6919,-2.6445,-2.4545,-2.3861,-2.3866,-2.328,-2.2103,-2.0899,-2.2494,0.0,0.0,0.0,-2.5172,-2.5699,-2.6276,-2.6533,0.0,-2.6533,-2.6533,-2.6658,-2.7484,-2.8363,-2.9192,-3.0133,-3.0925,-3.1497,-3.1497,-3.2109,-3.3053,-3.4468,-3.588,-3.7285,-3.8771,-3.9597,-4.007,-4.007,-4.007,-4.0286,-4.0827,-4.0856,-4.1087,-4.1707,-4.181,-4.2021,0.0,-4.2655,-4.24,-4.1846,-4.1258,-4.0707,-4.0189,-4.0832,-4.1238,-4.1238,-4.1931,-4.2286,-4.2286,-4.2286,-4.2303,-4.232,-4.1633,-4.0802,-3.995,-3.8279,-3.7518,-3.7434,-3.7464,-3.7464,-3.7434,-3.7464,-3.7464,-3.7464,-3.7464,-3.6866,-3.5957,-3.4906,-3.492,-3.5446,0.0,0.0,0.0,0.0,0.0,0.0,0.0,0.0,0.0,0.0,0.0,0.0,0.0,0.0,0.0,0.0,0.0,0.0,0.0,-3.4587,-3.4867,-3.3904,-3.3301,-3.0866,-2.6393,-2.5818,-2.3863,-2.0451,-2.1296,-1.9714,-1.5889,-1.6955,-1.7987,-1.8962,-1.8864,-2.1384,-2.553,-2.3275,-2.1776,-2.0863,-1.9361,-1.9147,-1.9701,-1.9565,-1.9921,-2.0504,0.0,0.0,0.0,0.0,-2.3257,-2.4329,-2.4852,-2.5704,-2.6533,-2.6533,-2.6533,-2.6658,-2.7484,-2.8363,-2.9192,-3.0072,-3.0896,-3.1482,-3.1482,-3.1697,-3.24,-3.4298,-3.5465,-3.6705,-3.8622,-3.958,-4.0204,-4.0577,-4.0607,-4.0827,-4.1402,-4.149,-4.1707,-4.2342,-4.24,0.0,0.0,0.0,0.0,-4.2342,-4.1122,-4.0449,-4.0607,-4.0525,-4.046,-4.046,-4.0696,-4.0815,-4.0815,-4.0815,-4.1068,-4.1576,-4.0754,-4.0188,-3.9825,-3.8152,-3.718,-3.6821,-3.724,-3.718,-3.6821,-3.724,-3.7404,-3.7404,-3.7404,-3.7183,-3.6807,-3.5827,-3.4959,-3.4107,0.0,0.0,0.0,0.0,0.0,0.0,0.0,0.0,0.0,0.0,0.0,0.0,0.0,0.0,0.0,0.0,0.0,0.0,0.0,0.0,-2.8546,-2.9839,-2.4622,-2.0702,-1.8618,-1.6588,-1.4003,-1.0812,-1.1011,-0.8982,-0.4942,-0.5471,-0.6604,-0.8209,-0.8451,-1.1862,-1.7334,-1.6558,-1.6097,-1.5728,-1.4506,-1.4938,-1.6338,-1.6587,-1.7254,0.0,0.0,0.0,0.0,0.0,-2.1811,-2.3036,-2.3606,-2.4773,-2.5943,-2.5943,-2.6245,-2.6658,-2.7484,-2.8117,-2.8812,-3.0011,-3.0703,-3.1161,-3.1409,-3.1482,-3.1974,-3.3606,-3.4915,-3.6307,-3.7937,-3.9227,-4.0286,-4.0827,-4.0903,-4.1178,-4.1997,-4.2121,-4.2342,-4.2939,-4.2976,-4.3142,0.0,0.0,0.0,-4.2342,-4.1348,-4.0672,-4.0625,-4.0286,-4.007,-4.007,-4.007,-4.007,-4.007,-4.007,-4.0205,-4.0383,-3.9511,-3.9014,-3.8649,-3.7319,-3.6507,-3.6148,-3.6552,-3.6507,-3.6163,-3.6567,-3.6731,-3.6731,-3.6731,-3.6499,-3.6045,-3.5152,-3.3954,-3.261,0.0,0.0,0.0,0.0,0.0,0.0,0.0,0.0,0.0,0.0,0.0,0.0,0.0,0.0,0.0,0.0,0.0,0.0,0.0,0.0,0.0,-2.2393,-0.9339,-0.4094,-0.8581,-0.4623,-0.2148,-0.1338,-0.0605,0.0341,0.1453,0.1374,0.0762,-0.0326,-0.1024,-0.2815,-0.5485,-0.7829,-0.969,-1.0951,-1.0193,-1.1361,-1.3607,-1.4371,0.0,0.0,0.0,0.0,0.0,0.0,-2.0708,-2.1976,-2.2711,-2.3943,-2.5004,-2.5075,-2.5734,-2.6658,-2.7417,-2.767,-2.8182,-2.9827,-3.0329,-3.0584,-3.1351,-3.1482,-3.1739,-3.2477,-3.4311,-3.5953,0.0,0.0,-4.0285,-4.0856,-4.0949,-4.1402,-4.2559,-4.275,-4.2939,0.0,0.0,0.0,0.0,0.0,0.0,-4.1895,0.0,-4.1286,-4.0254,-4.0121,-4.007,-4.007,-4.007,-4.007,-4.007,-4.007,-3.9731,-3.8962,-3.8149,-3.7397,-3.6615,-3.5846,-3.5504,-3.5504,-3.5504,-3.5504,-3.5504,-3.5504,-3.5504,-3.5504,-3.5504,-3.4905,-3.3876,-3.2961,-3.2033,-3.1259,0.0,0.0,0.0,0.0,0.0,0.0,0.0,0.0,0.0,0.0,0.0,0.0,0.0,0.0,0.0,0.0,0.0,0.0,0.0,0.0,0.0,0.0,0.0,0.0,0.0,0.0,0.0,0.0,0.0,1.4557,1.9797,1.9768,2.1334,2.3993,1.9281,1.3284,0.6513,0.3317,0.0074,-0.3254,0.0,-0.6697,-0.8477,0.0,0.0,0.0,0.0,0.0,0.0,-1.614,-1.8014,-2.0419,-2.3144,-2.4413,-2.5158,-2.5873,-2.6314,-2.6521,-2.6782,-2.7736,-2.8812,-2.9192,-3.0269,-3.1219,-3.1467,-3.1482,-3.1838,-3.3077,-3.4197,-3.5509,0.0,0.0,0.0,-4.1402,-4.1937,0.0,-4.3214,-4.3286,0.0,-4.3479,0.0,-4.3497,-4.3497,-4.3375,0.0,0.0,-4.1621,-4.1178,-4.1375,-4.0546,-4.007,-4.007,-4.007,-4.007,-4.007,-4.007,-4.002,-3.9782,-3.843,-3.769,-3.7456,-3.6085,-3.5504,-3.5504,-3.5504,-3.5504,-3.5504,-3.5504,-3.5504,-3.5504,-3.5504,-3.4905,-3.3876,-3.2961,-3.2033,-3.1132,0.0,0.0,0.0,0.0,0.0,0.0,0.0,0.0,0.0,0.0,0.0,0.0,0.0,0.0,0.0,0.0,0.0,0.0,0.0,0.0,0.0,0.0,0.0,0.0,0.0,0.0,0.0,0.0,0.0,0.0,0.0,2.9579,3.0556,3.1516,2.7357,2.1105,1.3427,0.0,0.0,0.0,0.0,0.0,0.0,0.0,0.0,0.0,0.0,0.0,0.0,-1.6096,-1.7957,-2.0389,-2.2806,-2.4272,-2.5087,-2.5664,-2.6164,-2.6533,-2.6533,-2.7162,-2.8051,-2.8812,-2.969,-3.0584,-3.1351,-3.1482,-3.1853,-3.2933,-3.4001,-3.5247,-3.7086,-3.8696,-4.0262,0.0,0.0,0.0,-4.341,-4.3497,-4.3497,0.0,-4.3497,0.0,-4.3497,-4.3497,-4.3375,0.0,-4.2185,-4.1621,-4.1402,-4.0797,-4.0319,-4.0121,-4.007,-4.007,-4.007,-4.007,-4.007,-4.007,-3.8557,-3.7822,-3.7764,-3.6196,-3.5504,-3.5504,0.0,-3.5504,-3.5504,-3.5504,-3.5504,-3.5504,-3.5504,-3.4905,-3.3876,-3.2961,-3.2033,-3.1031,0.0,0.0,0.0,0.0,0.0,0.0,0.0,0.0,0.0,0.0,0.0,0.0,0.0,0.0,0.0,0.0,0.0,0.0,0.0,0.0,0.0,0.0,0.0,0.0,0.0,0.0,0.0,0.0,0.0,0.0,0.0,0.0,0.0,0.0,0.0,0.0,0.0,0.0,0.0,0.0,0.0,0.0,0.0,0.0,0.0,0.0,0.0,0.0,0.0,-1.7426,-1.9257,-2.0935,-2.2317,-2.3756,-2.4921,-2.5134,-2.5804,-2.6521,-2.6658,-2.6658,-2.704,-2.8748,-2.9192,-2.9566,-3.1161,-3.1482,-3.1739,-3.2586,-3.3672,-3.5033,-3.6521,-3.8444,-4.0193,-4.1442,0.0,-4.2976,-4.3444,-4.3497,-4.3497,-4.3497,-4.3497,-4.3497,-4.3497,-4.3497,-4.3497,-4.3497,-4.305,-4.2284,-4.1087,-4.0874,-4.0577,-4.0121,-4.007,-4.007,-4.007,-4.007,-4.007,-4.007,-3.8557,-3.7822,-3.7764,-3.6196,-3.5504,-3.5504,0.0,0.0,-3.5504,-3.5504,-3.5504,-3.5504,-3.5359,-3.4691,-3.3671,-3.2749,-3.1829,-3.0895,0.0,0.0,0.0,0.0,0.0,0.0,0.0,0.0,0.0,0.0,0.0,0.0,0.0,0.0,0.0,0.0,0.0,0.0,0.0,0.0,0.0,0.0,0.0,0.0,0.0,0.0,0.0,0.0,0.0,0.0,0.0,0.0,0.0,0.0,0.0,0.0,0.0,0.0,0.0,0.0,0.0,0.0,0.0,0.0,0.0,0.0,0.0,0.0,-1.6591,0.0,-1.9385,-2.036,-2.2626,-2.3798,-2.4596,-2.5889,-2.6383,-2.6658,-2.7284,-2.7484,-2.792,-2.9628,-3.0072,-3.0329,-3.1278,-3.1482,0.0,-3.3182,-3.3642,-3.4408,-3.6444,-3.8356,-3.9911,-4.0754,-4.23,-4.341,-4.3497,-4.3497,-4.3497,0.0,-4.3497,-4.3497,-4.3497,-4.3497,0.0,0.0,0.0,-4.2865,-4.1707,-4.0767,-4.0204,-4.0121,-4.007,-4.007,-4.007,-4.007,-4.007,-4.007,-3.8557,-3.7822,-3.7764,-3.6196,-3.5504,-3.5504,0.0,0.0,-3.5504,-3.5504,-3.5504,-3.5439,-3.461,-3.3671,-3.2749,-3.1815,-3.0833,-2.9998,0.0,0.0,0.0,0.0,0.0,0.0,0.0,0.0,0.0,0.0,0.0,0.0,0.0,0.0,0.0,0.0,0.0,0.0,0.0,0.0,0.0,0.0,0.0,0.0,0.0,0.0,2.7229,3.2346,0.0,0.0,0.0,0.0,0.0,0.0,0.0,0.0,0.0,0.0,0.0,0.0,0.0,0.0,0.0,0.0,0.0,0.0,0.0,0.0,-1.8188,-1.9456,-2.0669,-2.1847,-2.3644,-2.4487,-2.5228,-2.6659,-2.7095,-2.7229,-2.7604,-2.8051,-2.8556,-2.938,-2.995,-3.0524,-3.1351,-3.1796,-3.2367,-3.3391,-3.3887,-3.4741,-3.6763,-3.8489,-3.99,-4.0903,-4.245,-4.3497,-4.3497,-4.3497,-4.3497,-4.3497,-4.3497,-4.3497,0.0,-4.3497,0.0,0.0,0.0,-4.2714,-4.1853,-4.0737,-4.007,-4.007,-4.007,-4.007,-4.007,-4.007,-4.007,-4.007,-3.8557,-3.7822,-3.7764,-3.6196,-3.5504,-3.5504,-3.5504,0.0,-3.5504,-3.5504,-3.5213,-3.4691,-3.4177,-3.3101,-3.1815,-3.1389,-3.0633,-2.9792,0.0,0.0,0.0,0.0,0.0,0.0,0.0,0.0,0.0,0.0,0.0,0.0,0.0,0.0,0.0,0.0,0.0,0.0,0.0,0.0,0.0,0.0,0.0,0.0,0.0,0.0,0.0,2.8097,2.5162,0.0,0.0,0.0,0.0,0.0,2.3803,0.0,0.0,0.0,0.0,0.0,0.0,0.0,0.0,0.0,0.0,0.0,0.0,0.0,-1.938,-2.0493,-2.1741,-2.3058,-2.4432,-2.5242,-2.5972,-2.7184,-2.7762,-2.8051,-2.8247,-2.862,-2.9066,-2.9442,-2.995,-3.0569,-3.1495,-3.216,-3.2841,-3.3633,-3.4235,-3.5168,-3.6948,-3.8532,-3.9925,0.0,-4.2468,-4.3497,-4.3497,-4.3497,-4.3497,-4.3497,-4.3497,0.0,-4.3497,-4.3497,0.0,0.0,0.0,0.0,-4.1621,-4.0642,-4.007,-4.007,-4.007,-4.007,-4.007,-4.007,-4.007,-4.007,-3.8557,-3.7822,-3.7764,-3.6196,-3.5504,-3.5504,-3.5504,0.0,0.0,-3.5504,-3.5052,-3.4245,-3.3876,-3.282,-3.1462,-3.1044,-3.0419,-2.9792,0.0,0.0,0.0,0.0,0.0,0.0,0.0,0.0,0.0,0.0,0.0,0.0,0.0,0.0,0.0,0.0,0.0,0.0,0.0,0.0,0.0,0.0,0.0,0.0,0.0,0.0,0.0,1.0243,1.0711,0.0,0.0,0.0,0.0,0.0,0.0,2.2734,1.9466,0.0,0.0,0.0,0.0,0.0,0.0,0.0,0.0,0.0,0.0,-1.7581,-1.9552,-2.1227,-2.1877,-2.2345,-2.4429,-2.5503,-2.6205,-2.6786,-2.788,-2.9066,-2.9827,-2.9566,-2.938,-3.0896,-3.0777,-3.0674,-3.213,-3.2547,-3.2933,-3.4235,-3.4576,-3.4971,-3.6276,-3.8181,-3.9804,-4.0311,-4.2139,-4.3497,-4.3497,-4.3497,-4.3497,-4.3497,0.0,0.0,-4.3497,-4.3497,0.0,0.0,0.0,0.0,0.0,-4.0417,-4.007,-4.007,-4.007,-4.007,-4.007,-4.007,-4.007,-4.007,-3.8557,-3.7822,-3.7764,-3.6196,-3.5504,-3.5504,0.0,0.0,0.0,-3.5504,-3.5439,-3.5213,-3.3394,-3.2593,-3.2249,-3.057,-2.9856,-2.9792,0.0,0.0,0.0,0.0,0.0,0.0,0.0,0.0,0.0,0.0,0.0,0.0,0.0,0.0,0.0,0.0,0.0,0.0,0.0,0.0,0.0,0.0,0.0,0.0,0.0,0.0,0.0,-0.9285,-0.4347,0.0,0.0,0.0,0.0,0.0,0.0,0.8612,0.7654,0.0,0.0,0.0,0.0,0.0,0.0,0.0,0.0,0.0,0.0,0.0,-2.1646,-2.236,-2.3217,-2.4195,-2.5452,-2.6567,-2.7626,-2.8162,-2.8759,-2.9345,-3.0107,-3.0389,-3.0524,-3.0718,-3.1218,-3.1849,-3.2477,-3.3235,-3.3937,-3.4479,-3.5186,-3.5942,-3.6746,-3.8211,-3.9626,-4.0611,-4.191,0.0,-4.3424,-4.3497,-4.3563,-4.3772,-4.3612,0.0,0.0,0.0,0.0,0.0,0.0,0.0,0.0,-4.0594,-4.007,-4.007,-4.007,-4.007,-4.007,-4.007,-4.007,-4.007,-3.8557,-3.7822,-3.7764,-3.6196,-3.5504,-3.5504,0.0,0.0,0.0,-3.5504,-3.4787,-3.3685,-3.289,-3.1901,-3.0846,-3.0075,-2.9792,-2.9792,0.0,0.0,0.0,0.0,0.0,0.0,0.0,0.0,0.0,0.0,0.0,0.0,0.0,0.0,0.0,0.0,0.0,0.0,0.0,0.0,0.0,0.0,0.0,0.0,0.0,0.0,0.0,0.0,0.0,-1.2144,0.0,0.0,-0.6142,-0.6101,0.0,0.0,0.0,0.0,0.0,0.0,0.0,0.0,0.0,0.0,0.0,0.0,0.0,0.0,0.0,0.0,0.0,-2.5821,-2.6607,-2.7548,-2.8499,-2.9134,-2.9755,-3.0354,-3.08,-3.1357,-3.1724,-3.1347,-3.1931,-3.2695,-3.3093,-3.3937,-3.4719,-3.5048,-3.583,-3.6603,-3.7285,-3.8313,-3.953,-4.0899,0.0,-4.258,-4.3387,-4.3497,-4.3612,-4.3955,0.0,-4.3758,0.0,0.0,0.0,0.0,0.0,0.0,0.0,-4.0642,-4.007,-4.007,-4.007,-4.007,-4.007,-4.007,-3.9952,-3.9731,-3.843,-3.7706,-3.7397,-3.6085,-3.5504,-3.5504,0.0,0.0,0.0,-3.5504,-3.4558,-3.2961,-3.2749,-3.1623,-3.0216,-2.9934,-2.9792,-2.9792,0.0,0.0,0.0,0.0,0.0,0.0,0.0,0.0,0.0,0.0,0.0,0.0,0.0,0.0,0.0,0.0,0.0,0.0,0.0,0.0,0.0,0.0,0.0,0.0,0.0,0.0,0.0,0.0,0.0,0.0,0.0,-1.82,-1.8626,-2.0365,0.0,0.0,0.0,0.0,0.0,0.0,0.0,0.0,0.0,0.0,0.0,0.0,0.0,0.0,0.0,0.0,0.0,0.0,0.0,-2.8294,-2.8434,0.0,-3.0822,-3.2474,-3.2474,-3.2536,-3.2749,-3.3391,-3.3093,-3.2949,-3.4284,-3.4576,-3.4955,-3.6147,-3.6374,-3.6724,-3.772,-3.8543,-3.953,-4.0899,-4.1791,0.0,-4.3387,-4.3497,-4.3612,0.0,0.0,-4.4016,0.0,0.0,0.0,0.0,0.0,0.0,0.0,-4.0417,-4.007,-4.007,-4.007,-4.007,-4.007,-4.007,-3.9731,-3.8908,-3.8149,-3.7397,-3.6615,-3.5846,-3.5504,0.0,0.0,0.0,0.0,-3.5504,-3.4905,-3.3876,-3.2961,-3.2033,-3.1031,-3.0139,-2.9792,-2.9792,0.0,0.0,0.0,0.0,0.0,0.0,0.0,0.0,0.0,0.0,0.0,0.0,0.0,0.0,0.0,0.0,0.0,0.0,0.0,0.0,0.0,0.0,0.0,0.0,0.0,0.0,0.0,0.0,0.0,0.0,0.0,0.0,0.0,-2.2094,-2.2094,0.0,0.0,0.0,0.0,0.0,0.0,0.0,0.0,0.0,0.0,0.0,0.0,0.0,0.0,0.0,0.0,0.0,0.0,0.0,0.0,-3.0749,-3.1052,-3.1166,-3.1613,-3.2117,-3.259,-3.2793,-3.3382,-3.4153,-3.4964,-3.5232,-3.5599,-3.6706,-3.696,-3.7135,-3.779,-3.8416,-3.9319,-4.0859,-4.1313,0.0,0.0,0.0,0.0,-4.4337,-4.4175,0.0,0.0,0.0,0.0,0.0,0.0,0.0,0.0,-4.0594,-4.007,-4.007,-4.007,-4.007,-4.007,-3.9542,-3.9139,-3.8908,-3.76,-3.6843,-3.6554,-3.5846,0.0,0.0,0.0,0.0,0.0,-3.5504,-3.4558,-3.3031,-3.2749,-3.1609,-3.0216,-2.9934,-2.9792,-2.9792,0.0,0.0,0.0,0.0,0.0,0.0,0.0,0.0,0.0,0.0,0.0,0.0,0.0,0.0,0.0,0.0,0.0,0.0,0.0,0.0,0.0,0.0,0.0,0.0,0.0,0.0,0.0,0.0,0.0,0.0,0.0,0.0,0.0,0.0,0.0,0.0,0.0,0.0,0.0,0.0,0.0,0.0,-2.2518,0.0,0.0,0.0,0.0,0.0,0.0,0.0,0.0,0.0,0.0,0.0,0.0,0.0,-3.1658,-3.1324,-3.2041,-3.2796,-3.3466,-3.3711,-3.4488,-3.5341,-3.5925,-3.6138,-3.644,-3.7285,-3.747,-3.7632,-3.8099,-3.8465,-3.9239,-4.0855,-4.1204,0.0,0.0,0.0,0.0,-4.4337,0.0,0.0,0.0,0.0,0.0,0.0,0.0,0.0,0.0,0.0,-4.007,-4.007,-4.007,-4.007,-4.007,-3.961,-3.9032,-3.8469,-3.7499,-3.6737,-3.6165,-3.5733,0.0,0.0,0.0,0.0,0.0,-3.5067,-3.4041,-3.2522,-3.2249,-3.1119,-2.9792,-2.9792,-2.9792,-2.9792,0.0,0.0,0.0,0.0,0.0,0.0,0.0,0.0,0.0,0.0,0.0,0.0,0.0,0.0,0.0,0.0,0.0,0.0,0.0,0.0,0.0,0.0,0.0,0.0,0.0,0.0,0.0,0.0,-2.8622,-2.8544,-2.8544,0.0,0.0,0.0,0.0,0.0,0.0,0.0,0.0,0.0,0.0,0.0,0.0,0.0,0.0,0.0,0.0,0.0,0.0,0.0,0.0,0.0,0.0,0.0,0.0,0.0,0.0,0.0,0.0,-3.4228,-3.5022,-3.5661,-3.6015,-3.6377,-3.7099,-3.721,0.0,-3.7859,-3.7946,-3.8065,-3.8596,-3.8707,-3.9221,-4.0868,-4.1396,0.0,0.0,-4.3881,0.0,0.0,0.0,0.0,0.0,0.0,0.0,0.0,0.0,0.0,0.0,0.0,-4.007,-4.007,-4.007,-4.007,-4.007,-4.002,-3.9226,-3.7822,-3.7706,-3.689,-3.5504,-3.5504,0.0,0.0,0.0,0.0,0.0,-3.4394,-3.338,-3.2393,-3.1536,-3.062,-2.9792,-2.9792,-2.9792,-2.9792,0.0,0.0,0.0,0.0,0.0,0.0,0.0,0.0,0.0,0.0,0.0,0.0,0.0,0.0,0.0,0.0,0.0,0.0,0.0,0.0,0.0,0.0,0.0,0.0,0.0,0.0,0.0,-3.0863,-3.0832,-3.08,-3.0816,-3.064,0.0,0.0,0.0,0.0,0.0,0.0,0.0,0.0,0.0,0.0,0.0,0.0,0.0,0.0,-2.8671,-2.9273,0.0,0.0,0.0,0.0,0.0,0.0,0.0,0.0,-3.3045,-3.3142,-3.3608,0.0,-3.4869,-3.5013,-3.6019,-3.7082,0.0,-3.747,-3.7451,-3.8318,-3.8183,-3.8065,-3.8596,-3.8707,-3.9326,-4.116,0.0,0.0,-4.4436,0.0,0.0,-4.4058,0.0,0.0,0.0,0.0,0.0,0.0,0.0,0.0,0.0,0.0,-4.007,-4.007,-4.007,-4.007,-4.007,-3.8941,-3.8149,-3.7822,-3.66,-3.5861,-3.5504,-3.5504,0.0,0.0,0.0,0.0,-3.4312,-3.4095,-3.3031,-3.1536,-3.1315,-3.062,-2.9792,-2.9792,-2.9792,-2.9792,0.0,0.0,0.0,0.0,0.0,0.0,0.0,0.0,0.0,0.0,0.0,0.0,0.0,0.0,0.0,0.0,0.0,0.0,0.0,0.0,0.0,0.0,0.0,0.0,0.0,0.0,0.0,0.0,0.0,-3.2406,0.0,0.0,0.0,0.0,0.0,0.0,0.0,0.0,0.0,0.0,-2.9417,0.0,0.0,0.0,0.0,0.0,-3.0654,-3.1067,0.0,-3.1646,-3.2366,-3.3106,0.0,0.0,0.0,0.0,-3.372,-3.4069,-3.4303,-3.4902,-3.5497,-3.5497,-3.6705,-3.7929,-3.8201,-3.8083,-3.805,-3.8596,-3.8465,-3.835,-3.8658,-3.9001,-3.9737,-4.1132,-4.1805,0.0,0.0,0.0,-4.4638,0.0,0.0,0.0,0.0,0.0,0.0,0.0,0.0,0.0,0.0,0.0,-3.9089,-3.9089,-3.9089,-3.9242,-3.958,-3.8463,-3.7519,-3.6846,-3.5672,-3.4938,-3.4577,-3.4577,0.0,0.0,0.0,0.0,-3.3959,-3.3518,-3.2536,-3.118,-3.0696,-3.0279,-2.9792,-2.9792,-2.9792,-2.9792,0.0,0.0,0.0,0.0,0.0,0.0,0.0,0.0,0.0,0.0,0.0,0.0,0.0,0.0,0.0,0.0,0.0,0.0,0.0,0.0,0.0,0.0,0.0,0.0,0.0,0.0,0.0,0.0,0.0,0.0,0.0,0.0,0.0,0.0,0.0,0.0,0.0,0.0,0.0,0.0,-3.1951,0.0,0.0,0.0,0.0,0.0,0.0,0.0,0.0,-3.3253,-3.4034,-3.4677,-3.3987,0.0,0.0,0.0,0.0,0.0,-3.5192,-3.5844,-3.6468,-3.6468,-3.7606,-3.8707,-3.8707,-3.8707,-3.8707,-3.8707,-3.8707,-3.8707,-3.8707,-3.935,0.0,0.0,0.0,0.0,-4.4361,-4.4553,-4.4447,0.0,0.0,0.0,0.0,0.0,0.0,0.0,0.0,0.0,0.0,0.0,0.0,-3.7905,-3.7905,-3.8159,-3.865,-3.8,-3.6918,-3.5545,-3.4847,-3.4178,-3.3499,-3.3499,-3.3799,0.0,0.0,0.0,-3.3454,-3.2542,-3.16,-3.0764,-3.0012,-2.9716,-2.9792,-2.9792,-2.9792,-2.9792,0.0,0.0,0.0,0.0,0.0,0.0,0.0,0.0,0.0,0.0,0.0,0.0,0.0,0.0,0.0,0.0,0.0,0.0,0.0,0.0,0.0,0.0,0.0,0.0,0.0,0.0,0.0,0.0,0.0,0.0,-3.5284,-3.5284,-3.5222,0.0,0.0,0.0,0.0,-3.3762,-3.3614,-3.4103,-3.3514,0.0,0.0,0.0,0.0,0.0,0.0,0.0,0.0,-3.3379,-3.4034,-3.4765,-3.4641,0.0,0.0,0.0,0.0,0.0,-3.6101,-3.6688,-3.7312,-3.7312,-3.801,-3.8707,-3.8707,-3.8707,-3.8707,-3.8707,-3.8707,-3.8707,-3.8707,-3.935,-4.0246,0.0,0.0,-4.4269,0.0,0.0,0.0,0.0,0.0,0.0,0.0,0.0,0.0,0.0,0.0,0.0,0.0,0.0,0.0,-3.7905,-3.7905,-3.7652,-3.7127,-3.643,-3.5657,-3.4847,-3.4074,-3.3607,-3.3499,-3.3499,-3.3544,0.0,0.0,-3.2068,-3.1209,-3.0333,-2.966,-2.9264,-2.9126,-2.9365,-2.9792,-2.9792,-2.9792,-2.9792,0.0,0.0,0.0,0.0,0.0,0.0,0.0,0.0,0.0,0.0,0.0,0.0,0.0,0.0,0.0,0.0,0.0,0.0,0.0,0.0,0.0,0.0,0.0,0.0,0.0,0.0,0.0,0.0,0.0,-3.5622,-3.5622,-3.5622,-3.5622,-3.5577,0.0,0.0,-3.5577,-3.4958,-3.4864,-3.5098,0.0,0.0,0.0,0.0,0.0,0.0,0.0,0.0,0.0,0.0,-3.5261,-3.6004,-3.5526,0.0,0.0,0.0,0.0,0.0,-3.6945,-3.7533,-3.8138,-3.8138,-3.8432,-3.8707,-3.8707,-3.8707,-3.8707,-3.8707,-3.8707,-3.8707,0.0,0.0,-4.0349,-4.1767,0.0,0.0,0.0,0.0,0.0,0.0,0.0,0.0,0.0,0.0,0.0,0.0,0.0,0.0,0.0,0.0,0.0,0.0,-3.6671,-3.6346,-3.5632,-3.4915,-3.4399,-3.4092,-3.2977,-3.2437,-3.2437,-3.2437,-3.2632,-3.29,0.0,-3.1346,-3.073,-2.9856,-2.9067,-2.8486,-2.8486,-2.8649,-2.8913,-2.9214,-2.9327,-2.9365,0.0,0.0,0.0,0.0,0.0,0.0,0.0,0.0,0.0,0.0,0.0,0.0,0.0,0.0,0.0,0.0,0.0,0.0,0.0,0.0,0.0,0.0,0.0,0.0,0.0,0.0,0.0,-3.5622,-3.5622,-3.5622,-3.5622,-3.5622,-3.5622,0.0,0.0,0.0,-3.5622,-3.5622,-3.5622,-3.5622,0.0,0.0,0.0,0.0,0.0,0.0,0.0,0.0,0.0,0.0,0.0,0.0,0.0,0.0,0.0,-3.7037,-3.7294,-3.7771,-3.7771,-3.823,-3.8707,-3.8707,-3.8707,-3.8707,-3.8707,-3.8707,-3.8707,-3.8707,-3.8707,0.0,0.0,-3.935,0.0,-4.1791,0.0,0.0,0.0,0.0,0.0,0.0,0.0,0.0,0.0,0.0,0.0,0.0,0.0,0.0,0.0,0.0,0.0,0.0,-3.5622,-3.5253,-3.4624,-3.3937,-3.3547,-3.3339,-3.2104,-3.1482,-3.1482,-3.1482,-3.1809,-3.2228,-3.1159,-3.0588,-3.0317,-2.9249,-2.8473,-2.7908,-2.7908,-2.7996,-2.816,-2.8586,-2.8575,-2.8399,0.0,0.0,0.0,0.0,0.0,0.0,0.0,0.0,0.0,0.0,0.0,0.0,0.0,0.0,0.0,0.0,0.0,0.0,0.0,0.0,0.0,0.0,0.0,0.0,0.0,-3.4592,-3.4941,-3.5622,-3.5622,-3.5622,-3.5622,-3.5622,-3.5622,-3.5622,0.0,0.0,-3.5622,-3.5622,-3.5622,-3.5622,-3.5622,0.0,0.0,0.0,0.0,0.0,0.0,0.0,0.0,0.0,0.0,0.0,0.0,0.0,-3.8597,-3.8542,-3.8579,-3.8615,-3.8615,-3.867,-3.8707,-3.8707,-3.8707,-3.8707,-3.8707,-3.8707,-3.8707,-3.8707,-3.8707,0.0,0.0,-3.935,-4.0175,-4.1056,0.0,0.0,0.0,0.0,0.0,0.0,0.0,0.0,0.0,0.0,0.0,0.0,0.0,0.0,0.0,0.0,0.0,0.0,0.0,-3.5253,-3.4624,-3.3937,-3.3287,-3.2641,-3.191,-3.1482,-3.1482,-3.1482,-3.1497,-3.1483,-2.9884,-2.9149,-2.8999,-2.7346,-2.6949,-2.7344,-2.7344,-2.7657,-2.8109,-2.8147,-2.7607,-2.6737,0.0,0.0,0.0,0.0,0.0,0.0,0.0,0.0,0.0,0.0,0.0,0.0,0.0,0.0,0.0,0.0,0.0,0.0,0.0,0.0,0.0,0.0,0.0,-3.5943,-3.6662,-3.6209,-3.6303,-3.7043,-3.7043,-3.7177,-3.7514,-3.7194,0.0,0.0,0.0,0.0,-3.7043,-3.7043,-3.7043,-3.7043,-3.7043,-3.7043,0.0,0.0,0.0,0.0,0.0,0.0,0.0,0.0,-3.6097,-3.6684,0.0,-3.7396,-3.8216,-3.8216,-3.8433,-3.8707,-3.8707,-3.8707,-3.8707,-3.8707,-3.8707,-3.8707,-3.8707,-3.8707,-3.8707,-3.8707,-3.8707,0.0,0.0,0.0,-3.9992,0.0,0.0,0.0,0.0,0.0,0.0,0.0,0.0,0.0,0.0,0.0,0.0,0.0,0.0,0.0,0.0,0.0,0.0,0.0,0.0,-3.4213,-3.3964,-3.2494,-3.1596,-3.1368,-3.1445,-3.1482,-3.1482,-3.1482,-3.1219,-3.0703,-2.9504,-2.8684,-2.8117,-2.6973,-2.6647,-2.6766,-2.6766,-2.6904,-2.713,-2.7469,-2.7354,-2.7016,0.0,0.0,0.0,0.0,0.0,0.0,0.0,0.0,0.0,0.0,0.0,0.0,0.0,0.0,0.0,0.0,0.0,0.0,0.0,0.0,0.0,0.0,0.0,-3.7035,-3.8244,-3.7736,-3.7618,-3.7905,-3.8061,-3.8242,-3.8418,0.0,0.0,0.0,0.0,0.0,0.0,-3.7905,-3.7905,-3.7905,-3.7905,-3.7905,0.0,0.0,0.0,0.0,0.0,0.0,0.0,0.0,-3.619,0.0,0.0,0.0,0.0,-3.7685,-3.7929,-3.8252,-3.8401,-3.8465,-3.8496,-3.8658,-3.8707,-3.8707,-3.8707,-3.8707,-3.8707,-3.8707,-3.8707,-3.8707,-3.8707,0.0,0.0,0.0,0.0,0.0,0.0,0.0,0.0,0.0,0.0,0.0,0.0,0.0,0.0,0.0,0.0,0.0,0.0,0.0,0.0,0.0,0.0,-3.3359,-3.2927,-3.1564,-3.0663,-3.0299,-3.0684,-3.1016,-3.1153,-3.113,-3.0837,-3.0269,-2.9066,-2.8247,-2.767,-2.685,-2.6533,-2.6533,-2.6533,-2.6533,-2.6502,-2.6879,-2.6876,-2.6476,0.0,0.0,0.0,0.0,0.0,0.0,0.0,0.0,0.0,0.0,0.0,0.0,0.0,0.0,0.0,0.0,0.0,0.0,0.0,0.0,0.0,0.0,0.0,-3.6763,-3.8988,-3.9005,-3.865,-3.7922,-3.8453,-3.8453,-3.797,-3.8498,0.0,0.0,0.0,0.0,0.0,0.0,-3.7922,-3.7922,-3.7922,-3.7922,-3.7922,0.0,0.0,0.0,0.0,0.0,0.0,0.0,-3.6635,-3.6392,0.0,0.0,0.0,-3.7173,-3.719,-3.7285,-3.7755,-3.7893,-3.8013,-3.8546,-3.8676,-3.8676,-3.8676,-3.8707,-3.8707,-3.8707,-3.8707,-3.8707,-3.8707,-3.8707,0.0,0.0,0.0,0.0,0.0,0.0,0.0,0.0,0.0,0.0,0.0,0.0,0.0,0.0,0.0,0.0,0.0,0.0,0.0,0.0,0.0,0.0,-3.1502,-3.1454,-3.0848,-2.9564,-2.9564,-2.9894,-3.0522,-3.0338,-3.0315,-3.0194,-2.8427,-2.767,-2.7604,-2.685,-2.6533,-2.6533,-2.6533,-2.6533,-2.6533,-2.6533,-2.5873,-2.4862,0.0,0.0,0.0,0.0,0.0,0.0,0.0,0.0,0.0,0.0,0.0,0.0,0.0,0.0,0.0,0.0,0.0,0.0,0.0,0.0,0.0,0.0,0.0,0.0,0.0,0.0,-3.9648,-3.9428,-3.9591,-4.0018,0.0,0.0,0.0,-4.0622,0.0,0.0,0.0,0.0,-3.9428,-3.9428,-3.9428,-3.9428,-3.9377,0.0,0.0,0.0,0.0,0.0,0.0,0.0,0.0,0.0,0.0,0.0,0.0,-3.6661,-3.6921,-3.721,-3.736,-3.7396,-3.7433,-3.7596,-3.7632,-3.7632,-3.7632,-3.8201,-3.8707,0.0,-3.8707,-3.8707,-3.8707,0.0,0.0,0.0,0.0,0.0,0.0,0.0,0.0,0.0,0.0,0.0,0.0,0.0,0.0,0.0,0.0,0.0,0.0,0.0,0.0,0.0,0.0,0.0,-3.0781,-2.9848,-2.9018,-2.8225,-2.8652,-2.9235,-2.9879,-3.0268,-2.9827,-2.8703,-2.862,-2.792,-2.685,-2.6589,-2.6533,-2.6533,-2.6533,-2.6533,-2.6533,-2.6533,-2.6314,-2.5804,0.0,0.0,0.0,0.0,0.0,0.0,0.0,0.0,0.0,0.0,0.0,0.0,0.0,0.0,0.0,0.0,0.0,0.0,0.0,0.0,0.0,0.0,0.0,0.0,0.0,-4.007,-4.007,0.0,0.0,0.0,0.0,0.0,0.0,-4.1105,0.0,-4.007,0.0,0.0,-4.007,-4.007,-4.007,-4.007,-4.002,0.0,0.0,0.0,0.0,0.0,0.0,0.0,0.0,0.0,-3.7229,0.0,-3.6928,-3.6663,-3.68,-3.7004,-3.6913,-3.6882,-3.6921,-3.7152,-3.719,-3.719,-3.719,0.0,0.0,0.0,-3.8083,-3.8168,-3.835,0.0,0.0,0.0,0.0,0.0,0.0,0.0,0.0,0.0,0.0,0.0,0.0,0.0,0.0,0.0,0.0,0.0,0.0,0.0,0.0,0.0,0.0,0.0,-3.0437,-2.9386,-2.8543,-2.7959,-2.8132,-2.8397,-2.8801,-2.937,-2.9015,-2.8009,-2.7978,-2.7417,-2.6533,-2.6533,-2.6533,-2.6533,-2.6533,-2.6533,-2.6533,-2.6533,-2.6533,-2.6233,0.0,0.0,0.0,0.0,0.0,0.0,0.0,0.0,0.0,0.0,0.0,0.0,0.0,0.0,0.0,0.0,0.0,0.0,0.0,0.0,0.0,0.0,0.0,0.0,0.0,0.0,0.0,0.0,0.0,0.0,0.0,0.0,-4.0577,-4.0154,0.0,-4.007,0.0,0.0,-4.007,-4.007,-4.007,-4.007,-4.007,-4.007,0.0,0.0,0.0,0.0,0.0,0.0,0.0,0.0,-3.8007,-3.7956,-3.777,-3.7094,-3.6874,-3.6842,-3.6509,-3.6454,-3.6544,-3.696,-3.7129,-3.7182,-3.7182,-3.7182,-3.7147,-3.719,0.0,-3.7323,-3.7755,0.0,0.0,0.0,0.0,0.0,0.0,0.0,0.0,0.0,0.0,0.0,0.0,0.0,0.0,0.0,0.0,0.0,0.0,0.0,0.0,0.0,0.0,0.0,-3.0208,-2.9673,-2.9088,0.0,-2.786,-2.7625,-2.7604,-2.8024,-2.8135,-2.7824,-2.6852,-2.6483,-2.6533,-2.6533,-2.6533,-2.6533,-2.6533,-2.6533,-2.6533,-2.6533,-2.6533,-2.6233,0.0,0.0,0.0,0.0,0.0,0.0,0.0,0.0,0.0,0.0,0.0,0.0,0.0,0.0,0.0,0.0,0.0,0.0,0.0,0.0,0.0,0.0,0.0,0.0,0.0,0.0,0.0,0.0,0.0,0.0,0.0,0.0,0.0,-4.0703,0.0,-4.007,0.0,-4.007,-4.007,-4.007,-4.007,-4.007,-4.007,-4.007,-4.007,0.0,0.0,0.0,0.0,0.0,0.0,0.0,-3.8751,-3.8362,-3.7872,-3.7719,-3.7669,-3.7547,-3.6905,-3.6701,-3.6593,-3.6078,-3.6446,-3.6891,-3.6891,-3.6891,-3.6965,-3.7161,-3.719,-3.721,0.0,0.0,0.0,0.0,0.0,0.0,0.0,0.0,0.0,0.0,0.0,0.0,0.0,0.0,0.0,0.0,0.0,0.0,0.0,0.0,0.0,0.0,0.0,-3.0699,-2.9585,-2.9451,-2.8857,0.0,-2.766,-2.7625,-2.759,-2.7627,-2.7493,-2.707,-2.6176,-2.6038,-2.6533,-2.6533,-2.6533,-2.6533,-2.6533,-2.6533,-2.6533,-2.6533,-2.6533,-2.6314,0.0,0.0,0.0,0.0,0.0,0.0,0.0,0.0,0.0,0.0,0.0,0.0,0.0,0.0,0.0,0.0,0.0,0.0,0.0,0.0,0.0,0.0,0.0,0.0,0.0,0.0,0.0,0.0,0.0,0.0,0.0,0.0,0.0,-4.048,0.0,-4.007,0.0,-4.007,-4.007,-4.007,-4.007,-4.007,-4.007,-4.007,-4.007,-4.007,-4.007,0.0,0.0,0.0,0.0,0.0,0.0,0.0,-3.887,-3.8531,-3.843,-3.8261,-3.7516,-3.733,-3.7229,-3.6823,0.0,-3.7229,-3.6857,-3.6772,-3.6718,-3.6488,-3.644,0.0,0.0,0.0,0.0,0.0,0.0,0.0,0.0,0.0,0.0,0.0,0.0,0.0,0.0,0.0,0.0,0.0,0.0,0.0,0.0,-3.119,-3.119,0.0,-3.119,-3.0757,-2.9848,-2.954,-2.895,-2.8042,-2.771,-2.7408,-2.7063,-2.6926,-2.6583,-2.6025,-2.5753,-2.5774,-2.6063,-2.6352,-2.6533,-2.6533,-2.6533,-2.6533,-2.6533,-2.6533,-2.6164,-2.5664,0.0,0.0,0.0,0.0,0.0,0.0,0.0,0.0,0.0,0.0,0.0,0.0,0.0,0.0,0.0,0.0,0.0,0.0,0.0,0.0,0.0,0.0,0.0,0.0,0.0,0.0,0.0,0.0,0.0,0.0,0.0,0.0,0.0,-4.007,0.0,0.0,0.0,-4.007,-4.007,-4.007,-4.007,-4.007,-4.007,-3.9952,-3.9901,-3.9901,-3.9731,-3.9679,-3.961,-3.8924,0.0,0.0,0.0,0.0,-3.9732,-3.9026,-3.8958,-3.9022,-3.8115,-3.7894,-3.7939,-3.8075,-3.8091,0.0,-3.7144,-3.6975,-3.6721,-3.5808,-3.5622,0.0,0.0,0.0,0.0,0.0,0.0,0.0,0.0,0.0,0.0,0.0,0.0,0.0,0.0,0.0,0.0,0.0,0.0,0.0,-3.119,-3.119,-3.119,-3.119,-3.119,-3.0878,-3.0166,-2.9629,-2.9042,-2.8334,-2.786,-2.7188,-2.6472,-2.6204,-2.5679,-2.5143,-2.5409,-2.5555,-2.5636,-2.6113,-2.6445,-2.6533,-2.6533,-2.6533,-2.6465,-2.6314,-2.5734,-2.4862,0.0,0.0,0.0,0.0,0.0,0.0,0.0,0.0,0.0,0.0,0.0,0.0,0.0,0.0,0.0,0.0,0.0,0.0,-3.6554,0.0,0.0,-4.007,0.0,0.0,0.0,0.0,0.0,0.0,0.0,0.0,0.0,0.0,0.0,-4.007,0.0,0.0,0.0,-4.007,-4.007,-4.007,-4.007,-4.007,-4.002,-3.9315,-3.9086,-3.8978,-3.8318,-3.8108,-3.8092,-3.7978,-3.8035,0.0,0.0,0.0,-3.8908,-3.8205,-3.8917,-3.9649,-3.8181,-3.7836,-3.8058,-3.8684,-3.8853,-3.865,0.0,0.0,-3.7347,0.0,0.0,0.0,0.0,0.0,0.0,0.0,0.0,0.0,0.0,0.0,0.0,0.0,0.0,0.0,0.0,0.0,0.0,0.0,0.0,0.0,-3.119,-3.119,-3.119,-3.119,-3.119,-3.0658,-2.954,-2.9451,-2.881,-2.771,-2.7625,-2.7188,-2.6457,-2.5812,-2.5358,-2.5103,-2.514,-2.5331,-2.5598,-2.5686,-2.6013,-2.6533,-2.6533,-2.6533,-2.6383,-2.5511,-2.5087,-2.4862,0.0,0.0,0.0,0.0,0.0,0.0,0.0,0.0,0.0,0.0,0.0,0.0,0.0,0.0,0.0,-3.4691,-3.5213,-3.6022,-3.7219,-3.8707,-3.9731,-4.007,-4.007,0.0,0.0,0.0,0.0,0.0,0.0,0.0,0.0,-4.007,-4.007,0.0,0.0,0.0,0.0,0.0,-3.9662,-4.002,-3.9172,-3.9049,-3.9315,-3.8596,-3.8302,-3.8246,-3.7921,-3.7822,-3.7748,-3.7263,-3.7456,-3.769,-3.7279,0.0,0.0,0.0,-3.8262,-3.875,-3.8475,-3.8444,-3.8638,0.0,-3.9292,-3.8802,-3.8075,-3.7584,-3.6958,0.0,0.0,0.0,0.0,0.0,0.0,0.0,0.0,0.0,0.0,0.0,0.0,0.0,0.0,0.0,0.0,0.0,0.0,0.0,0.0,-3.119,-3.119,-3.119,-3.119,-3.119,-3.119,-3.0617,-2.9406,-2.9406,-2.881,-2.7625,-2.7625,-2.7408,-2.7086,-2.6336,-2.555,-2.4629,-2.4551,-2.4556,-2.4745,-2.5347,-2.5749,-2.6013,-2.6395,-2.6533,-2.6383,-2.537,-2.4636,-2.4047,0.0,0.0,0.0,0.0,0.0,0.0,0.0,0.0,0.0,0.0,0.0,0.0,0.0,0.0,0.0,0.0,-3.5504,-3.6133,-3.7706,-3.9226,-4.007,-4.007,-4.007,-4.007,0.0,0.0,0.0,0.0,0.0,0.0,-4.007,-4.007,-4.007,0.0,-4.007,-4.002,0.0,-3.9139,-3.9156,-3.9401,-3.8262,-3.8149,-3.8525,-3.779,-3.7515,-3.7456,-3.7294,-3.7251,-3.7115,-3.6508,-3.6692,-3.7115,-3.6508,-3.6859,0.0,0.0,0.0,-3.7674,-3.8414,-3.8635,-3.8816,-3.961,-3.9244,-3.8571,0.0,0.0,-3.6552,0.0,0.0,0.0,0.0,0.0,0.0,0.0,0.0,0.0,0.0,0.0,0.0,0.0,0.0,0.0,0.0,0.0,0.0,0.0,0.0,-3.119,-3.119,-3.119,-3.119,-3.119,-3.119,-3.0617,-2.9406,-2.9088,-2.8496,-2.7625,-2.7625,-2.7625,-2.7575,-2.6654,-2.5618,-2.4536,-2.4232,-2.4039,-2.4054,-2.4858,-2.5347,-2.5636,-2.6076,-2.6327,-2.6383,-2.5075,-2.4108,-2.3294,0.0,0.0,0.0,0.0,0.0,0.0,0.0,0.0,0.0,0.0,0.0,0.0,-3.2393,-3.2593,-3.3394,-3.5359,-3.5504,-3.6133,-3.7706,-3.9226,-4.007,-4.007,-4.007,0.0,-4.007,0.0,0.0,0.0,0.0,0.0,-4.007,-4.007,-4.007,-4.007,-4.007,-3.9662,-3.8962,-3.8908,-3.8525,-3.7921,-3.7806,-3.7806,-3.7748,-3.6964,-3.6661,-3.6554,-3.5894,-3.5619,-3.5619,-3.5554,-3.5554,-3.5619,-3.5554,-3.6054,-3.6508,0.0,0.0,0.0,-3.7632,-3.7863,0.0,-3.8799,-3.8434,-3.7897,0.0,0.0,0.0,0.0,0.0,0.0,0.0,0.0,0.0,0.0,0.0,0.0,0.0,0.0,0.0,0.0,0.0,0.0,0.0,0.0,0.0,0.0,0.0,-3.119,-3.119,-3.119,-3.119,-3.119,-3.119,-3.0617,-2.9406,-2.8271,-2.766,-2.7625,-2.7625,-2.7625,-2.756,-2.6108,-2.5398,-2.5287,-2.4593,-2.4201,-2.4004,-2.4054,-2.4682,-2.5598,-2.5624,-2.5975,-2.6233,-2.4325,-2.3514,-2.322,0.0,0.0,0.0,0.0,0.0,0.0,0.0,0.0,0.0,0.0,0.0,0.0,0.0,-3.2593,-3.3394,-3.5359,-3.5943,-3.6631,-3.7764,-3.8761,-3.9542,-4.007,-4.007,-4.007,-4.007,0.0,0.0,0.0,0.0,-4.007,-4.007,-3.9558,-3.9315,-3.9315,-3.9315,-3.9139,-3.8854,-3.7815,0.0,0.0,0.0,0.0,-3.698,-3.618,0.0,0.0,0.0,0.0,-3.5504,-3.5504,-3.5504,-3.5504,-3.5504,-3.5668,-3.5831,-3.5554,-3.5668,-3.607,-3.6798,0.0,0.0,-3.8019,-3.7316,-3.6555,-3.7002,-3.6222,0.0,0.0,0.0,0.0,0.0,0.0,0.0,0.0,0.0,0.0,0.0,0.0,0.0,0.0,0.0,0.0,0.0,0.0,0.0,0.0,0.0,0.0,-3.119,-3.119,-3.119,-3.119,-3.0821,-3.0021,-2.8826,-2.7993,-2.7625,-2.7625,-2.7625,-2.7357,-2.6878,-2.5837,-2.5119,-2.4624,-2.3884,-2.3479,-2.3477,-2.3841,-2.423,-2.4632,-2.5322,-2.5724,-2.5735,-2.4126,-2.3514,-2.322,0.0,0.0,0.0,0.0,0.0,0.0,0.0,0.0,0.0,0.0,0.0,0.0,0.0,0.0,-3.3394,-3.5359,-3.6165,-3.6859,-3.7381,-3.8342,-3.9139,-3.9662,-3.9952,-4.007,-4.007,0.0,0.0,0.0,0.0,0.0,0.0,-3.8924,-3.8525,-3.8525,-3.823,-3.8101,0.0,0.0,0.0,-3.6951,0.0,0.0,-3.6165,0.0,0.0,0.0,0.0,0.0,0.0,-3.5504,-3.5504,-3.5504,-3.5504,-3.5504,-3.5504,-3.5504,-3.5504,-3.5619,-3.6117,-3.6228,-3.6338,0.0,-3.6163,-3.5411,-3.5922,0.0,0.0,0.0,0.0,0.0,0.0,0.0,0.0,0.0,0.0,0.0,0.0,0.0,0.0,0.0,0.0,0.0,0.0,0.0,0.0,0.0,0.0,0.0,-3.0918,-3.0878,-3.0797,-3.0601,-3.0038,-2.9316,-2.8511,-2.791,-2.7625,-2.7625,-2.7625,-2.7357,-2.6826,-2.5837,-2.5119,-2.4624,-2.3531,-2.3078,-2.3103,-2.3552,-2.3828,-2.4067,-2.4782,-2.5272,-2.5423,-2.3789,-2.338,-2.322,0.0,0.0,0.0,0.0,0.0,0.0,0.0,0.0,0.0,-2.9792,0.0,0.0,0.0,0.0,0.0,-3.5359,-3.6165,-3.6554,-3.6615,-3.7987,-3.8854,-3.8854,-3.961,-4.002,-4.002,0.0,0.0,0.0,0.0,0.0,0.0,0.0,-3.7748,-3.7748,-3.6919,-3.6554,-3.6554,0.0,-3.6165,-3.5504,0.0,-3.5504,-3.5504,0.0,0.0,0.0,-3.5504,-3.5504,0.0,-3.5504,0.0,0.0,0.0,-3.5504,-3.5504,-3.5504,-3.5504,-3.5504,0.0,0.0,0.0,0.0,0.0,0.0,-3.4638,0.0,0.0,0.0,0.0,0.0,0.0,0.0,0.0,0.0,0.0,0.0,0.0,0.0,0.0,0.0,0.0,0.0,0.0,0.0,0.0,0.0,0.0,-3.0878,-3.0293,-3.0234,-2.9962,-2.9374,-2.8779,-2.8449,-2.8401,-2.7834,-2.7565,-2.7595,-2.7545,-2.7545,-2.7509,-2.6054,-2.5342,-2.5231,-2.3754,-2.3078,-2.3078,-2.3078,-2.3464,-2.3979,-2.3991,-2.4644,-2.5361,-2.3409,-2.3017,-2.322,0.0,0.0,0.0,0.0,0.0,0.0,0.0,0.0,0.0,0.0,0.0,0.0,-3.2393,-3.3837,-3.492,-3.5439,-3.5668,-3.6054,-3.6554,-3.7008,-3.7483,-3.8092,-3.8318,-3.8446,-3.8446,0.0,0.0,0.0,0.0,0.0,0.0,0.0,0.0,0.0,-3.6117,-3.5782,-3.5782,-3.5782,0.0,-3.5504,-3.5504,-3.5504,0.0,0.0,0.0,0.0,0.0,-3.5504,-3.5504,0.0,-3.5504,-3.5504,0.0,-3.5504,-3.5504,-3.5504,-3.5504,-3.5504,-3.5504,0.0,0.0,0.0,0.0,0.0,0.0,0.0,0.0,0.0,0.0,0.0,0.0,0.0,0.0,0.0,0.0,0.0,0.0,0.0,0.0,0.0,0.0,0.0,0.0,0.0,0.0,0.0,-2.9805,-2.9821,-2.9673,-2.9173,-2.8666,-2.8042,-2.7392,-2.6842,-2.6423,-2.6249,-2.6393,-2.6856,-2.6314,-2.6035,-2.6,-2.5007,-2.4279,-2.3695,-2.3305,-2.3078,-2.3078,-2.3078,-2.3226,-2.3414,-2.3841,-2.4418,-2.4809,-2.3283,-2.3017,-2.322,0.0,0.0,0.0,0.0,0.0,0.0,0.0,0.0,0.0,0.0,0.0,0.0,-3.2393,-3.3973,-3.5052,-3.5439,-3.5504,-3.5668,-3.6102,-3.6446,-3.6783,-3.7263,-3.7632,-3.7822,-3.7822,0.0,0.0,0.0,0.0,0.0,0.0,0.0,0.0,0.0,0.0,0.0,0.0,0.0,0.0,0.0,-3.5504,0.0,0.0,-3.5504,-3.5504,0.0,0.0,0.0,-3.5504,-3.5504,-3.5504,0.0,0.0,0.0,0.0,0.0,0.0,-3.5504,-3.5504,-3.5504,-3.5265,0.0,0.0,0.0,-3.2768,-3.2379,0.0,0.0,0.0,0.0,0.0,0.0,0.0,0.0,0.0,0.0,0.0,0.0,0.0,0.0,0.0,0.0,0.0,0.0,0.0,-2.8996,-2.9271,-2.9271,-2.9042,-2.8408,-2.776,-2.7148,-2.6459,-2.594,-2.5615,-2.5615,-2.5652,-2.5815,-2.5392,-2.51,-2.5011,-2.4236,-2.3825,-2.3603,-2.3258,-2.3078,-2.3078,-2.3078,-2.3078,-2.3103,-2.3502,-2.3716,-2.3786,-2.2719,-2.2512,-2.2442,0.0,0.0,0.0,0.0,0.0,0.0,0.0,0.0,0.0,0.0,0.0,-3.0737,-3.2489,-3.3619,-3.4612,-3.5633,-3.5714,-3.5684,-3.5624,-3.6224,-3.6585,-3.6508,-3.716,-3.7531,-3.7531,-3.7531,0.0,0.0,0.0,0.0,0.0,0.0,0.0,0.0,0.0,0.0,0.0,0.0,0.0,-3.5359,-3.5439,-3.5504,0.0,0.0,-3.5424,-3.5359,-3.5439,-3.5439,-3.5359,-3.5439,-3.5504,0.0,0.0,0.0,0.0,0.0,-3.5504,-3.5504,-3.5504,-3.5504,-3.519,0.0,0.0,0.0,-3.1765,-3.1351,-3.1219,0.0,0.0,0.0,0.0,0.0,0.0,0.0,0.0,0.0,0.0,0.0,0.0,0.0,0.0,0.0,0.0,-2.8732,-2.8415,-2.8415,-2.8919,-2.8966,-2.8415,-2.7751,-2.7117,-2.6531,-2.5839,-2.5465,-2.539,-2.5297,-2.5077,-2.4577,-2.4416,-2.4332,-2.4255,-2.3564,-2.3572,-2.4026,-2.3399,-2.3078,-2.3078,-2.3005,-2.2944,-2.2944,-2.2944,-2.2774,-2.2515,-2.1936,-2.1588,-2.1356,-2.7936,0.0,0.0,0.0,0.0,0.0,0.0,0.0,0.0,-2.9792,-3.0804,-3.2018,-3.3252,-3.4668,-3.5936,-3.6963,-3.7045,-3.6821,-3.6327,-3.64,-3.629,-3.5748,-3.5846,-3.5973,-3.5973,-3.5973,0.0,0.0,0.0,0.0,0.0,0.0,0.0,0.0,0.0,0.0,0.0,0.0,0.0,-3.4394,-3.5198,0.0,-3.5504,-3.5504,-3.4986,-3.4394,-3.5213,-3.4986,-3.4394,-3.5213,-3.5504,-3.5504,0.0,0.0,0.0,-3.5504,0.0,0.0,0.0,0.0,0.0,0.0,0.0,0.0,-3.1648,-3.045,-2.969,0.0,0.0,0.0,0.0,0.0,0.0,0.0,0.0,0.0,0.0,0.0,0.0,0.0,0.0,0.0,0.0,-2.7845,-2.776,-2.776,-2.7894,-2.7894,-2.776,-2.7127,-2.6477,-2.5824,-2.5166,-2.4552,-2.3999,-2.3494,-2.3467,-2.3865,-2.2729,-2.2481,-2.2964,-2.2639,-2.2591,-2.2731,-2.2997,-2.3078,-2.3078,-2.2384,-2.2125,-2.2125,-2.2125,-2.1933,-2.1585,-2.1053,-2.11,-2.1356,-2.7763,0.0,0.0,0.0,0.0,0.0,0.0,0.0,0.0,-3.0206,-3.1095,-3.2098,-3.306,-3.4386,-3.5552,-3.6526,-3.7114,-3.7285,-3.6971,-3.6941,-3.6806,-3.6462,-3.6163,-3.5998,-3.5998,-3.5669,-3.5504,0.0,0.0,0.0,0.0,0.0,0.0,0.0,0.0,0.0,0.0,0.0,-3.4758,-3.4758,-3.4758,0.0,-3.4056,-3.4056,-3.3754,-3.3394,-3.3905,-3.3754,-3.3394,-3.3905,-3.4341,0.0,0.0,-3.4341,-3.4691,0.0,-3.4056,-3.4056,0.0,0.0,0.0,-3.278,0.0,0.0,0.0,-2.9791,-2.9129,-2.9566,0.0,0.0,0.0,0.0,0.0,0.0,0.0,0.0,0.0,0.0,0.0,0.0,0.0,0.0,0.0,-2.6481,-2.6481,-2.6481,-2.6481,-2.6481,-2.6481,-2.5877,-2.5243,-2.4624,-2.3976,-2.3313,-2.2651,-2.2331,-2.2222,-2.2256,-2.1519,-2.138,-2.165,-2.1576,-2.1794,-2.2322,-2.2611,-2.2874,-2.3017,-2.2261,-2.1628,-2.1239,-2.1239,-2.0865,-2.0356,-2.0297,-2.0277,-2.0376,-2.7348,0.0,0.0,0.0,0.0,0.0,0.0,0.0,0.0,-3.0758,-3.1223,-3.1932,-3.2909,-3.385,-3.4837,-3.5849,-3.6734,0.0,-3.7013,-3.7153,-3.7248,-3.7129,-3.6858,-3.6611,-3.6492,-3.5968,-3.5624,0.0,0.0,0.0,0.0,0.0,0.0,0.0,0.0,0.0,0.0,0.0,0.0,-3.4624,0.0,-3.3241,-3.289,-3.2664,-3.2464,-3.2321,-3.2321,-3.2464,-3.2593,-3.282,-3.3241,-3.3602,-3.3031,-3.3241,0.0,0.0,0.0,0.0,0.0,0.0,0.0,0.0,0.0,-3.0445,0.0,0.0,0.0,-2.8748,0.0,0.0,0.0,0.0,0.0,0.0,0.0,0.0,0.0,0.0,0.0,0.0,0.0,0.0,0.0,-2.5398,-2.5398,-2.5398,-2.5398,-2.5398,-2.5398,-2.4914,-2.4321,-2.3616,-2.3055,-2.2421,-2.171,-2.1568,-2.1293,-2.0795,-2.0646,-2.0604,-2.0555,-2.0668,-2.1149,-2.1915,-2.2201,-2.2434,-2.2567,-2.1939,-2.1175,-2.0333,-2.0333,-1.9814,-1.9096,-1.9472,-1.9525,-1.9346,-2.6224,-2.7452,0.0,0.0,0.0,0.0,0.0,0.0,0.0,-3.1248,-3.1775,-3.2504,-3.358,-3.4298,-3.509,-3.6083,0.0,0.0,-3.5579,-3.6365,-3.6649,-3.6114,-3.6832,-3.7045,-3.6492,-3.6417,-3.6088,-3.5504,0.0,0.0,0.0,0.0,0.0,0.0,-3.289,0.0,0.0,0.0,-3.2321,0.0,-3.1536,-3.2464,0.0,-3.289,-3.2105,-3.1389,-3.1389,-3.1888,-3.2749,0.0,-3.338,-3.289,0.0,-3.331,-3.2749,-3.2593,0.0,0.0,0.0,0.0,0.0,0.0,-3.0634,0.0,0.0,0.0,-2.6973,-2.767,0.0,0.0,0.0,0.0,0.0,0.0,0.0,0.0,0.0,0.0,0.0,0.0,0.0,0.0,0.0,0.0,-2.5398,-2.5398,-2.5398,-2.5398,-2.5398,-2.5329,-2.4776,-2.3644,-2.3533,-2.2912,-2.171,-2.1161,-2.0894,-2.0795,-2.0207,-1.9939,-1.9911,-2.0439,-2.0582,-2.0519,-2.1782,-2.1753,-2.091,-2.0782,-2.0204,-1.9431,-1.9431,-1.8921,-1.8193,-1.8616,-1.8978,-1.9346,-2.5221,-2.6378,-2.7533,0.0,0.0,0.0,0.0,0.0,0.0,0.0,0.0,0.0,0.0,0.0,-3.5823,-3.6216,0.0,-3.664,0.0,0.0,-3.6332,-3.6093,-3.6131,-3.6053,-3.5811,-3.5068,-3.4568,-3.4296,-3.3564,0.0,0.0,0.0,0.0,0.0,-3.2393,0.0,-3.1815,0.0,-3.1888,0.0,0.0,0.0,0.0,-3.1341,-3.0709,-3.0419,-3.0419,-3.0633,-3.1057,0.0,-3.1696,0.0,0.0,0.0,0.0,0.0,0.0,0.0,0.0,0.0,0.0,0.0,0.0,0.0,-2.8812,0.0,-2.6589,0.0,0.0,0.0,0.0,0.0,0.0,0.0,-2.6616,0.0,0.0,0.0,0.0,0.0,0.0,0.0,0.0,0.0,0.0,0.0,0.0,-2.4047,-2.4047,-2.4047,-2.3581,-2.2428,-2.2389,-2.1812,-2.062,-2.0333,-2.0194,-2.0207,-1.9952,-1.9798,-1.9811,-1.9605,-1.9787,-2.018,-2.0346,-2.0476,-2.059,-2.0074,-1.9628,-1.9233,-1.8721,-1.8337,-1.8037,-1.8213,-1.8545,-1.8975,-2.4405,-2.5413,-2.6673,0.0,0.0,0.0,0.0,0.0,0.0,0.0,0.0,0.0,-3.411,-3.5148,0.0,0.0,-3.6253,-3.6421,0.0,0.0,-3.598,0.0,-3.5737,-3.543,-3.5278,-3.4396,-3.3762,-3.3431,-3.2773,0.0,0.0,0.0,0.0,0.0,0.0,-3.1476,-3.0833,0.0,-3.1193,-3.1683,-3.0355,-3.0216,-3.0758,-3.0075,-2.9792,-2.9792,-2.9792,-2.9792,-2.9869,-3.0075,-3.0495,0.0,-3.0355,0.0,0.0,0.0,0.0,0.0,-2.9792,0.0,0.0,0.0,0.0,0.0,0.0,0.0,0.0,0.0,0.0,0.0,0.0,0.0,0.0,0.0,0.0,-2.5578,0.0,0.0,0.0,0.0,0.0,0.0,0.0,0.0,0.0,0.0,-2.2628,-2.2689,-2.2433,-2.2884,-2.258,-2.1378,-2.1444,-2.1016,-2.0049,-1.9874,-1.9798,-1.9798,-1.9798,-1.9695,-1.9475,-1.8927,-1.901,-1.9515,-1.9231,-1.9426,-1.9879,-1.9431,-1.9177,-1.8844,-1.8269,-1.8008,-1.8008,-1.8008,-1.8271,-1.863,-2.3859,-2.471,-2.6152,0.0,0.0,0.0,0.0,0.0,0.0,0.0,0.0,0.0,0.0,0.0,0.0,0.0,0.0,-3.4778,-3.4778,0.0,-3.5495,0.0,0.0,-3.5921,-3.5278,-3.5237,-3.463,-3.3431,-3.2452,0.0,0.0,0.0,0.0,0.0,0.0,-2.9856,-2.9856,-2.9856,-2.9856,-2.9856,-2.9792,-2.9792,-2.9869,0.0,-2.9792,-2.9792,-2.9792,0.0,0.0,-3.0833,-3.0558,0.0,0.0,0.0,0.0,0.0,0.0,0.0,0.0,0.0,0.0,-2.9792,0.0,0.0,0.0,0.0,-2.7105,0.0,0.0,0.0,0.0,0.0,-2.6276,-2.5711,-2.531,0.0,0.0,0.0,0.0,0.0,0.0,0.0,0.0,0.0,0.0,-2.0655,-2.1491,-2.1553,-2.0719,-2.2237,-2.2491,-2.1057,-2.1334,-2.1217,-2.0693,-2.0075,-1.9798,-1.9798,-1.9798,-1.9423,-1.8715,-1.8715,-1.8385,-1.7913,-1.8753,-1.869,-1.8144,-1.8977,-1.8787,-1.8008,-1.8008,-1.8008,-1.8008,-1.8008,-1.8271,-1.855,-2.4209,-2.47,-2.5867,0.0,0.0,0.0,0.0,-3.3257,0.0,0.0,0.0,0.0,0.0,-3.5592,-3.5805,0.0,0.0,-3.5265,-3.5265,-3.5085,0.0,0.0,0.0,-3.4393,0.0,-3.3433,-3.2849,-3.2084,-3.1434,0.0,0.0,0.0,0.0,0.0,0.0,-2.9792,0.0,0.0,0.0,0.0,0.0,-2.9792,-2.9792,0.0,0.0,-2.9792,-2.9792,-2.9792,0.0,-3.0139,-3.0075,-2.9869,-3.0139,-3.0075,-2.9792,-2.9792,-2.9792,0.0,0.0,0.0,-2.9792,-2.9792,0.0,0.0,0.0,0.0,0.0,0.0,0.0,0.0,0.0,0.0,-2.5451,-2.5269,-2.4507,-2.341,0.0,0.0,0.0,0.0,0.0,0.0,0.0,0.0,0.0,-2.059,-2.0846,-2.091,0.0,-2.1164,-2.1047,-2.0148,-2.028,-1.9913,-1.9132,-1.8879,-1.8678,-1.8328,-1.8328,-1.8221,-1.7972,-1.7812,-1.7739,-1.7811,-1.7946,-1.7986,-1.8008,-1.8337,-1.8269,-1.8008,-1.8008,-1.8008,-1.8008,-1.8008,-1.7665,-1.7147,-2.4648,-2.5,0.0,0.0,0.0,0.0,0.0,0.0,0.0,0.0,-3.4619,0.0,-3.5712,0.0,-3.6358,0.0,-3.6031,-3.583,-3.583,-3.5316,0.0,-3.4211,-3.401,0.0,0.0,-3.2717,-3.2152,-3.1386,-3.1047,-3.052,0.0,0.0,0.0,0.0,0.0,-2.9792,-2.9792,-2.9792,-2.9792,0.0,0.0,-2.9792,0.0,0.0,-2.9792,-2.9792,0.0,-2.9792,-2.9792,-2.9792,-2.9792,-2.9792,-2.9792,-2.9792,-2.9792,-2.9792,-2.9792,-2.9792,-2.9792,-2.9792,0.0,-2.9792,-2.9515,0.0,-2.8285,0.0,0.0,0.0,0.0,0.0,0.0,0.0,-2.4862,-2.4492,-2.3599,-2.2304,0.0,-1.8954,0.0,0.0,0.0,0.0,0.0,0.0,-1.9694,-1.9694,-1.9944,-2.0009,0.0,0.0,-2.0306,-1.9604,-1.9669,-1.9404,-1.8781,-1.8603,-1.8358,-1.8035,-1.8035,-1.7921,-1.7658,-1.7514,-1.7502,-1.7643,-1.7506,-1.7627,-1.8008,-1.8008,-1.8008,-1.8008,-1.8008,-1.7794,-1.7501,-1.7501,-1.6827,-1.5755,0.0,0.0,0.0,0.0,-2.9218,0.0,0.0,0.0,-3.2735,0.0,-3.429,-3.4293,-3.6106,-3.6358,-3.6358,-3.6358,-3.6358,-3.6358,-3.6358,-3.5868,0.0,0.0,-3.4223,-3.3671,-3.3093,0.0,-3.2516,-3.1386,-3.1386,0.0,0.0,0.0,0.0,0.0,-2.9792,0.0,-2.9702,-2.9702,-2.9714,-2.9624,-2.9624,-2.9702,-2.9702,-2.9702,0.0,-2.9792,-2.9792,-2.9792,-2.9792,-2.9792,-2.9792,-2.9792,-2.9792,-2.9792,-2.9792,-2.9792,-2.9792,-2.9792,-2.9792,-2.9792,-2.9792,-2.9792,0.0,0.0,0.0,0.0,-2.7335,0.0,0.0,0.0,0.0,0.0,0.0,-2.3599,-2.2584,-2.1298,-1.9541,0.0,0.0,0.0,0.0,0.0,0.0,-1.8008,-1.8008,-1.8008,-1.8787,-1.8844,0.0,0.0,-2.0074,-1.9243,-1.9488,-1.9603,-1.9581,-1.9055,-1.8824,-1.8791,-1.8791,-1.844,-1.7739,-1.776,-1.7653,-1.7383,-1.7402,-1.7637,-1.8008,-1.8008,-1.8008,-1.8008,-1.794,-1.7354,-1.6498,-1.6498,-1.5682,-1.4569,-2.5566,-2.5664,-2.5898,0.0,-2.8655,-3.0351,0.0,0.0,0.0,0.0,-3.3523,-3.4328,-3.486,-3.5763,-3.6358,-3.6358,-3.6358,0.0,0.0,0.0,0.0,-3.4763,-3.4587,-3.406,-3.3106,-3.3081,-3.2516,-3.1386,0.0,0.0,-2.9792,0.0,0.0,0.0,0.0,0.0,-2.8518,-2.8518,-2.8108,-2.7383,-2.7383,-2.7787,0.0,0.0,-2.9028,-2.9792,-2.9792,-2.9792,-2.9792,-2.9792,-2.9792,-2.9792,-2.9792,-2.9792,-2.9792,-2.9792,-2.9792,-2.9792,-2.9792,-2.9792,-2.9792,-2.9792,-2.9184,-2.8228,0.0,0.0,0.0,0.0,0.0,0.0,0.0,0.0,0.0,-2.2403,-2.1038,-1.9816,0.0,0.0,0.0,-1.8008,0.0,0.0,-1.8008,-1.8008,-1.8008,-1.8008,-1.8202,0.0,0.0,0.0,0.0,-1.8327,-1.8409,-1.8263,-1.8005,-1.7819,-1.7597,-1.7264,-1.7264,-1.7149,-1.6971,-1.7372,-1.7461,-1.7402,-1.7715,-1.791,-1.8008,-1.8008,-1.8008,-1.794,-1.7217,-1.5939,-1.445,-1.445,-1.4521,-1.4491,-2.5742,0.0,0.0,-2.6309,0.0,0.0,-2.9786,0.0,0.0,-3.1695,-3.2274,0.0,-3.3464,-3.4154,-3.4848,-3.5463,-3.5571,0.0,-3.6358,0.0,0.0,-3.4763,-3.45,-3.3669,-3.2264,-3.2239,0.0,-3.0609,0.0,0.0,-2.9792,0.0,0.0,0.0,0.0,-2.9443,-2.8767,-2.8335,-2.7441,-2.6483,-2.6483,0.0,0.0,-2.736,-2.8108,-2.9028,-2.8542,-2.8961,-2.9792,-2.9792,-2.9792,-2.9792,-2.9792,-2.9792,-2.9792,-2.9792,-2.9792,-2.9792,-2.9792,-2.9456,-2.9028,-2.9028,-2.8199,-2.7174,-2.6151,-2.5447,-2.4559,0.0,0.0,0.0,0.0,0.0,0.0,-2.1441,-2.0357,0.0,0.0,0.0,0.0,0.0,-1.6802,0.0,-1.6802,-1.751,-1.7657,-1.6872,-1.7148,0.0,0.0,0.0,0.0,-1.794,-1.7226,-1.7045,-1.7656,-1.7235,-1.7111,-1.7295,-1.7295,-1.7295,-1.7305,-1.7549,-1.7656,-1.7666,-1.791,-1.8008,-1.8008,-1.8008,-1.7794,-1.7217,-1.586,-1.4657,-1.3688,-1.3395,-1.3618,-1.3909,0.0,0.0,0.0,0.0,0.0,0.0,0.0,-2.9434,0.0,-3.1578,0.0,-3.0721,-3.1927,-3.223,-3.2744,-3.397,0.0,-3.4642,-3.5759,-3.5313,-3.478,-3.4161,-3.3677,-3.2613,-3.0956,-3.0944,-3.0437,0.0,-2.94,-2.939,-2.9378,0.0,0.0,0.0,0.0,0.0,0.0,-2.7936,-2.6953,-2.6058,-2.6058,-2.6141,-2.6307,-2.6307,-2.6953,-2.7763,-2.6801,-2.7799,-2.9611,-2.9611,-2.9456,-2.9378,-2.9534,-2.9456,-2.9378,-2.9378,-2.9378,-2.9378,-2.9378,-2.8609,-2.7936,-2.7936,-2.707,-2.5973,-2.5049,-2.4636,-2.4017,-2.2216,-2.2478,-2.2638,0.0,0.0,0.0,0.0,0.0,0.0,0.0,0.0,0.0,0.0,0.0,0.0,-1.5021,-1.6585,-1.6941,0.0,0.0,0.0,0.0,0.0,0.0,-1.7579,-1.6158,0.0,-1.7657,0.0,-1.6862,-1.7647,-1.7794,-1.7794,-1.7794,-1.794,-1.8008,-1.8008,-1.8008,-1.8008,-1.8008,-1.8008,-1.7354,-1.621,-1.4378,-1.36,-1.3426,-1.3058,-1.2979,-1.3253,0.0,0.0,0.0,0.0,0.0,-2.7378,-2.8364,-2.8483,-2.8608,-2.8996,-2.9713,-3.0421,-3.0618,-3.1622,-3.2431,-3.2644,-3.2644,0.0,0.0,0.0,0.0,-3.1065,-3.0939,-3.0468,-2.9681,-2.9681,-2.9195,-2.8189,-2.8189,-2.7765,-2.7058,0.0,0.0,0.0,0.0,0.0,-2.5619,-2.4467,0.0,-2.3724,-2.3724,-2.4221,-2.5126,-2.5126,-2.5797,-2.6719,-2.6565,-2.729,-2.8426,-2.8426,-2.7787,-2.7221,-2.8108,-2.7787,-2.7058,-2.7058,-2.7058,-2.7058,-2.7058,-2.6964,-2.6801,-2.6801,-2.5678,-2.4424,-2.386,-2.2752,-2.165,-2.0976,-2.1011,-2.1011,-2.0644,0.0,0.0,0.0,0.0,0.0,0.0,0.0,0.0,0.0,0.0,-1.4879,0.0,0.0,0.0,0.0,0.0,0.0,0.0,0.0,0.0,0.0,0.0,0.0,0.0,0.0,0.0,-1.5728,-1.6498,-1.6853,-1.6853,-1.7647,-1.8008,-1.8008,-1.8008,-1.8008,-1.8008,-1.8008,-1.701,-1.5305,-1.4171,-1.3237,-1.2587,-1.3003,-1.3166,-1.3253,0.0,0.0,0.0,0.0,0.0,0.0,0.0,-2.7969,0.0,-2.8262,-2.89,-2.9313,-2.9313,-2.9807,-3.0419,-3.0889,-3.0969,-3.1063,-3.1364,-3.1094,-3.0735,-3.0251,-2.99,0.0,-2.8505,-2.8495,-2.7936,-2.6974,-2.6974,-2.6834,-2.6483,0.0,0.0,0.0,0.0,-2.5891,0.0,0.0,0.0,-2.3135,-2.3135,-2.3474,-2.3877,-2.3877,-2.4628,-2.5557,-2.4978,-2.5462,-2.6438,-2.7035,-2.6964,-2.6554,-2.7128,-2.6883,-2.6483,-2.6483,-2.6483,-2.6483,-2.6483,-2.6058,-2.563,-2.563,-2.4462,-2.3203,-2.2757,-2.1929,-2.1103,-2.0654,-2.0566,-2.0566,-2.0566,-2.0566,0.0,0.0,0.0,0.0,0.0,0.0,0.0,0.0,0.0,0.0,0.0,0.0,0.0,0.0,0.0,0.0,0.0,0.0,0.0,0.0,0.0,0.0,0.0,0.0,0.0,-1.5234,-1.614,-1.6636,-1.6636,-1.7569,-1.7716,-1.7285,-1.7794,-1.7442,-1.6515,-1.5948,-1.5234,-1.4314,-1.3382,-1.2829,-1.2585,-1.3046,-1.3307,-1.348,0.0,-2.5742,0.0,0.0,-2.6387,0.0,-2.7412,-2.7529,-2.7715,-2.8223,-2.8213,-2.8164,-2.8164,-2.8076,-2.8281,-2.9033,-2.9104,-2.94,-2.9991,-2.9598,-2.9347,-2.9248,-2.8877,-2.8121,-2.722,-2.7117,-2.6672,0.0,-2.5661,-2.5627,0.0,0.0,0.0,0.0,0.0,0.0,0.0,0.0,-2.3877,-2.3135,-2.3135,-2.3135,-2.3135,-2.3135,-2.3637,-2.4296,-2.3377,-2.3714,-2.4542,-2.5473,-2.5808,-2.5808,-2.6058,-2.5975,-2.5808,-2.5808,-2.5808,-2.5808,-2.5808,-2.5136,-2.4457,-2.4457,-2.3408,-2.2295,-2.1963,-2.1475,-2.0996,-2.0635,-2.0566,-2.0566,-2.0566,-2.0401,0.0,0.0,0.0,0.0,0.0,0.0,0.0,0.0,0.0,0.0,-1.2418,0.0,0.0,0.0,0.0,0.0,0.0,0.0,0.0,0.0,0.0,-1.3237,-1.4593,0.0,-1.381,0.0,-1.5508,-1.6,-1.6,-1.6941,-1.7001,-1.6349,-1.7079,-1.6585,-1.5092,-1.4099,-1.3673,-1.36,-1.2659,-1.2445,-1.2699,-1.3073,-1.3187,-1.3179,0.0,0.0,0.0,0.0,0.0,0.0,0.0,-2.708,-2.7373,-2.8184,-2.7959,-2.7725,-2.7725,-2.7373,-2.7119,-2.7275,-2.7265,-2.7088,-2.6854,-2.6784,-2.6586,-2.619,-2.6033,-2.6014,-2.5927,-2.5523,-2.508,0.0,-2.4215,-2.3772,0.0,-2.3387,0.0,0.0,0.0,0.0,0.0,-2.3222,-2.3222,-2.3135,-2.3135,-2.3135,-2.3135,-2.3135,-2.3135,-2.3222,-2.3135,-2.3135,-2.3309,-2.3387,-2.3387,-2.3637,-2.4628,-2.4211,-2.3387,-2.3387,-2.3387,-2.3387,-2.3387,-2.3299,-2.3222,-2.3222,-2.2614,-2.1934,-2.1894,-2.123,-2.0615,-2.0576,-2.0566,-2.0566,-2.0566,-1.9844,-1.9116,0.0,0.0,0.0,0.0,0.0,-1.4882,-1.3642,0.0,0.0,0.0,-1.2458,0.0,0.0,0.0,0.0,0.0,0.0,0.0,-1.2586,0.0,-1.3237,-1.2592,-1.2445,0.0,-1.2586,-1.352,-1.3954,-1.4027,-1.5021,-1.5376,-1.5376,-1.5446,-1.5376,-1.5092,-1.4099,-1.3673,-1.36,-1.2659,-1.2318,-1.2418,-1.2999,-1.2565,-1.1751,0.0,0.0,0.0,0.0,0.0,0.0,0.0,-2.6641,-2.6855,-2.7441,-2.7383,-2.7275,-2.7275,-2.7119,-2.6914,-2.666,-2.6641,-2.6455,-2.6025,-2.5996,-2.5918,-2.5742,-2.5742,-2.5742,-2.5742,-2.5293,-2.4853,0.0,0.0,-2.3564,-2.3135,-2.3135,0.0,0.0,0.0,-2.3135,-2.3135,-2.3135,-2.3135,-2.3135,-2.3135,-2.3135,-2.3135,-2.3135,-2.3135,-2.3135,-2.3135,-2.3135,-2.3135,-2.3135,-2.3135,-2.3222,-2.3637,-2.3464,-2.3135,-2.3135,-2.3135,-2.3135,-2.3135,-2.3135,-2.3076,-2.2822,-2.2324,-2.1816,-2.1553,-2.1016,-2.0566,-2.0566,-2.0089,-1.9599,-1.9599,-1.8709,-1.7738,0.0,0.0,0.0,0.0,0.0,0.0,-1.3661,0.0,-1.3146,0.0,0.0,0.0,0.0,0.0,0.0,0.0,0.0,0.0,-1.2298,0.0,-1.2666,-1.2305,-1.2305,-1.2305,-1.2305,-1.3237,-1.3673,-1.3745,-1.4736,-1.5234,-1.5163,-1.3947,-1.381,-1.4235,-1.3237,-1.2879,-1.2806,-1.2445,-1.2412,-1.2619,-1.3053,-1.2574,-1.1682,-2.2976,0.0,-2.3076,0.0,-2.4205,-2.5223,-2.5528,-2.5983,-2.6299,-2.6602,-2.6641,-2.6689,-2.6816,-2.6719,-2.6514,-2.6221,-2.6201,-2.6064,-2.5752,-2.5742,-2.5742,-2.5742,-2.5742,0.0,-2.5547,-2.5107,-2.4668,-2.4228,-2.3809,0.0,-2.3135,0.0,0.0,0.0,-2.3135,-2.3135,-2.3135,-2.3135,-2.3135,-2.3135,-2.3135,-2.3135,-2.3135,-2.3135,-2.3135,-2.3135,-2.3135,-2.3135,-2.3135,-2.3135,-2.3135,-2.3135,-2.3135,-2.3135,-2.3135,-2.3135,-2.3135,-2.3135,-2.3135,-2.3135,-2.3037,-2.2617,-2.2197,-2.1777,-2.1338,-2.0889,-2.0479,-2.0157,-1.9274,-1.8479,-1.8479,-1.7577,-1.6601,-1.5779,0.0,0.0,0.0,0.0,0.0,0.0,-1.3694,-1.348,-1.3053,-1.2933,0.0,0.0,0.0,0.0,0.0,0.0,0.0,0.0,0.0,0.0,0.0,-1.2345,-1.2305,-1.2305,-1.2952,-1.3317,-1.331,-1.4019,-1.4378,-1.4235,-1.2872,-1.2666,-1.3244,-1.2592,-1.2305,-1.2305,-1.2305,-1.2276,-1.2259,-1.2486,-1.187,-1.0709,-2.1752,-2.1752,-2.1752,-2.1752,-2.2868,-2.3692,-2.3692,-2.4824,-2.5752,-2.5752,-2.5752,-2.5918,-2.6348,-2.6006,-2.5752,-2.5742,-2.5742,-2.5742,-2.5742,-2.5742,-2.5742,0.0,0.0,-2.5527,-2.5088,-2.4648,-2.4219,-2.3799,0.0,0.0,-2.3135,0.0,-2.3135,-2.3135,-2.3135,-2.3135,-2.3135,-2.3135,-2.3135,-2.3135,-2.3135,-2.3135,-2.3135,-2.3135,-2.3135,-2.3135,-2.3135,-2.3135,-2.3135,-2.3135,-2.3135,-2.3135,-2.3135,-2.3135,-2.3135,-2.3135,-2.3135,-2.3135,-2.3135,-2.3135,-2.3037,-2.2617,-2.2197,-2.1777,-2.1338,-2.0889,-2.0323,-1.9283,-1.8149,-1.7334,-1.7334,-1.6437,-1.5696,-1.5696,0.0,0.0,0.0,0.0,0.0,-1.4082,-1.3821,-1.3641,-1.3552,0.0,0.0,0.0,0.0,0.0,0.0,0.0,0.0,-1.32,-1.2899,0.0,-1.2815,-1.2452,-1.2305,-1.2305,-1.2305,-1.2298,-1.2298,-1.2305,-1.2372,-1.2298,-1.2305,-1.2305,-1.2298,-1.2305,-1.2305,-1.2305,-1.2305,-1.17,-1.0824,-1.11,-0.9925,-0.8275,-2.0135,-2.0231,-2.0231,-2.0231,-2.1448,-2.2357,-2.2357,-2.2667,-2.3276,-2.4205,-2.4304,-2.4763,-2.583,-2.582,-2.5742,0.0,-2.5742,-2.5742,0.0,-2.5449,-2.5283,-2.5283,-2.499,-2.4766,-2.4629,-2.4209,-2.3926,-2.3789,0.0,0.0,0.0,-2.3135,-2.3135,-2.3135,-2.3135,-2.3135,-2.3135,-2.3135,-2.3135,-2.3135,-2.3135,-2.3135,-2.3135,-2.3135,-2.3135,-2.3135,-2.3135,-2.3135,-2.3135,-2.3135,-2.3135,-2.3135,-2.3135,-2.3135,-2.3135,-2.3135,-2.3135,-2.3135,-2.3135,-2.293,-2.2427,-2.1203,-2.1142,-2.0905,-1.8994,-1.8477,-1.8221,-1.7908,-1.7009,-1.6191,-1.6191,-1.5304,-1.4573,-1.4573,-1.4328,0.0,0.0,0.0,0.0,-1.4088,-1.4001,-1.3868,0.0,-1.3561,0.0,0.0,0.0,0.0,0.0,0.0,0.0,0.0,-1.3113,0.0,-1.2829,-1.2652,-1.2505,-1.2305,-1.2305,-1.2305,-1.2305,-1.2305,-1.2305,-1.2305,-1.2305,-1.2305,-1.2305,-1.2305,-1.2305,-1.2224,-1.1545,-1.1087,-1.0743,-1.0313,-0.9271,-0.8099,-1.8708,-1.8812,-1.8812,-1.8812,-2.0025,-2.0947,-2.0947,-2.1347,-2.2156,-2.3484,-2.3152,-2.326,-2.4685,-2.4244,0.0,-2.5372,-2.5488,-2.542,-2.5254,-2.498,-2.4824,-2.4824,-2.456,-2.4346,-2.418,0.0,0.0,-2.3545,-2.3271,-2.3135,-2.3135,-2.3135,-2.3135,-2.3135,-2.3135,-2.3135,-2.3135,-2.3135,-2.3135,-2.3135,-2.3135,-2.3135,-2.3135,-2.3135,-2.3135,-2.3047,-2.2589,-2.2403,-2.2315,-2.1863,-2.1774,-2.1774,-2.1774,-2.1774,-2.1854,-2.2315,-2.2403,-2.2277,-2.1766,-2.1727,-2.1475,-1.9787,-1.9732,-1.9534,-1.7742,-1.7009,-1.6683,-1.6683,-1.5869,-1.5137,-1.5137,-1.4573,-1.4088,-1.4088,-1.4088,-1.4088,-1.4088,0.0,0.0,0.0,0.0,0.0,0.0,-1.3808,0.0,0.0,0.0,0.0,0.0,0.0,0.0,-1.354,-1.3434,0.0,-1.2926,-1.2882,-1.2599,-1.2305,-1.2305,-1.2305,-1.2305,-1.2305,-1.2305,-1.2305,-1.2305,-1.2305,-1.2305,-1.2305,-1.2077,-1.1694,-1.1087,-1.0335,-0.9604,-0.914,-0.8304,-0.7449,-1.7522,-1.7522,0.0,0.0,-1.854,0.0,-1.9361,-2.0468,-2.1879,-2.3196,-2.1974,-2.1556,-2.2964,-2.1752,-2.1857,-2.4544,0.0,0.0,0.0,-2.42,-2.4181,-2.4181,-2.4254,-2.4141,-2.375,-2.374,-2.3545,-2.3135,-2.3135,-2.3135,-2.3135,-2.3135,-2.3135,-2.3135,-2.3135,-2.3135,-2.3135,-2.3135,-2.3135,-2.3135,-2.3135,-2.3047,-2.296,-2.296,-2.295,-2.2677,-2.1569,-2.1203,-2.1025,-1.9852,-1.9497,-1.9497,-1.9497,-1.9405,-1.9579,-2.0845,-2.1203,-2.0846,-1.9504,-1.9904,-2.0232,-1.8389,-1.7779,-1.7589,-1.7253,-1.6355,-1.5621,-1.5621,-1.481,-1.4088,-1.4088,-1.4088,-1.4088,-1.4088,-1.4088,-1.4088,-1.4088,0.0,0.0,0.0,0.0,0.0,0.0,-1.4088,-1.4088,0.0,0.0,0.0,0.0,0.0,-1.4088,-1.4088,-1.3814,-1.3534,-1.324,-1.2933,-1.2619,-1.2305,-1.2305,-1.2305,-1.2305,-1.2305,-1.2305,-1.2305,-1.2305,-1.2224,-1.2224,-1.2224,-1.162,-1.0714,-1.0634,-0.9437,-0.7783,-0.7706,-0.7192,-0.6458,0.0,0.0,-1.6914,-1.6914,-1.7211,-1.7406,-1.7406,-1.7701,-1.8389,-1.9665,-1.9496,-1.9826,-2.1281,-2.1004,-2.0965,-2.1251,-2.1587,-2.1813,-2.1631,-2.2222,-2.2539,-2.2539,-2.3066,-2.3398,-2.3291,-2.3291,-2.3242,-2.3135,-2.3135,-2.3135,-2.3135,-2.3135,-2.3135,-2.3135,-2.3135,-2.3135,-2.3135,-2.3135,-2.3135,-2.3135,-2.3135,-2.2589,-2.1756,-2.1756,-2.1123,-2.0305,-2.0034,-1.9943,-1.9852,-1.9579,-1.9497,-1.9497,-1.9497,-1.8864,-1.8319,-1.9579,-1.9943,-1.9777,-1.9237,-1.9016,-1.8604,-1.7132,-1.5841,-1.5238,-1.5884,-1.522,-1.4489,-1.4489,-1.425,-1.4088,-1.4088,-1.4088,-1.4088,-1.4088,-1.4088,-1.4088,-1.4088,-1.4088,0.0,0.0,-1.4088,-1.4088,-1.4088,-1.4088,-1.4088,0.0,0.0,0.0,0.0,0.0,-1.4088,-1.4088,-1.4021,-1.3841,-1.354,-1.3247,-1.2832,-1.2305,-1.2305,-1.2305,-1.2305,-1.2305,-1.2305,-1.2305,-1.2305,-1.1848,-1.1168,-1.1168,-1.0565,-0.9593,-0.8836,-0.8232,-0.7706,-0.6945,-0.6514,-0.6325,-1.6707,-1.6707,-1.6707,-1.6707,-1.6707,-1.6707,-1.6707,-1.6707,-1.7193,-1.855,-1.804,-1.814,-1.947,-1.8946,-1.8404,-1.8127,-1.9541,-2.0437,-2.0185,-2.0643,-2.0815,-2.0815,-2.1248,-2.1409,-2.1409,-2.1409,-2.1409,-2.1409,-2.1409,-2.1409,-2.1409,-2.1409,-2.1409,-2.1409,-2.1409,-2.1409,-2.1409,-2.1409,-2.1409,-2.1409,-2.1409,-2.1033,-2.0486,-2.0486,-2.0034,-1.9405,-1.8864,-1.868,-1.8588,-1.8033,-1.7848,-1.7848,-1.7848,-1.7397,-1.6915,-1.749,-1.7979,-1.8265,-1.7489,-1.7319,-1.7056,-1.5631,-1.4691,-1.425,-1.481,-1.4489,-1.4088,-1.4088,-1.4088,-1.4088,-1.4088,-1.4088,-1.4088,-1.4088,-1.4088,-1.4088,-1.4088,-1.3646,0.0,-1.3294,-1.2863,-1.2516,-1.2516,-1.2516,-1.2516,-1.2516,0.0,0.0,-1.3294,-1.3294,-1.3555,-1.4088,-1.4088,-1.3881,-1.3447,-1.3013,-1.2625,-1.2305,-1.2305,-1.2305,-1.2305,-1.2305,-1.2305,-1.2305,-1.2305,-1.1694,-1.0783,-1.0783,-0.9965,-0.8542,-0.8008,-0.7553,-0.7022,-0.649,-0.6338,-0.6271,-1.6573,-1.6573,-1.6573,-1.6573,-1.6573,-1.6573,-1.6573,-1.6573,-1.6956,-1.8116,-1.7023,-1.6677,-1.7809,-1.6633,-1.5832,-1.5832,-1.8003,-1.9346,-1.8964,-1.9131,-1.9222,-1.9222,-1.9405,-1.9497,-1.9497,-1.9497,-1.9497,-1.9497,-1.9497,-1.9497,-1.9497,-1.9497,-1.9497,-1.9497,-1.9497,-1.9497,-1.9497,-1.9497,-1.9497,-1.9497,-1.9497,-1.9405,-1.9222,-1.9222,-1.9131,-1.8856,-1.777,-1.7412,-1.7225,-1.6204,-1.5832,-1.5818,-1.5778,-1.5765,-1.5705,-1.5418,-1.6001,-1.6519,-1.5218,-1.5437,-1.5631,-1.4389,-1.4088,-1.4088,-1.4088,-1.4088,-1.4088,-1.4088,-1.4088,-1.4088,-1.4088,-1.4088,-1.4088,-1.4088,-1.3913,-1.3822,-1.3822,0.0,-1.2072,-1.2072,-1.1214,-1.0611,-1.0611,-1.0611,-1.0611,-1.0611,-1.0611,-1.1042,0.0,-1.2072,-1.2504,-1.3561,-1.3913,-1.3808,-1.322,-1.2652,-1.2345,-1.2305,-1.2305,-1.2305,-1.2305,-1.2305,-1.2224,-1.207,-1.207,-1.1391,-1.0335,-1.0335,-0.9286,-0.7553,-0.7553,-0.7022,-0.6338,-0.6338,-0.6338,-0.6338,-1.5965,-1.5965,-1.5965,-1.5965,-1.5965,-1.5965,-1.5965,-1.5965,-1.5965,-1.6245,-1.6021,-1.5994,-1.6177,-1.5947,-1.5832,-1.5832,-1.6238,-1.6427,-1.6379,-1.7404,-1.7963,-1.7963,-1.8956,-1.9497,-1.9497,-1.9497,-1.9497,-1.9497,-1.9497,-1.9497,-1.9497,-1.9497,-1.9497,-1.9497,-1.9497,-1.9497,-1.9497,-1.9497,-1.9497,-1.9497,-1.9497,-1.8864,-1.7963,-1.7963,-1.7311,-1.6379,-1.6197,-1.6109,-1.6015,-1.5825,-1.5832,-1.5785,-1.5538,-1.5464,-1.5404,-1.5117,-1.5028,-1.4899,-1.4596,-1.4541,-1.4389,-1.4179,-1.4088,-1.4088,-1.4088,-1.4088,-1.4088,-1.4088,-1.4088,-1.4088,-1.4088,-1.4088,-1.4088,-1.4088,-1.3203,-1.2589,-1.2589,0.0,-1.0864,-1.0864,-1.0697,-1.0611,-1.0611,-1.0611,-1.0611,-1.0611,-1.0611,-1.0697,-1.0869,-1.0864,-1.0956,-1.1128,-1.3039,-1.3808,-1.322,-1.2852,-1.2552,-1.2305,-1.2305,-1.2305,-1.2305,-1.2305,-1.1842,-1.1013,-1.1013,-0.9959,-0.8232,-0.8232,-0.7553,-0.6567,-0.6567,-0.6412,-0.6338,-0.6338,-0.6338,-0.6338,-1.5832,-1.5832,-1.5832,-1.5832,-1.5832,-1.5832,-1.5832,-1.5832,-1.5832,-1.5832,-1.5832,-1.5832,-1.5832,-1.5832,-1.5832,-1.5832,-1.5832,-1.5832,-1.5832,-1.6386,-1.6669,-1.6669,-1.721,-1.7483,-1.7483,-1.7483,-1.7483,-1.7483,-1.7483,-1.7483,-1.7483,-1.7483,-1.7483,-1.7483,-1.7483,-1.7483,-1.7483,-1.7483,-1.7483,-1.7468,-1.7383,-1.6963,-1.6401,-1.6331,-1.5902,-1.5364,-1.5364,-1.5364,-1.5364,-1.5364,-1.5364,-1.5337,-1.5204,-1.5164,-1.5104,-1.481,-1.4629,-1.4489,-1.4329,-1.4188,-1.4088,-1.4088,-1.4088,-1.4088,-1.4088,-1.4088,-1.3913,-1.3294,-1.3118,-1.3118,-1.3118,-1.2601,-1.2431,-1.3027,-1.2163,0.0,0.0,-1.0438,-0.9666,-0.9666,-0.9139,-0.8703,-0.8703,-0.8703,-0.8703,-0.8703,-0.8703,-0.8965,-0.9666,-0.9666,-0.9923,-1.0611,-1.1986,-1.2817,-1.2966,-1.2659,-1.2438,-1.2305,-1.2305,-1.2305,-1.2298,-1.1768,-1.1236,-1.0783,-1.0265,-0.914,-0.7783,-0.7783,-0.7176,-0.6338,-0.6338,-0.6338,-0.6338,-0.6338,-0.6338,-0.6264,-1.5832,-1.5832,-1.5832,-1.5832,-1.5832,-1.5832,-1.5832,-1.5832,-1.5832,-1.5832,-1.5832,-1.5832,-1.5832,-1.5832,-1.5832,-1.5832,-1.5832,-1.5832,-1.5832,-1.5832,-1.5832,-1.5832,-1.5832,-1.5832,-1.5832,-1.5832,-1.5832,-1.5832,-1.5832,-1.5832,-1.5832,-1.5832,-1.5832,-1.5832,-1.5832,-1.5792,-1.5732,-1.5732,-1.5691,-1.5611,-1.5384,-1.5297,-1.5271,-1.505,-1.4963,-1.4963,-1.4963,-1.4963,-1.4963,-1.4963,-1.4963,-1.495,-1.4883,-1.4863,-1.4803,-1.4509,-1.4422,-1.4369,-1.4148,-1.4088,-1.3997,-1.3737,-1.3646,-1.3646,-1.3385,-1.33,-1.3039,-1.2072,-1.1895,-1.1895,-1.1895,-1.1214,-1.0869,-1.1724,0.0,0.0,0.0,-0.9231,-0.8452,-0.8452,-0.7665,-0.7139,-0.7139,-0.7139,-0.7139,-0.7139,-0.7139,-0.7489,-0.8452,-0.8452,-0.8931,-1.0032,-1.0783,-1.152,-1.2439,-1.214,-1.207,-1.2305,-1.207,-1.1922,-1.1922,-1.0938,-1.0335,-1.0034,-0.9291,-0.8389,-0.748,-0.748,-0.7022,-0.6338,-0.6338,-0.6338,-0.6338,-0.6264,-0.6264,-0.6268,-1.5832,-1.5832,-1.5832,-1.5832,-1.5832,-1.5832,-1.5832,-1.5832,-1.5832,-1.5832,-1.5832,-1.5832,-1.5832,-1.5832,-1.5832,-1.5832,-1.5832,-1.5832,-1.5832,-1.5832,-1.5832,-1.5832,-1.5832,-1.5832,-1.5832,-1.5832,-1.5832,-1.5832,-1.5832,-1.5832,-1.5832,-1.5832,-1.5832,-1.5832,-1.5832,-1.5678,-1.5431,-1.5431,-1.5277,-1.5023,-1.5003,-1.4997,-1.499,-1.497,-1.4963,-1.4963,-1.4963,-1.4963,-1.4963,-1.4963,-1.4963,-1.4917,-1.4636,-1.4556,-1.4496,-1.4202,-1.4122,-1.4115,-1.4095,-1.4088,-1.3822,-1.2681,-1.2413,-1.2157,-1.1128,-1.0869,-1.0869,-1.0783,-1.0697,-1.0697,-1.0697,-1.0697,-1.0611,-1.0697,0.0,0.0,-0.9061,-0.8017,-0.7228,-0.7228,-0.7139,-0.7139,-0.7139,-0.7139,-0.7139,-0.7139,-0.7139,-0.7139,-0.7228,-0.7228,-0.7613,-0.8383,-0.9476,-1.0476,-1.1272,-1.1075,-1.1391,-1.2298,-1.1391,-1.0938,-1.0864,-0.9895,-0.8917,-0.8008,-0.7936,-0.7326,-0.6412,-0.6412,-0.6338,-0.6338,-0.6338,-0.6338,-0.6264,-0.6274,-0.6278,-0.6278,-1.5832,-1.5832,-1.5832,-1.5832,-1.5832,-1.5832,-1.5832,-1.5832,-1.5832,-1.5832,-1.5832,-1.5832,-1.5832,-1.5832,-1.5832,-1.5832,-1.5832,-1.5832,-1.5832,-1.5832,-1.5832,-1.5832,-1.5832,-1.5832,-1.5832,-1.5832,-1.5832,-1.5832,-1.5832,-1.5832,-1.5832,-1.5832,-1.5732,-1.5565,-1.5565,-1.5398,-1.513,-1.513,-1.5064,-1.495,-1.4763,-1.4689,-1.4669,-1.4489,-1.4422,-1.4422,-1.4422,-1.4422,-1.4422,-1.4422,-1.4422,-1.4402,-1.4289,-1.4255,-1.4051,-1.3234,-1.251,-1.1912,-1.1912,-1.2425,-1.2851,-1.2413,-1.1815,-1.1123,-1.0697,-1.0611,-1.0438,-0.9666,-0.9579,-0.9579,-0.9579,-0.8969,-0.8707,-0.9405,0.0,-0.7753,-0.7753,-0.7404,-0.7139,-0.7139,-0.7139,-0.7139,-0.7139,-0.7139,-0.7139,-0.7139,-0.7139,-0.7139,-0.7139,-0.7058,-0.7038,-0.7127,-0.7596,-0.8537,-1.004,-0.9943,-1.0045,-1.0421,-1.0045,-0.9895,-0.982,-0.8841,-0.8161,-0.7783,-0.7176,-0.6644,-0.6338,-0.6338,-0.6338,-0.6338,-0.6271,-0.6271,-0.6274,-0.6285,-0.5488,-0.4538,-1.5832,-1.5832,-1.5832,-1.5832,-1.5832,-1.5832,-1.5832,-1.5832,-1.5832,-1.5832,-1.5832,-1.5832,-1.5832,-1.5832,-1.5832,-1.5832,-1.5832,-1.5832,-1.5832,-1.5832,-1.5832,-1.5832,-1.5832,-1.5832,-1.5832,-1.5832,-1.5832,-1.5832,-1.5738,-1.5691,-1.5691,-1.5598,-1.5451,-1.5257,-1.5257,-1.5097,-1.4823,-1.4823,-1.477,-1.4669,-1.4469,-1.4382,-1.4362,-1.4162,-1.4088,-1.4088,-1.4088,-1.4088,-1.3997,-1.3646,-1.3555,-1.347,-1.3124,-1.3039,-1.2863,-1.1986,-1.1209,-1.0611,-1.0611,-1.0869,-1.1209,-1.1209,-1.0611,-1.0009,-0.957,-0.9483,-0.9314,-0.854,-0.8368,-0.8368,-0.8368,-0.7665,-0.7404,-0.8193,-0.7665,-0.7139,-0.7139,-0.7139,-0.7139,-0.7139,-0.7139,-0.7139,-0.7139,-0.7139,-0.7139,-0.7139,-0.7139,-0.7122,-0.7078,-0.6936,-0.6739,-0.6481,-0.6427,-0.7055,-0.8313,-0.8694,-0.8993,-0.9296,-0.8998,-0.8846,-0.8765,-0.7783,-0.7326,-0.733,-0.6567,-0.6338,-0.6338,-0.6264,-0.6268,-0.6268,-0.6281,-0.5883,-0.5404,-0.6058,-0.5344,-0.4155,-1.5832,-1.5832,-1.5832,-1.5832,-1.5832,-1.5832,-1.5832,-1.5832,-1.5832,-1.5832,-1.5832,-1.5832,-1.5832,-1.5832,-1.5832,-1.5832,-1.5832,-1.5832,-1.5825,-1.5818,-1.5818,-1.5818,-1.5825,-1.5825,-1.5825,-1.5818,-1.5818,-1.5818,-1.5531,-1.5391,-1.5384,-1.5097,-1.4963,-1.4963,-1.4963,-1.4796,-1.4516,-1.4516,-1.4349,-1.4088,-1.4088,-1.4088,-1.4088,-1.4088,-1.4088,-1.4088,-1.4088,-1.4088,-1.3913,-1.2681,-1.2328,-1.2072,-1.095,-1.0611,-1.0611,-1.0611,-1.0611,-1.0611,-1.0611,-0.9749,-0.889,-0.889,-0.889,-0.854,-0.7404,-0.7139,-0.7139,-0.7139,-0.7139,-0.7139,-0.7139,-0.7139,-0.7139,-0.7139,-0.7139,-0.7139,-0.7139,-0.7139,-0.7139,-0.7139,-0.7139,-0.7139,-0.7139,-0.7139,-0.7139,-0.7139,-0.7139,-0.7078,-0.6936,-0.6783,-0.663,-0.6474,-0.6335,-0.6338,-0.6338,-0.7326,-0.8313,-0.9296,-0.8237,-0.7783,-0.7783,-0.6718,-0.6338,-0.6338,-0.6338,-0.6338,-0.6264,-0.6274,-0.6278,-0.6278,-0.6291,-0.5018,-0.3361,-0.5517,-0.625,-0.5686,-1.5832,-1.5832,-1.5832,-1.5832,-1.5832,-1.5832,-1.5832,-1.5832,-1.5832,-1.5832,-1.5832,-1.5832,-1.5832,-1.5832,-1.5832,-1.5832,-1.5832,-1.5745,-1.5538,-1.5337,-1.5224,-1.5224,-1.5418,-1.5524,-1.5524,-1.5324,-1.5224,-1.5224,-1.5137,-1.5097,-1.509,-1.5003,-1.485,-1.4656,-1.4656,-1.4489,-1.4215,-1.4215,-1.4168,-1.4088,-1.4088,-1.4088,-1.4088,-1.4088,-1.4088,-1.4088,-1.4088,-1.4088,-1.3913,-1.2681,-1.2328,-1.2072,-1.095,-1.0009,-0.9405,-0.9405,-0.8794,-0.8185,-0.8185,-0.7925,-0.7841,-0.8715,-0.8277,-0.7577,-0.7139,-0.7139,-0.7112,-0.701,-0.6993,-0.6993,-0.6993,-0.6993,-0.7024,-0.7126,-0.7139,-0.7139,-0.7139,-0.7139,-0.7139,-0.7139,-0.7139,-0.7139,-0.7139,-0.7139,-0.7139,-0.7139,-0.7139,-0.7031,-0.678,-0.6725,-0.6583,-0.6332,-0.6285,-0.6338,-0.6338,-0.6567,-0.6872,-0.7173,-0.6868,-0.6718,-0.6718,-0.6412,-0.6338,-0.6338,-0.6271,-0.6274,-0.6274,-0.6285,-0.541,-0.4222,-0.5749,-0.5918,-0.504,-0.2749,-0.1885,-0.1728,-1.5484,-1.5578,-1.5658,-1.5658,-1.5752,-1.5832,-1.5832,-1.5832,-1.5832,-1.5832,-1.5732,-1.5658,-1.5658,-1.5558,-1.5484,-1.5484,-1.5484,-1.5411,-1.5237,-1.5064,-1.4963,-1.4963,-1.5017,-1.5104,-1.5224,-1.5057,-1.4963,-1.4963,-1.4843,-1.479,-1.4783,-1.4669,-1.4522,-1.4349,-1.4349,-1.4255,-1.4088,-1.4088,-1.4088,-1.4088,-1.4088,-1.4088,-1.4082,-1.3561,-1.3379,-1.3294,-1.2863,-1.2693,-1.2516,-1.1386,-1.0605,-1.0082,-0.9396,-0.8707,-0.8193,-0.8193,-0.7665,-0.7139,-0.7139,-0.7099,-0.7229,-0.7922,-0.7621,-0.7126,-0.7068,-0.7058,-0.7014,-0.6868,-0.6841,-0.6858,-0.6919,-0.6929,-0.6973,-0.7115,-0.7139,-0.7139,-0.7139,-0.7139,-0.7139,-0.7139,-0.7139,-0.7143,-0.7064,-0.7064,-0.7068,-0.7071,-0.7071,-0.7054,-0.6898,-0.6746,-0.66,-0.6352,-0.6291,-0.6338,-0.6338,-0.6268,-0.6268,-0.6338,-0.6338,-0.6338,-0.6338,-0.6268,-0.6268,-0.6268,-0.6281,-0.5805,-0.509,-0.598,-0.5509,-0.4316,-0.3932,-0.3777,-0.3461,-0.0942,-0.0,-0.0,-1.4963,-1.5177,-1.5357,-1.5357,-1.5578,-1.5752,-1.5752,-1.5752,-1.5752,-1.5752,-1.5524,-1.5357,-1.5357,-1.5124,-1.4963,-1.4963,-1.4937,-1.4923,-1.4923,-1.4903,-1.489,-1.489,-1.4623,-1.4609,-1.4877,-1.489,-1.489,-1.489,-1.4616,-1.4482,-1.4476,-1.4208,-1.4088,-1.4088,-1.4088,-1.4088,-1.4088,-1.4088,-1.3997,-1.3913,-1.3913,-1.3906,-1.3652,-1.2589,-1.2151,-1.198,-1.095,-1.0611,-1.0438,-0.9323,-0.8105,-0.7139,-0.7139,-0.7139,-0.7139,-0.7139,-0.7132,-0.7122,-0.7122,-0.7017,-0.6909,-0.6909,-0.7004,-0.7065,-0.6939,-0.6909,-0.6865,-0.6712,-0.6692,-0.6742,-0.6881,-0.6919,-0.6976,-0.7119,-0.7143,-0.7058,-0.7058,-0.7058,-0.7058,-0.7058,-0.7058,-0.7064,-0.7084,-0.6903,-0.6815,-0.6828,-0.6828,-0.676,-0.6784,-0.6739,-0.6585,-0.6481,-0.6352,-0.6278,-0.6264,-0.6274,-0.6274,-0.6264,-0.6264,-0.6264,-0.6264,-0.6274,-0.62,-0.6038,-0.6213,-0.5179,-0.3519,-0.5118,-0.5767,-0.5367,-0.1492,-0.0,-0.0,-0.0,-0.0,0.0079,-1.4963,-1.5017,-1.5057,-1.5057,-1.511,-1.515,-1.515,-1.515,-1.515,-1.515,-1.5097,-1.5057,-1.5057,-1.4997,-1.4963,-1.4963,-1.475,-1.4616,-1.4616,-1.4402,-1.4275,-1.4275,-1.4215,-1.4208,-1.4275,-1.4275,-1.4275,-1.4275,-1.4215,-1.4182,-1.4182,-1.4115,-1.4088,-1.4088,-1.4088,-1.4088,-1.4088,-1.4088,-1.3555,-1.2674,-1.2674,-1.2163,-1.1305,-1.1042,-1.095,-1.0956,-1.0697,-1.0611,-1.0438,-0.9323,-0.8105,-0.7139,-0.7139,-0.7139,-0.7139,-0.7139,-0.7061,-0.6973,-0.6973,-0.6865,-0.6749,-0.6749,-0.6773,-0.679,-0.6756,-0.6749,-0.6705,-0.6552,-0.6617,-0.6712,-0.6746,-0.677,-0.6903,-0.7054,-0.7084,-0.7091,-0.7091,-0.7091,-0.7091,-0.7091,-0.7091,-0.7094,-0.7098,-0.5458,-0.4376,-0.4378,-0.4378,-0.4341,-0.4338,-0.6061,-0.68,-0.6354,-0.6318,-0.6327,-0.6288,-0.6291,-0.6285,-0.6274,-0.6285,-0.6288,-0.6288,-0.6291,-0.541,-0.3908,-0.559,-0.6002,-0.5361,-0.2514,-0.1335,-0.1256,-0.0393,-0.0,-0.0,-0.0,-0.0,0.0471,-1.4549,-1.4656,-1.475,-1.475,-1.487,-1.4963,-1.4963,-1.4963,-1.4963,-1.4963,-1.4843,-1.475,-1.475,-1.4629,-1.4361,-1.3724,-1.3063,-1.2632,-1.2632,-1.2508,-1.2431,-1.2431,-1.2431,-1.2431,-1.2431,-1.2431,-1.2954,-1.4088,-1.4088,-1.3822,-1.3203,-1.3203,-1.2948,-1.2431,-1.2431,-1.2431,-1.2431,-1.2431,-1.2083,-1.1466,-1.1466,-1.1123,-1.0524,-1.0009,-0.9749,-0.9753,-0.9139,-0.8965,-0.8877,-0.8277,-0.7665,-0.7139,-0.7139,-0.7139,-0.7126,-0.7058,-0.6987,-0.6912,-0.6841,-0.6709,-0.6593,-0.6593,-0.6546,-0.6515,-0.6576,-0.6593,-0.6549,-0.6403,-0.6495,-0.6545,-0.6619,-0.6678,-0.6477,-0.5617,-0.5458,-0.546,-0.546,-0.546,-0.546,-0.546,-0.546,-0.583,-0.7025,-0.3942,-0.1879,-0.1879,-0.1879,-0.187,-0.1847,-0.305,-0.4122,-0.4954,-0.4844,-0.4761,-0.4783,-0.5777,-0.6308,-0.6302,-0.5257,-0.4779,-0.4779,-0.5827,-0.5671,-0.4555,-0.3694,-0.3303,-0.3146,-0.0942,-0.0,-0.0,-0.0,-0.0,-0.0,-0.0,0.1256,0.3303,-1.4088,-1.4282,-1.4442,-1.4442,-1.4649,-1.4816,-1.4816,-1.4816,-1.4816,-1.4816,-1.4596,-1.4442,-1.4442,-1.4229,-1.373,-1.2674,-1.1558,-1.0864,-1.0864,-1.0697,-1.0611,-1.0611,-1.0611,-1.0611,-1.0611,-1.0611,-1.1563,-1.3476,-1.3476,-1.2948,-1.1986,-1.1986,-1.1466,-1.0611,-1.0611,-1.0611,-1.0611,-1.0611,-1.0524,-1.0269,-1.0269,-1.0178,-0.9918,-0.8973,-0.8627,-0.8452,-0.7489,-0.7139,-0.7139,-0.7139,-0.7139,-0.7136,-0.7112,-0.7102,-0.7075,-0.6932,-0.6871,-0.6824,-0.6702,-0.6556,-0.6437,-0.6441,-0.6359,-0.623,-0.6007,-0.6195,-0.6417,-0.6322,-0.6271,-0.626,-0.6062,-0.6386,-0.6168,-0.4461,-0.3484,-0.2948,-0.2948,-0.2948,-0.2948,-0.2948,-0.2948,-0.3758,-0.5673,-0.2335,-0.0,-0.0,-0.0,-0.0,-0.0,-0.0,-0.0957,-0.2947,-0.2674,-0.253,-0.2591,-0.5042,-0.6277,-0.6254,-0.3763,-0.2578,-0.2657,-0.4403,-0.5207,-0.5048,-0.1492,-0.0,-0.0,-0.0,-0.0,-0.0,-0.0,0.0471,0.11,0.11,0.3064,0.5839,-1.4088,-1.4122,-1.4142,-1.4142,-1.4175,-1.4202,-1.4202,-1.4202,-1.4202,-1.4202,-1.4168,-1.4142,-1.4142,-1.4115,-1.3997,-1.3906,-1.2766,-1.2072,-1.2072,-1.1123,-1.0611,-1.0611,-1.0611,-1.0611,-1.0611,-1.0611,-1.0783,-1.1042,-1.1042,-1.0956,-1.0869,-1.0869,-1.0783,-1.0611,-1.0611,-1.0611,-1.0611,-1.0611,-1.0009,-0.9148,-0.9148,-0.8536,-0.7573,-0.7401,-0.7316,-0.7316,-0.7139,-0.7139,-0.7139,-0.7139,-0.7139,-0.7119,-0.6997,-0.6956,-0.6926,-0.6776,-0.6637,-0.6532,-0.6616,-0.65,-0.6305,-0.6315,-0.6305,-0.5814,-0.4001,-0.4959,-0.6349,-0.6301,-0.6276,-0.5736,-0.3953,-0.5468,-0.693,-0.6671,-0.3142,-0.0449,-0.0449,-0.0449,-0.0449,-0.0449,-0.0449,-0.0628,-0.0898,-0.0359,-0.0,-0.0,-0.0,-0.0,-0.0,-0.0,-0.0177,-0.0435,-0.0432,-0.0423,-0.0406,-0.4315,-0.6311,-0.6264,-0.2278,-0.0392,-0.0392,-0.0707,-0.0864,-0.0785,-0.0236,-0.0,-0.0,-0.0,-0.0,-0.0,-0.0,0.2202,0.546,0.5451,0.4638,0.3832,-1.2977,-1.3012,-1.2857,-1.2254,-1.2169,-1.2169,-1.2169,-1.2169,-1.2169,-1.2169,-1.2169,-1.2169,-1.2169,-1.1569,-1.1225,-1.1225,-1.0091,-0.9392,-0.9392,-0.896,-0.8615,-0.8615,-0.8615,-0.857,-0.8562,-0.8562,-0.8508,-0.8404,-0.989,-1.0269,-0.9666,-0.9666,-0.9318,-0.8615,-0.8615,-0.8615,-0.8615,-0.8615,-0.836,-0.7929,-0.7929,-0.7577,-0.7132,-0.7051,-0.7021,-0.701,-0.6926,-0.6895,-0.6895,-0.6895,-0.6895,-0.6885,-0.682,-0.68,-0.677,-0.6617,-0.6525,-0.6458,-0.6476,-0.6329,-0.6041,-0.4776,-0.5425,-0.6071,-0.5112,-0.4719,-0.4511,-0.4522,-0.5468,-0.603,-0.5026,-0.3896,-0.3145,-0.3145,-0.1348,-0.0,-0.0,-0.0,-0.0,-0.0,-0.0,-0.0,-0.0,-0.0,-0.0,-0.0,-0.0,-0.0,-0.0,-0.0,-0.0,-0.0,-0.0,-0.0,-0.0,-0.1839,-0.2794,-0.273,-0.0882,-0.0,-0.0,-0.0,-0.0,-0.0,-0.0,-0.0,0.0157,0.2515,0.354,0.3381,0.2193,0.2898,0.4638,0.583,0.574,0.501]},{"header":{"parameterUnit":"m.s-1","parameterCategory":1,"la1":30.6,"la2":28.766,"lo1":-90.7593,"lo2":-88.6598,"dy":0.0162,"dx":0.0183,"nx":116,"ny":114,"refTime":"2023-06-26T06:00:00:Z","depth":0,"parameterNumber":3,"parameterNumberName":"V-component_of_WINDS"},"data":[0.0,0.0,0.0,0.0,0.0,0.0,0.0,0.0,0.0,0.0,0.0,0.0,0.0,0.0,0.0,0.0,0.0,0.0,0.0,0.0,0.0,0.0,0.0,0.0,0.0,0.0,0.0,0.0,0.0,0.0,0.0,0.0,0.0,0.0,0.0,0.0,0.0,0.0,0.0,0.0,0.0,0.0,0.0,0.0,0.0,0.0,0.0,0.0,0.0,0.0,0.0,0.0,0.0,0.0,0.0,0.0,0.0,0.0,0.0,0.0,0.0,0.0,0.0,0.0,0.0,0.0,0.0,0.0,0.0,0.0,0.0,0.0,0.0,0.0,0.0,0.0,0.0,0.0,0.0,0.0,0.0,0.0,0.0,0.0,0.0,0.0,0.0,0.0,0.0,0.0,0.0,0.0,0.0,0.0,0.0,0.0,0.0,0.0,0.0,0.0,0.0,0.0,0.0,0.0,0.0,0.0,0.0,0.0,0.0,0.0,0.0,0.0,0.0,0.0,0.0,0.0,0.0,0.0,0.0,0.0,0.0,0.0,0.0,0.0,0.0,0.0,0.0,0.0,0.0,0.0,0.0,0.0,0.0,0.0,0.0,0.0,0.0,0.0,0.0,0.0,0.0,0.0,0.0,0.0,0.0,0.0,0.0,0.0,0.0,0.0,0.0,0.0,0.0,0.0,0.0,0.0,0.0,0.0,0.0,0.0,0.0,0.0,0.0,0.0,0.0,0.0,0.0,0.0,0.0,0.0,0.0,0.0,0.0,0.0,0.0,0.0,0.0,0.0,0.0,0.0,0.0,0.0,0.0,0.0,0.0,0.0,0.0,0.0,0.0,0.0,0.0,0.0,0.0,0.0,0.0,0.0,0.0,0.0,0.0,0.0,0.0,0.0,0.0,0.0,0.0,0.0,0.0,0.0,0.0,0.0,0.0,0.0,0.0,0.0,0.0,0.0,0.0,0.0,0.0,0.0,0.0,0.0,0.0,0.0,0.0,0.0,0.0,0.0,0.0,0.0,0.0,0.0,0.0,0.0,0.0,0.0,0.0,0.0,0.0,0.0,0.0,0.0,0.0,0.0,0.0,0.0,0.0,0.0,0.0,0.0,0.0,0.0,0.0,0.0,0.0,0.0,0.0,0.0,0.0,0.0,0.0,0.0,0.0,0.0,0.0,0.0,0.0,0.0,0.0,0.0,0.0,0.0,0.0,0.0,0.0,0.0,0.0,0.0,0.0,0.0,0.0,0.0,0.0,0.0,0.0,0.0,0.0,0.0,0.0,0.0,0.0,0.0,0.0,0.0,0.0,0.0,0.0,0.0,0.0,0.0,0.0,0.0,0.0,0.0,0.0,0.0,0.0,0.0,0.0,0.0,0.0,0.0,0.0,0.0,0.0,0.0,0.0,0.0,0.0,0.0,0.0,0.0,0.0,0.0,0.0,0.0,0.0,0.0,0.0,0.0,0.0,0.0,0.0,0.0,0.0,0.0,0.0,0.0,0.0,0.0,0.0,0.0,0.0,0.0,0.0,0.0,0.0,0.0,0.0,0.0,0.0,0.0,0.0,0.0,0.0,0.0,0.0,0.0,0.0,0.0,0.0,0.0,0.0,0.0,0.0,0.0,0.0,0.0,0.0,0.0,0.0,0.0,0.0,0.0,0.0,0.0,0.0,0.0,0.0,0.0,0.0,0.0,0.0,0.0,0.0,0.0,0.0,0.0,0.0,0.0,0.0,0.0,0.0,0.0,0.0,0.0,0.0,0.0,0.0,0.0,0.0,0.0,0.0,0.0,0.0,0.0,0.0,0.0,0.0,0.0,0.0,0.0,0.0,0.0,0.0,0.0,0.0,0.0,0.0,0.0,0.0,0.0,0.0,0.0,0.0,0.0,0.0,0.0,0.0,0.0,0.0,0.0,0.0,0.0,0.0,0.0,0.0,0.0,0.0,0.0,0.0,0.0,0.0,0.0,0.0,0.0,0.0,0.0,0.0,0.0,0.0,0.0,0.0,0.0,0.0,0.0,0.0,0.0,0.0,0.0,0.0,0.0,0.0,0.0,0.0,0.0,0.0,0.0,0.0,0.0,0.0,0.0,0.0,0.0,0.0,0.0,0.0,0.0,0.0,0.0,0.0,0.0,0.0,0.0,0.0,0.0,0.0,0.0,0.0,0.0,0.0,0.0,0.0,0.0,0.0,0.0,0.0,0.0,0.0,0.0,0.0,0.0,0.0,0.0,0.0,0.0,0.0,0.0,0.0,0.0,0.0,0.0,0.0,0.0,0.0,0.0,0.0,0.0,0.0,0.0,0.0,0.0,0.0,0.0,0.0,0.0,0.0,0.0,0.0,0.0,0.0,0.0,0.0,0.0,0.0,0.0,0.0,0.0,0.0,0.0,0.0,0.0,0.0,0.0,0.0,0.0,0.0,0.0,0.0,0.0,0.0,0.0,0.0,0.0,0.0,0.0,0.0,0.0,0.0,0.0,0.0,0.0,0.0,0.0,0.0,0.0,0.0,0.0,0.0,0.0,0.0,0.0,0.0,0.0,0.0,0.0,0.0,0.0,0.0,0.0,0.0,0.0,0.0,0.0,0.0,0.0,0.0,0.0,0.0,0.0,0.0,0.0,0.0,0.0,0.0,0.0,0.0,0.0,0.0,0.0,0.0,0.0,0.0,0.0,0.0,0.0,0.0,0.0,0.0,0.0,0.0,0.0,0.0,0.0,0.0,0.0,0.0,0.0,0.0,0.0,0.0,0.0,0.0,0.0,0.0,0.0,0.0,0.0,0.0,0.0,0.0,0.0,0.0,0.0,0.0,0.0,0.0,0.0,0.0,0.0,0.0,0.0,0.0,0.0,0.0,0.0,0.0,0.0,0.0,0.0,0.0,0.0,0.0,0.0,0.0,0.0,0.0,0.0,0.0,0.0,0.0,0.0,0.0,0.0,0.0,0.0,0.0,0.0,0.0,0.0,0.0,0.0,0.0,0.0,0.0,0.0,0.0,0.0,0.0,0.0,0.0,0.0,0.0,0.0,0.0,0.0,0.0,0.0,0.0,0.0,0.0,0.0,0.0,0.0,0.0,0.0,0.0,0.0,0.0,0.0,0.0,0.0,0.0,0.0,0.0,0.0,0.0,0.0,0.0,0.0,0.0,0.0,0.0,0.0,0.0,0.0,0.0,0.0,0.0,0.0,0.0,0.0,0.0,0.0,0.0,0.0,0.0,0.0,0.0,0.0,0.0,0.0,0.0,0.0,0.0,0.0,0.0,0.0,0.0,0.0,0.0,0.0,0.0,0.0,0.0,0.0,0.0,0.0,0.0,0.0,0.0,0.0,0.0,0.0,0.0,0.0,0.0,0.0,0.0,0.0,0.0,0.0,0.0,0.0,0.0,0.0,0.0,0.0,0.0,0.0,0.0,0.0,0.0,0.0,0.0,0.0,0.0,0.0,0.0,0.0,0.0,0.0,0.0,0.0,0.0,0.0,0.0,0.0,0.0,0.0,0.0,0.0,0.0,0.0,0.0,0.0,0.0,0.0,0.0,0.0,0.0,0.0,0.0,0.0,0.0,0.0,0.0,0.0,0.0,0.0,0.0,0.0,0.0,0.0,0.0,0.0,0.0,0.0,0.0,0.0,0.0,0.0,0.0,0.0,0.0,0.0,0.0,0.0,0.0,0.0,0.0,0.0,0.0,0.0,0.0,0.0,0.0,0.0,0.0,0.0,0.0,0.0,0.0,0.0,0.0,0.0,0.0,0.0,0.0,0.0,0.0,0.0,0.0,0.0,0.0,0.0,0.0,0.0,0.0,0.0,0.0,0.0,0.0,0.0,0.0,0.0,0.0,0.0,0.0,0.0,0.0,0.0,0.0,0.0,0.0,0.0,0.0,0.0,0.0,0.0,0.0,0.0,0.0,0.0,0.0,0.0,0.0,0.0,0.0,0.0,0.0,0.0,0.0,0.0,0.0,0.0,0.0,0.0,0.0,0.0,0.0,0.0,0.0,0.0,0.0,0.0,0.0,0.0,0.0,0.0,0.0,0.0,0.0,0.0,0.0,0.0,0.0,0.0,0.0,0.0,0.0,0.0,0.0,0.0,0.0,0.0,0.0,0.0,0.0,0.0,0.0,0.0,0.0,0.0,0.0,0.0,0.0,0.0,0.0,0.0,0.0,0.0,0.0,0.0,0.0,0.0,0.0,0.0,0.0,0.0,0.0,0.0,0.0,0.0,0.0,0.0,0.0,0.0,0.0,0.0,0.0,0.0,0.0,0.0,0.0,0.0,0.0,0.0,0.0,0.0,0.0,0.0,0.0,0.0,0.0,0.0,0.0,0.0,0.0,0.0,0.0,0.0,0.0,0.0,0.0,0.0,0.0,0.0,0.0,0.0,0.0,0.0,0.0,0.0,0.0,0.0,0.0,0.0,0.0,0.0,0.0,0.0,0.0,0.0,0.0,0.0,0.0,0.0,0.0,0.0,0.0,0.0,0.0,0.0,0.0,0.0,0.0,0.0,0.0,0.0,0.0,0.0,0.0,0.0,0.0,0.0,0.0,0.0,0.0,0.0,0.0,0.0,0.0,0.0,0.0,0.0,0.0,0.0,0.0,0.0,0.0,0.0,0.0,0.0,0.0,0.0,0.0,0.0,0.0,0.0,0.0,0.0,0.0,0.0,0.0,0.0,0.0,0.0,0.0,0.0,0.0,0.0,0.0,0.0,0.0,0.0,0.0,0.0,0.0,0.0,0.0,0.0,0.0,0.0,0.0,0.0,0.0,0.0,0.0,0.0,0.0,0.0,0.0,0.0,0.0,0.0,0.0,0.0,0.0,0.0,0.0,0.0,0.0,0.0,0.0,0.0,0.0,0.0,0.0,0.0,0.0,0.0,0.0,0.0,0.0,0.0,0.0,0.0,0.0,0.0,0.0,0.0,0.0,0.0,0.0,0.0,0.0,0.0,0.0,0.0,0.0,0.0,0.0,0.0,0.0,0.0,0.0,0.0,0.0,0.0,0.0,0.0,0.0,0.0,0.0,0.0,0.0,0.0,0.0,0.0,0.0,0.0,0.0,0.0,0.0,0.0,0.0,0.0,0.0,0.0,0.0,0.0,0.0,0.0,0.0,0.0,0.0,0.0,0.0,0.0,0.0,0.0,0.0,0.0,0.0,0.0,0.0,0.0,0.0,0.0,0.0,0.0,0.0,0.0,0.0,0.0,0.0,0.0,0.0,0.0,0.0,0.0,0.0,0.0,0.0,0.0,0.0,0.0,0.0,0.0,0.0,0.0,0.0,0.0,0.0,0.0,0.0,0.0,0.0,0.0,0.0,0.0,0.0,0.0,0.0,0.0,0.0,0.0,0.0,0.0,0.0,0.0,0.0,0.0,0.0,0.0,0.0,0.0,0.0,0.0,0.0,0.0,0.0,0.0,0.0,0.0,0.0,0.0,0.0,0.0,0.0,0.0,0.0,0.0,0.0,0.0,0.0,0.0,0.0,0.0,0.0,0.0,0.0,0.0,0.0,0.0,0.0,0.0,0.0,0.0,0.0,0.0,0.0,0.0,0.0,0.0,0.0,0.0,0.0,0.0,0.0,0.0,0.0,0.0,0.0,0.0,0.0,0.0,0.0,0.0,0.0,0.0,0.0,0.0,0.0,0.0,0.0,0.0,0.0,0.0,0.0,0.0,0.0,0.0,0.0,0.0,0.0,0.0,0.0,0.0,0.0,0.0,0.0,0.0,0.0,0.0,0.0,0.0,0.0,0.0,0.0,0.0,0.0,0.0,0.0,0.0,0.0,0.0,0.0,0.0,0.0,0.0,0.0,0.0,0.0,0.0,0.0,0.0,0.0,0.0,0.0,0.0,0.0,0.0,0.0,0.0,0.0,0.0,0.0,0.0,0.0,0.0,0.0,0.0,0.0,0.0,0.0,0.0,0.0,0.0,0.0,0.0,0.0,0.0,0.0,0.0,0.0,0.0,0.0,0.0,0.0,0.0,0.0,0.0,0.0,0.0,0.0,0.0,0.0,0.0,0.0,0.0,0.0,0.0,0.0,0.0,0.0,0.0,0.0,0.0,0.0,0.0,0.0,0.0,0.0,0.0,0.0,0.0,0.0,0.0,-2.3135,0.0,0.0,0.0,0.0,0.0,0.0,0.0,0.0,0.0,0.0,0.0,0.0,0.0,0.0,0.0,0.0,0.0,0.0,0.0,0.0,0.0,0.0,0.0,0.0,0.0,0.0,0.0,0.0,0.0,0.0,0.0,0.0,0.0,0.0,0.0,0.0,0.0,0.0,0.0,0.0,0.0,0.0,0.0,0.0,0.0,0.0,0.0,0.0,0.0,0.0,0.0,0.0,0.0,0.0,0.0,0.0,0.0,0.0,0.0,0.0,0.0,0.0,0.0,0.0,0.0,0.0,0.0,0.0,0.0,0.0,0.0,0.0,0.0,0.0,0.0,0.0,0.0,0.0,0.0,0.0,0.0,0.0,0.0,0.0,0.0,0.0,0.0,0.0,0.0,0.0,0.0,0.0,0.0,0.0,0.0,0.0,0.0,0.0,0.0,0.0,0.0,0.0,0.0,0.0,0.0,0.0,0.0,0.0,0.0,0.0,0.0,0.0,0.0,0.0,0.0,0.0,-2.4221,0.0,0.0,0.0,0.0,0.0,0.0,0.0,0.0,0.0,0.0,0.0,0.0,0.0,0.0,0.0,0.0,0.0,0.0,0.0,0.0,0.0,0.0,0.0,0.0,0.0,0.0,0.0,0.0,0.0,0.0,0.0,0.0,0.0,0.0,0.0,0.0,0.0,0.0,0.0,0.0,0.0,0.0,0.0,0.0,0.0,0.0,0.0,0.0,0.0,0.0,0.0,0.0,0.0,0.0,0.0,0.0,0.0,0.0,0.0,0.0,0.0,0.0,0.0,0.0,0.0,0.0,0.0,0.0,0.0,0.0,0.0,0.0,0.0,0.0,0.0,0.0,0.0,0.0,0.0,0.0,0.0,0.0,0.0,0.0,0.0,0.0,0.0,0.0,0.0,0.0,0.0,0.0,0.0,0.0,0.0,0.0,0.0,0.0,0.0,0.0,0.0,0.0,0.0,0.0,0.0,0.0,0.0,0.0,-2.332,-2.3545,-2.3896,-2.3896,-2.4506,-2.5507,-2.5369,-2.5782,-2.6554,0.0,0.0,0.0,0.0,0.0,0.0,0.0,0.0,0.0,0.0,0.0,0.0,0.0,0.0,0.0,0.0,0.0,0.0,0.0,0.0,0.0,0.0,0.0,0.0,0.0,0.0,0.0,0.0,0.0,0.0,0.0,0.0,0.0,0.0,0.0,0.0,0.0,0.0,0.0,-1.3273,-1.3567,-1.3701,-1.3714,-1.4129,0.0,0.0,0.0,0.0,0.0,0.0,0.0,0.0,0.0,0.0,0.0,0.0,0.0,0.0,0.0,0.0,0.0,0.0,0.0,0.0,0.0,0.0,0.0,0.0,0.0,0.0,0.0,0.0,0.0,0.0,0.0,0.0,0.0,0.0,0.0,0.0,0.0,0.0,0.0,0.0,0.0,0.0,0.0,-2.1738,-2.1569,0.0,0.0,0.0,0.0,0.0,0.0,0.0,0.0,0.0,0.0,0.0,0.0,0.0,0.0,-2.3135,-2.3516,-2.3701,-2.3711,-2.4072,-2.4277,-2.4336,-2.4336,-2.5038,-2.6256,-2.7151,0.0,-2.6554,-2.7683,0.0,0.0,0.0,0.0,0.0,0.0,0.0,0.0,0.0,0.0,0.0,0.0,0.0,0.0,0.0,0.0,0.0,0.0,0.0,0.0,0.0,0.0,0.0,0.0,0.0,0.0,0.0,0.0,0.0,0.0,0.0,0.0,0.0,0.0,0.0,0.0,-1.1187,-1.175,-1.2089,-1.2363,-1.2824,-1.3407,-1.3534,-1.4969,-1.7342,-1.7342,0.0,0.0,0.0,0.0,0.0,0.0,0.0,0.0,0.0,0.0,0.0,0.0,0.0,0.0,0.0,0.0,0.0,0.0,0.0,0.0,0.0,0.0,0.0,0.0,0.0,0.0,0.0,0.0,0.0,0.0,0.0,0.0,0.0,0.0,0.0,0.0,0.0,0.0,0.0,-2.2677,-2.2031,-2.1382,-2.0845,-2.0215,0.0,0.0,0.0,0.0,0.0,0.0,0.0,0.0,0.0,-2.3496,-2.3506,-2.3623,-2.3857,-2.4043,-2.4141,-2.4141,-2.4336,-2.4551,-2.4785,-2.4785,-2.586,-2.7632,-2.8077,-2.8643,-2.9292,-2.9431,-2.9481,-2.9524,0.0,0.0,0.0,0.0,0.0,-2.9792,0.0,0.0,0.0,0.0,0.0,0.0,0.0,0.0,0.0,0.0,0.0,0.0,0.0,0.0,0.0,0.0,0.0,0.0,0.0,0.0,0.0,0.0,0.0,0.0,0.0,0.0,0.0,0.0,-0.9711,-1.0258,-1.0716,-1.128,-1.197,-1.2693,-1.3015,-1.4663,-1.7194,-1.7194,-1.8532,0.0,0.0,0.0,0.0,0.0,0.0,0.0,0.0,0.0,0.0,0.0,0.0,0.0,0.0,0.0,0.0,0.0,0.0,0.0,0.0,0.0,0.0,0.0,0.0,0.0,0.0,0.0,0.0,0.0,0.0,0.0,0.0,0.0,0.0,0.0,0.0,0.0,0.0,-2.2589,-2.1854,-2.0935,-2.0296,-1.9298,0.0,0.0,0.0,0.0,0.0,0.0,-2.2663,-2.2011,-2.2196,-2.3935,-2.3945,-2.4102,-2.4414,-2.4531,-2.458,-2.458,-2.4697,-2.4932,-2.5244,-2.5244,-2.6506,-2.8768,-2.8768,-2.998,-3.1763,-3.1097,-3.0733,-3.057,-3.0168,-2.9917,-2.9792,-2.9792,-2.9792,-2.9792,0.0,0.0,0.0,0.0,0.0,0.0,0.0,0.0,0.0,0.0,0.0,0.0,0.0,0.0,0.0,0.0,0.0,0.0,0.0,0.0,0.0,0.0,0.0,0.0,0.0,0.0,0.0,-0.7872,-0.887,-0.9402,-0.9392,-1.0627,-1.1212,-1.1379,-1.2602,-1.4611,-1.6954,-1.6954,-1.8344,-2.0566,0.0,0.0,0.0,0.0,0.0,0.0,0.0,0.0,0.0,0.0,0.0,0.0,0.0,0.0,0.0,0.0,0.0,0.0,0.0,0.0,0.0,0.0,0.0,0.0,0.0,0.0,0.0,0.0,0.0,0.0,0.0,0.0,0.0,0.0,0.0,0.0,0.0,0.0,0.0,-1.9579,-1.7475,0.0,0.0,0.0,0.0,-1.9397,-1.9497,-2.0295,-2.1971,-2.1989,-2.2732,-2.4283,-2.4385,-2.4394,-2.4414,-2.4824,-2.5029,-2.5039,-2.5469,-2.5684,-2.5703,-2.5703,-2.6989,-2.9373,-2.9373,-3.073,-3.2905,-3.18,-3.106,-3.062,-3.0583,-3.0256,-2.9792,-2.9792,-2.9792,-2.9792,0.0,0.0,0.0,0.0,0.0,0.0,0.0,0.0,0.0,0.0,0.0,0.0,0.0,0.0,0.0,0.0,0.0,0.0,0.0,0.0,0.0,0.0,0.0,0.0,0.0,0.0,-0.475,-0.577,-0.615,-0.6996,-0.8313,-0.8765,-0.9719,-1.0936,-1.1411,-1.3341,-1.6163,-1.6395,-1.7353,-1.8986,-2.0527,-2.1097,0.0,0.0,0.0,0.0,0.0,0.0,0.0,0.0,0.0,0.0,0.0,0.0,0.0,0.0,0.0,0.0,0.0,0.0,0.0,0.0,0.0,0.0,0.0,0.0,0.0,0.0,0.0,0.0,0.0,0.0,0.0,0.0,0.0,0.0,0.0,0.0,0.0,-1.967,-1.8764,0.0,-1.6567,-1.7225,-1.7961,-1.8534,-1.9378,-2.056,-2.2191,-2.2303,-2.3149,-2.4824,-2.4834,-2.4971,-2.5264,-2.542,-2.5498,-2.5508,-2.5664,-2.5742,-2.5742,-2.5742,-2.702,-2.9407,-2.9407,-3.0777,-3.3043,-3.2641,-3.2152,-3.1612,-3.1248,-3.0796,-3.0319,-3.0319,-3.0093,-2.9792,0.0,0.0,0.0,0.0,0.0,0.0,0.0,0.0,0.0,0.0,0.0,0.0,0.0,0.0,0.0,0.0,0.0,0.0,0.0,0.0,0.0,0.0,0.0,0.0,0.0,-0.2579,-0.3125,-0.4139,-0.4139,-0.5068,-0.6777,-0.708,-0.8367,-1.034,-1.0634,-1.221,-1.4649,-1.5544,-1.6841,-1.8544,-2.042,-2.1219,-2.1574,0.0,0.0,0.0,0.0,0.0,0.0,0.0,0.0,0.0,0.0,0.0,0.0,0.0,0.0,0.0,0.0,0.0,0.0,0.0,0.0,0.0,0.0,0.0,0.0,0.0,0.0,0.0,0.0,0.0,0.0,0.0,0.0,0.0,0.0,0.0,-2.1943,-2.0305,-1.9761,-1.8672,-1.6662,-1.768,-1.8214,-1.7587,-1.9296,-2.0847,-2.1909,-2.2518,-2.3576,-2.5283,-2.5293,-2.5439,-2.5732,-2.5742,-2.5742,-2.5742,-2.5742,-2.5742,-2.5732,-2.611,-2.7484,-2.9407,-2.9863,-3.1146,-3.3081,-3.3081,-3.2855,-3.2453,-3.1888,-3.1336,-3.0871,-3.0871,-3.0532,-3.0121,0.0,0.0,0.0,0.0,0.0,0.0,0.0,0.0,0.0,0.0,0.0,0.0,0.0,0.0,0.0,0.0,0.0,0.0,0.0,0.0,0.0,0.0,0.0,0.0,-0.1489,-0.1489,-0.2035,-0.3046,-0.3046,-0.3593,-0.4686,-0.5678,-0.7206,-0.9221,-1.0265,-1.1316,-1.2445,-1.4378,-1.6732,-1.9321,-2.0226,-2.0915,-2.1605,0.0,0.0,0.0,0.0,0.0,0.0,0.0,0.0,0.0,0.0,0.0,0.0,0.0,0.0,0.0,0.0,0.0,0.0,0.0,0.0,0.0,0.0,0.0,0.0,0.0,0.0,0.0,0.0,0.0,0.0,0.0,0.0,0.0,-2.3135,-2.212,-2.1382,-2.1293,-2.0215,-1.9047,-1.7885,-1.9175,-1.9099,-1.6676,-1.9244,-2.1034,-2.1295,-2.262,-2.41,-2.5625,-2.5742,-2.5742,-2.5742,-2.5742,-2.5742,-2.5742,-2.5742,-2.5742,-2.583,-2.704,-2.8319,-2.9498,-3.0676,-3.1965,-3.3081,-3.3081,-3.3081,-3.3018,-3.2453,-3.1901,-3.1411,-3.1411,-3.1072,-3.0678,0.0,0.0,0.0,0.0,0.0,0.0,0.0,0.0,0.0,0.0,0.0,0.0,0.0,0.0,0.0,0.0,0.0,0.0,0.0,0.0,0.0,0.0,0.0,0.0,0.0783,0.0705,-0.0157,-0.2035,-0.2035,-0.2503,-0.3591,-0.46,-0.5835,-0.713,-0.8898,-1.0628,-1.2391,-1.4355,-1.606,-1.7563,-2.0149,-2.1272,-2.1664,0.0,0.0,0.0,0.0,0.0,0.0,0.0,0.0,0.0,0.0,0.0,0.0,0.0,0.0,0.0,0.0,0.0,0.0,0.0,0.0,0.0,0.0,0.0,0.0,0.0,0.0,0.0,0.0,0.0,0.0,0.0,0.0,-2.3135,-2.3135,-2.2775,-2.2306,-2.1382,-2.0215,-1.9504,-1.9487,-1.9874,-2.005,-1.9889,-2.2364,-2.3694,-2.3098,-2.4342,-2.5208,-2.5732,-2.5742,-2.5742,-2.5742,-2.5742,-2.5742,-2.5742,-2.5742,-2.6197,-2.7125,-2.74,-2.8773,-3.0765,-3.1033,-3.1965,-3.3081,-3.3081,-3.3081,-3.3056,-3.2905,-3.2491,-3.1989,-3.1989,-3.1411,-3.0745,0.0,0.0,0.0,0.0,0.0,0.0,0.0,0.0,0.0,0.0,0.0,0.0,0.0,0.0,0.0,0.0,0.0,0.0,0.0,0.0,0.0,0.0,0.0,0.4351,0.2884,0.2884,0.2027,0.0391,0.0391,-0.039,-0.1793,-0.2882,-0.4431,-0.6283,-0.8367,-1.0185,-1.1797,-1.4204,-1.5508,-1.6298,-1.973,-2.1205,-2.1652,-2.3998,-2.5209,-2.5703,-2.6432,-2.6835,-2.7095,-2.7986,0.0,0.0,0.0,0.0,0.0,0.0,0.0,0.0,0.0,0.0,0.0,0.0,0.0,0.0,0.0,0.0,0.0,0.0,0.0,0.0,0.0,0.0,0.0,0.0,-2.3135,-2.3135,-2.3135,-2.3135,-2.2862,-2.2129,-2.14,-2.1013,-2.094,-2.1485,-2.1733,-2.1253,-2.3736,-2.4851,-2.3773,-2.502,-2.5742,-2.5742,-2.5742,-2.5742,-2.5742,-2.5742,-2.5742,-2.5742,-2.5742,-2.639,-2.7589,-2.8132,-2.9407,0.0,-3.1777,-3.2426,-3.3081,-3.3081,-3.3081,0.0,0.0,0.0,0.0,0.0,-3.1896,-3.1602,0.0,0.0,0.0,0.0,0.0,0.0,0.0,0.0,0.0,0.0,0.0,0.0,0.0,0.0,0.0,0.0,0.0,0.0,0.0,0.0,0.0,0.809,0.7947,0.695,0.5029,0.4953,0.4421,0.3276,0.3276,0.226,0.0312,-0.0855,-0.2948,-0.5739,-0.7977,-0.9588,-1.0858,-1.3765,-1.5084,-1.5508,-1.9159,-2.0924,-2.1515,-2.3301,-2.4582,-2.5555,-2.6569,-2.7208,-2.7775,-2.8784,0.0,0.0,0.0,0.0,0.0,0.0,0.0,0.0,0.0,0.0,0.0,0.0,0.0,0.0,0.0,0.0,0.0,0.0,0.0,0.0,0.0,0.0,0.0,0.0,-2.3135,-2.3135,-2.3135,-2.3135,-2.3135,-2.3135,-2.2862,-2.2574,-2.2263,-2.3315,-2.3335,-2.1761,-2.417,-2.5226,-2.3998,0.0,0.0,0.0,0.0,-2.5742,-2.5742,-2.5742,-2.5742,-2.5742,-2.5742,-2.6476,-2.7861,-2.8947,-3.0135,-3.15,-3.2612,-3.3081,-3.3081,-3.3081,-3.3081,-3.3081,-3.3081,-3.3081,-3.3006,-3.2428,-3.2521,0.0,0.0,0.0,0.0,0.0,0.0,0.0,0.0,0.0,0.0,0.0,0.0,0.0,0.0,0.0,0.0,0.0,0.0,0.0,0.0,0.0,1.0353,1.0243,0.9427,0.8429,0.7099,0.7099,0.6179,0.4344,0.4344,0.3653,0.2496,0.0545,-0.1089,-0.2639,-0.5502,-0.7821,-0.9814,-1.2708,-1.4395,-1.5508,-1.9159,-2.0646,-2.0975,-2.3166,-2.413,-2.4545,-2.6295,-2.6944,-2.736,-2.9397,-2.9566,-2.9254,-3.0777,0.0,0.0,0.0,0.0,0.0,0.0,0.0,0.0,0.0,0.0,0.0,0.0,0.0,0.0,0.0,0.0,0.0,0.0,0.0,0.0,-2.3135,-2.3135,-2.3135,-2.3135,-2.3135,-2.3135,-2.3135,-2.14,-2.1013,-2.3281,-2.2267,-2.2265,-2.4231,-2.5179,-2.5635,-2.5333,-2.5538,0.0,-2.5742,-2.5742,-2.5742,-2.5742,-2.5742,-2.5742,-2.5742,0.0,0.0,-2.9039,-2.9315,-3.0598,-3.2797,-3.2982,-3.3081,-3.3081,-3.3081,-3.3081,-3.3081,-3.3081,-3.3081,-3.3006,-3.2428,-3.2764,-3.3595,0.0,0.0,0.0,0.0,0.0,0.0,0.0,0.0,0.0,0.0,0.0,0.0,0.0,0.0,0.0,0.0,0.0,0.0,0.0,1.1188,1.1401,1.1533,1.1099,1.0329,0.9246,0.9246,0.8481,0.6962,0.6962,0.6196,0.4588,0.3021,0.1162,-0.0933,-0.4022,-0.6565,-0.8722,-1.2164,-1.4237,-1.5508,-1.9159,-2.059,-2.0869,-2.3218,-2.4339,-2.4758,-2.6571,-2.7594,-2.833,-2.9856,-3.0308,-3.0389,-3.1219,-3.0896,-3.0389,0.0,0.0,0.0,0.0,0.0,0.0,0.0,0.0,0.0,0.0,0.0,0.0,0.0,0.0,-2.4787,0.0,0.0,-2.3135,-2.3135,-2.3135,-2.3135,-2.3135,-2.3135,-2.3135,-2.3135,-2.1489,-2.1284,-2.3561,-2.2373,-2.2456,-2.4915,-2.5273,-2.5508,-2.5723,-2.5742,-2.5742,-2.5742,-2.5742,-2.5742,-2.5742,-2.5742,-2.5742,-2.5742,-2.5742,-2.6658,-2.8495,-2.9131,-3.0418,-3.2152,-3.2797,-3.3081,-3.3081,-3.3081,-3.3081,-3.3081,-3.3081,-3.3081,-3.3043,-3.2754,-3.3485,-3.4546,0.0,0.0,0.0,0.0,0.0,0.0,0.0,0.0,0.0,0.0,0.0,0.0,0.0,0.0,0.0,0.0,0.0,0.0,0.0,1.1179,1.1834,1.2291,1.2305,1.199,1.1378,1.1156,1.0714,0.989,0.9669,0.8519,0.6521,0.5175,0.3091,0.0156,-0.2939,-0.5555,-0.7938,-1.17,-1.4007,-1.5508,-1.9159,-2.0707,-2.1055,-2.3585,-2.4686,-2.5169,-2.6891,-2.8181,-2.9276,-3.0167,-3.0971,-3.1482,-3.1482,-3.1482,-3.1482,-3.1482,-3.1482,0.0,0.0,0.0,0.0,0.0,0.0,0.0,0.0,0.0,-2.7493,-2.7587,-2.5892,-2.4353,-2.4447,-2.3714,-2.3135,-2.3135,-2.3135,-2.3135,-2.3135,-2.3135,-2.3135,-2.3135,-2.1854,-2.1607,-2.3156,-2.2245,-2.2464,-2.4381,-2.4798,-2.5098,-2.5459,-2.5557,-2.5605,-2.5605,-2.5693,-2.5742,-2.5742,-2.5742,-2.5742,-2.5742,-2.5742,-2.6476,-2.7955,-2.8958,-3.0226,-3.1589,-3.2612,-3.3081,-3.3081,-3.3081,-3.3081,-3.3081,-3.3081,-3.3081,-3.3081,-3.3081,-3.414,-3.5416,0.0,0.0,0.0,0.0,0.0,0.0,0.0,0.0,0.0,0.0,0.0,0.0,0.0,0.0,0.0,0.0,0.0,0.0,1.1093,1.1062,1.136,1.2224,1.2305,1.2659,1.3375,1.2579,1.205,1.1857,1.1069,0.9583,0.7544,0.5579,0.3486,0.1321,-0.1868,-0.4886,-0.7938,-1.0948,-1.3403,-1.5508,-1.9159,-2.098,-2.1846,-2.4359,-2.4892,-2.4682,-2.6735,-2.7934,-2.8711,-3.006,-3.0971,-3.1482,-3.1482,-3.1482,-3.1482,-3.1482,0.0,-3.1467,-3.1409,-3.0777,-2.9964,-2.9022,-2.8625,-2.8274,0.0,0.0,-2.5442,-2.579,-2.4189,-2.2857,-2.3231,-2.3222,-2.3135,-2.3135,-2.3135,-2.3135,-2.3135,-2.3135,-2.3135,-2.3135,-2.1132,-2.0232,-2.1445,-2.085,-2.0907,-2.2244,-2.3706,-2.4512,-2.456,-2.4932,-2.5137,-2.5137,-2.5527,-2.5742,-2.5742,-2.5742,-2.5742,-2.5742,-2.5742,-2.6935,-2.9223,-2.9315,-3.0687,-3.2896,-3.3068,-3.3081,-3.3081,-3.3081,-3.3081,-3.3081,-3.3081,-3.3081,-3.3081,-3.3081,-3.4363,-3.6032,0.0,0.0,0.0,0.0,0.0,0.0,0.0,0.0,0.0,0.0,0.0,0.0,0.0,0.0,0.0,0.0,0.0,0.0,0.884,0.9008,0.9482,1.0496,1.1675,1.2398,1.2837,1.3578,1.3939,1.3981,1.2378,1.0902,0.9401,0.6801,0.4108,0.1476,-0.1089,-0.4553,-0.8711,-1.2094,-1.5016,-1.7734,-2.1206,-2.2805,-2.3326,-2.5273,-2.5837,-2.5756,-2.7065,-2.7963,0.0,0.0,-3.0402,-3.1001,-3.1347,-3.1482,-3.1482,-3.1482,-3.1482,0.0,-3.0329,-2.9827,-2.9192,-2.7855,-2.7644,-2.7723,-2.7352,-2.6564,-2.585,-2.562,-2.4445,-2.3297,-2.3144,-2.3135,-2.3135,0.0,-2.3135,-2.3135,-2.3135,-2.3135,-2.2862,-2.2129,-2.0584,-1.9943,-2.1203,-2.0987,-2.1098,-2.1915,-2.33,-2.416,-2.4404,-2.459,-2.4687,-2.4687,-2.4873,-2.4971,-2.4971,-2.4971,-2.5098,-2.5352,-2.5352,-2.6395,-2.8412,-2.9039,-3.0524,-3.2591,-3.293,-3.288,-3.2604,-3.2943,-3.3081,-3.3081,-3.3081,-3.3081,-3.3154,-3.3797,-3.4966,-3.6249,0.0,0.0,0.0,0.0,0.0,0.0,0.0,0.0,0.0,0.0,0.0,0.0,0.0,0.0,0.0,0.0,0.0,0.0,0.0,0.6712,0.7563,0.92,1.0879,1.2257,1.3353,1.4822,1.5756,1.6296,1.4356,1.2825,1.1773,0.8275,0.4838,0.1452,-0.198,-0.6243,-1.1053,-1.4664,-1.7646,-2.0183,-2.3328,-2.4623,-2.4831,-2.6222,-2.699,-2.7333,-2.7545,-2.8008,0.0,0.0,-2.9998,-3.0627,-3.1315,-3.1482,-3.1482,-3.1482,-3.1482,-3.1219,-2.9766,-2.9192,-2.862,-2.7162,-2.6962,-2.7055,-2.7055,-2.6542,-2.5901,-2.5296,-2.4481,-2.3587,-2.3054,-2.3057,-2.3135,-2.3135,-2.3135,-2.296,-2.2677,-2.2589,-2.2129,-2.0935,-2.0034,-1.967,-2.0215,-2.0305,-2.0607,-2.1278,-2.2398,-2.3361,-2.4043,-2.418,-2.4248,-2.4248,-2.4355,-2.4414,-2.4414,-2.4414,-2.458,-2.4883,-2.5258,-2.6145,-2.7747,-2.9274,-3.0668,-3.2001,-3.2428,-3.2365,-3.2014,-3.2441,-3.2616,-3.2616,-3.2616,-3.2773,-3.3168,-3.4257,-3.5208,-3.6055,0.0,0.0,0.0,0.0,0.0,0.0,0.0,0.0,0.0,0.0,0.0,0.0,0.0,0.0,0.0,0.0,0.0,0.0,0.0,0.4561,0.602,0.9065,1.0216,1.2446,1.6156,1.6303,1.7252,1.9076,1.7175,1.5765,1.4706,0.9799,0.5393,0.1318,-0.5306,-1.0849,-1.5438,-1.91,-2.1221,-2.2387,-2.4868,-2.5925,-2.6159,-2.7018,-2.8163,-2.9164,-2.8027,0.0,0.0,0.0,-2.9998,-3.0627,-3.1315,-3.1482,0.0,-3.1482,-3.1482,-3.1351,-3.0524,-2.9628,-2.8812,-2.7855,-2.7121,-2.6546,-2.6546,-2.577,-2.4907,-2.436,-2.3748,-2.3185,-2.2611,-2.2861,-2.3135,-2.3135,-2.3135,-2.2677,-2.148,-2.1382,-2.0935,-1.967,-1.9497,-1.9039,0.0,-1.7777,-1.8326,-1.9513,-2.0683,-2.1872,-2.3086,-2.3574,-2.3809,-2.3809,-2.4209,-2.4414,-2.4414,-2.4414,-2.4424,-2.4434,-2.5513,-2.6751,-2.7973,-3.0313,-3.1342,-3.1411,-3.1436,-3.1436,-3.1411,-3.1436,-3.1436,-3.1436,-3.1436,-3.2047,-3.2948,-3.4004,-3.4768,-3.5292,0.0,0.0,0.0,0.0,0.0,0.0,0.0,0.0,0.0,0.0,0.0,0.0,0.0,0.0,0.0,0.0,0.0,0.0,0.0,0.0453,0.305,0.8768,1.058,1.3985,1.9264,2.0628,2.235,2.4373,2.2441,2.0414,1.8278,1.3914,0.5499,-0.6299,-1.2192,-1.701,-2.0952,-2.3377,-2.5272,-2.6703,-2.8569,-2.9205,-2.907,-2.942,-2.9534,-2.9419,0.0,0.0,0.0,0.0,-3.0309,-3.0586,-3.1243,-3.146,-3.1482,-3.1482,-3.1482,-3.1351,-3.0524,-2.9628,-2.8812,-2.792,-2.7095,-2.6533,-2.6533,-2.6245,-2.5657,-2.4464,-2.426,-2.3951,-2.275,-2.2852,-2.2862,-2.2031,-2.1933,-2.148,-2.0305,-2.0124,-1.967,-1.8411,-1.8326,0.0,0.0,0.0,0.0,-1.8411,-2.0953,-2.2306,-2.1933,-2.2811,-2.3359,-2.3359,-2.3496,-2.3564,-2.3564,-2.3564,-2.3711,-2.4004,-2.6214,-2.7491,-2.8015,-3.0348,-3.1198,-3.0896,-3.1248,-3.1198,-3.0896,-3.1248,-3.1386,-3.1386,-3.1386,-3.1618,-3.1996,-3.2974,-3.3612,-3.4256,0.0,0.0,0.0,0.0,0.0,0.0,0.0,0.0,0.0,0.0,0.0,0.0,0.0,0.0,0.0,0.0,0.0,0.0,0.0,0.0,-0.0685,0.7233,1.1482,1.6393,2.2188,2.3363,2.4751,2.6428,2.4302,2.2513,2.0988,1.5777,0.5741,-0.8281,-1.6321,-2.1962,-2.5578,-2.7557,-2.904,-3.0214,-3.1466,-3.1674,-3.1218,-3.1196,-3.0967,0.0,0.0,0.0,0.0,0.0,-3.072,-3.0989,-3.1612,-3.1852,-3.1894,-3.1894,-3.1697,-3.1351,-3.0524,-2.9889,-2.9192,-2.7986,-2.7284,-2.685,-2.6589,-2.6533,-2.6124,-2.4754,-2.4675,-2.4375,-2.3021,-2.2992,-2.2677,-2.148,-2.1293,-2.0755,-1.9139,-1.8864,-1.8411,-1.7131,-1.7037,-1.6669,0.0,0.0,0.0,-1.8411,-2.0503,-2.1854,-2.1943,-2.2677,-2.3135,-2.3135,-2.3135,-2.3135,-2.3135,-2.3135,-2.3447,-2.4145,-2.64,-2.7572,-2.808,-2.9951,-3.0633,-3.0331,-3.067,-3.0633,-3.0344,-3.0683,-3.0821,-3.0821,-3.0821,-3.1036,-3.1472,-3.2352,-3.3077,-3.3917,0.0,0.0,0.0,0.0,0.0,0.0,0.0,0.0,0.0,0.0,0.0,0.0,0.0,0.0,0.0,0.0,0.0,0.0,0.0,0.0,0.0,0.4353,1.2061,1.8857,2.4746,2.435,2.4555,2.5531,2.3097,2.2302,2.2942,1.5702,0.6203,-0.5322,-1.8037,-2.5706,-2.9236,-3.1402,-3.2451,-3.2728,-3.334,-3.3229,-3.2649,-3.2277,0.0,0.0,0.0,0.0,0.0,0.0,-3.1287,-3.1678,-3.2285,-3.2505,-3.2586,-3.2532,-3.2064,-3.1351,-3.0584,-3.0329,-2.9827,-2.8182,-2.767,-2.7417,-2.6658,-2.6533,-2.6164,-2.5146,-2.4814,-2.448,0.0,0.0,-2.2561,-2.1382,-2.1203,-2.0305,-1.7956,-1.7598,-1.7131,0.0,0.0,0.0,0.0,0.0,0.0,-1.9314,0.0,-2.0584,-2.2775,-2.3047,-2.3135,-2.3135,-2.3135,-2.3135,-2.3135,-2.3135,-2.3637,-2.4702,-2.5975,-2.7046,-2.8096,-2.9287,-2.9792,-2.9792,-2.9792,-2.9792,-2.9792,-2.9792,-2.9792,-2.9792,-2.9792,-3.0343,-3.1315,-3.2249,-3.3171,-3.4113,0.0,0.0,0.0,0.0,0.0,0.0,0.0,0.0,0.0,0.0,0.0,0.0,0.0,0.0,0.0,0.0,0.0,0.0,0.0,0.0,0.0,0.0,0.0,0.0,0.0,0.0,0.0,0.0,0.0,2.5086,2.5799,1.9426,0.7087,-1.0308,-2.339,-2.9661,-3.0643,-3.2939,-3.3847,-3.3789,0.0,-3.4453,-3.3998,0.0,0.0,0.0,0.0,0.0,0.0,-3.2196,-3.2332,-3.2519,-3.1855,-3.2104,-3.2492,-3.1951,-3.164,-3.1467,-3.1219,-3.0269,-2.9192,-2.8812,-2.7736,-2.6782,-2.6521,-2.6533,-2.6013,-2.4253,-2.4168,-2.3951,0.0,0.0,0.0,-2.0082,-1.9222,0.0,-1.648,-1.6292,0.0,-1.5825,0.0,-1.5832,-1.5832,-1.6109,0.0,0.0,-1.9852,-2.0755,-2.0404,-2.2129,-2.3135,-2.3135,-2.3135,-2.3135,-2.3135,-2.3135,-2.3222,-2.3551,-2.5557,-2.6637,-2.6964,-2.8961,-2.9792,-2.9792,-2.9792,-2.9792,-2.9792,-2.9792,-2.9792,-2.9792,-2.9792,-3.0343,-3.1315,-3.2249,-3.3171,-3.4124,0.0,0.0,0.0,0.0,0.0,0.0,0.0,0.0,0.0,0.0,0.0,0.0,0.0,0.0,0.0,0.0,0.0,0.0,0.0,0.0,0.0,0.0,0.0,0.0,0.0,0.0,0.0,0.0,0.0,0.0,0.0,1.3793,0.1735,-1.5885,-2.3991,-2.8652,-3.0516,0.0,0.0,0.0,0.0,0.0,0.0,0.0,0.0,0.0,0.0,0.0,0.0,-3.1934,-3.223,-3.263,-3.2121,-3.2211,-3.2547,-3.212,-3.1739,-3.1482,-3.1482,-3.0837,-2.995,-2.9192,-2.8298,-2.7417,-2.6658,-2.6533,-2.6025,-2.448,-2.4141,-2.3886,-2.2727,-2.156,-2.0404,0.0,0.0,0.0,-1.6015,-1.5832,-1.5832,0.0,-1.5832,0.0,-1.5832,-1.5832,-1.6109,0.0,-1.8672,-1.9852,-2.0305,-2.1578,-2.258,-2.3047,-2.3135,-2.3135,-2.3135,-2.3135,-2.3135,-2.3135,-2.54,-2.6483,-2.6565,-2.8791,-2.9792,-2.9792,0.0,-2.9792,-2.9792,-2.9792,-2.9792,-2.9792,-2.9792,-3.0343,-3.1315,-3.2249,-3.3171,-3.4163,0.0,0.0,0.0,0.0,0.0,0.0,0.0,0.0,0.0,0.0,0.0,0.0,0.0,0.0,0.0,0.0,0.0,0.0,0.0,0.0,0.0,0.0,0.0,0.0,0.0,0.0,0.0,0.0,0.0,0.0,0.0,0.0,0.0,0.0,0.0,0.0,0.0,0.0,0.0,0.0,0.0,0.0,0.0,0.0,0.0,0.0,0.0,0.0,0.0,-3.1117,-3.1424,-3.2236,-3.2321,-3.2399,-3.2478,-3.2461,-3.2007,-3.1467,-3.1351,-3.1351,-3.097,-2.9254,-2.8812,-2.8427,-2.685,-2.6533,-2.6164,-2.5004,-2.4464,-2.3853,-2.3154,-2.153,-2.0149,-1.9545,0.0,-1.7037,-1.592,-1.5832,-1.5832,-1.5832,-1.5832,-1.5832,-1.5832,-1.5832,-1.5832,-1.5832,-1.685,-1.8495,-2.0935,-2.1391,-2.2031,-2.3047,-2.3135,-2.3135,-2.3135,-2.3135,-2.3135,-2.3135,-2.54,-2.6483,-2.6565,-2.8791,-2.9792,-2.9792,0.0,0.0,-2.9792,-2.9792,-2.9792,-2.9792,-2.9934,-3.0558,-3.1536,-3.2464,-3.3394,-3.4312,0.0,0.0,0.0,0.0,0.0,0.0,0.0,0.0,0.0,0.0,0.0,0.0,0.0,0.0,0.0,0.0,0.0,0.0,0.0,0.0,0.0,0.0,0.0,0.0,0.0,0.0,0.0,0.0,0.0,0.0,0.0,0.0,0.0,0.0,0.0,0.0,0.0,0.0,0.0,0.0,0.0,0.0,0.0,0.0,0.0,0.0,0.0,0.0,-3.1702,0.0,-3.0724,-3.1352,-3.1,-3.1296,-3.1766,-3.1687,-3.1582,-3.1351,-3.0703,-3.0524,-3.0072,-2.8363,-2.792,-2.767,-2.6714,-2.6533,0.0,-2.4108,-2.3666,-2.3209,-2.1789,-1.9967,-1.8717,-1.8896,-1.7305,-1.6015,-1.5832,-1.5832,-1.5832,0.0,-1.5832,-1.5832,-1.5832,-1.5832,0.0,0.0,0.0,-1.721,-1.967,-2.1676,-2.2862,-2.3047,-2.3135,-2.3135,-2.3135,-2.3135,-2.3135,-2.3135,-2.54,-2.6483,-2.6565,-2.8791,-2.9792,-2.9792,0.0,0.0,-2.9792,-2.9792,-2.9792,-2.9869,-3.062,-3.1536,-3.2464,-3.338,-3.4394,-3.5279,0.0,0.0,0.0,0.0,0.0,0.0,0.0,0.0,0.0,0.0,0.0,0.0,0.0,0.0,0.0,0.0,0.0,0.0,0.0,0.0,0.0,0.0,0.0,0.0,0.0,0.0,-0.7042,-0.1908,0.0,0.0,0.0,0.0,0.0,0.0,0.0,0.0,0.0,0.0,0.0,0.0,0.0,0.0,0.0,0.0,0.0,0.0,0.0,0.0,-3.0723,-2.9959,-2.9518,-2.939,-2.9858,-3.051,-3.1016,-3.0939,-3.0896,-3.0777,-3.0389,-2.995,-2.9442,-2.862,-2.8051,-2.7484,-2.6658,-2.6094,-2.5288,-2.3818,-2.3073,-2.2239,-2.0694,-1.919,-1.8183,-1.7998,-1.6722,-1.5832,-1.5832,-1.5832,-1.5832,-1.5832,-1.5832,-1.5832,0.0,-1.5832,0.0,0.0,0.0,-1.7584,-1.9405,-2.1774,-2.3135,-2.3135,-2.3135,-2.3135,-2.3135,-2.3135,-2.3135,-2.3135,-2.54,-2.6483,-2.6565,-2.8791,-2.9792,-2.9792,-2.9792,0.0,-2.9792,-2.9792,-3.0075,-3.0558,-3.1044,-3.2105,-3.338,-3.3808,-3.4624,-3.5504,0.0,0.0,0.0,0.0,0.0,0.0,0.0,0.0,0.0,0.0,0.0,0.0,0.0,0.0,0.0,0.0,0.0,0.0,0.0,0.0,0.0,0.0,0.0,0.0,0.0,0.0,0.0,-1.3856,-1.5044,0.0,0.0,0.0,0.0,0.0,-2.5526,0.0,0.0,0.0,0.0,0.0,0.0,0.0,0.0,0.0,0.0,0.0,0.0,0.0,-2.9985,-2.9403,-2.8591,-2.7971,-2.886,-2.9555,-3.0009,-3.0058,-3.0033,-2.995,-2.9766,-2.938,-2.8939,-2.8556,-2.8051,-2.7404,-2.6427,-2.5581,-2.4636,-2.3441,-2.2553,-2.1446,-1.9749,-1.8793,-1.7985,0.0,-1.6408,-1.5832,-1.5832,-1.5832,-1.5832,-1.5832,-1.5832,0.0,-1.5832,-1.5832,0.0,0.0,0.0,0.0,-1.9852,-2.1952,-2.3135,-2.3135,-2.3135,-2.3135,-2.3135,-2.3135,-2.3135,-2.3135,-2.54,-2.6483,-2.6565,-2.8791,-2.9792,-2.9792,-2.9792,0.0,0.0,-2.9792,-3.0203,-3.097,-3.1315,-3.2393,-3.3739,-3.4177,-3.4839,-3.5504,0.0,0.0,0.0,0.0,0.0,0.0,0.0,0.0,0.0,0.0,0.0,0.0,0.0,0.0,0.0,0.0,0.0,0.0,0.0,0.0,0.0,0.0,0.0,0.0,0.0,0.0,0.0,-2.5037,-2.5858,0.0,0.0,0.0,0.0,0.0,0.0,-2.9897,-3.1456,0.0,0.0,0.0,0.0,0.0,0.0,0.0,0.0,0.0,0.0,-3.1074,-3.0107,-2.895,-2.8511,-2.8345,-2.7856,-2.8076,-2.8598,-2.9232,-2.9252,-2.8939,-2.8182,-2.8427,-2.862,-2.7095,-2.7229,-2.7258,-2.5557,-2.5087,-2.448,-2.2553,-2.2027,-2.1431,-1.939,-1.8622,-1.7826,-1.68,-1.6176,-1.5832,-1.5832,-1.5832,-1.5832,-1.5832,0.0,0.0,-1.5832,-1.5832,0.0,0.0,0.0,0.0,0.0,-2.2403,-2.3135,-2.3135,-2.3135,-2.3135,-2.3135,-2.3135,-2.3135,-2.3135,-2.54,-2.6483,-2.6565,-2.8791,-2.9792,-2.9792,0.0,0.0,0.0,-2.9792,-2.9869,-3.0075,-3.1829,-3.2593,-3.2961,-3.4706,-3.5424,-3.5504,0.0,0.0,0.0,0.0,0.0,0.0,0.0,0.0,0.0,0.0,0.0,0.0,0.0,0.0,0.0,0.0,0.0,0.0,0.0,0.0,0.0,0.0,0.0,0.0,0.0,0.0,0.0,-2.9675,-2.9525,0.0,0.0,0.0,0.0,0.0,0.0,-3.1318,-3.2188,0.0,0.0,0.0,0.0,0.0,0.0,0.0,0.0,0.0,0.0,0.0,-2.8466,-2.7984,-2.7303,-2.652,-2.5675,-2.5544,-2.5875,-2.7435,-2.7773,-2.7726,-2.7709,-2.7604,-2.7484,-2.7297,-2.6663,-2.5906,-2.5146,-2.4036,-2.2999,-2.2178,-2.1038,-1.9719,-1.8221,-1.7414,-1.6616,-1.5793,-1.5565,0.0,-1.5805,-1.5832,-1.5534,-1.4752,-1.5337,0.0,0.0,0.0,0.0,0.0,0.0,0.0,0.0,-2.2041,-2.3135,-2.3135,-2.3135,-2.3135,-2.3135,-2.3135,-2.3135,-2.3135,-2.54,-2.6483,-2.6565,-2.8791,-2.9792,-2.9792,0.0,0.0,0.0,-2.9792,-3.0508,-3.1549,-3.2321,-3.3325,-3.4409,-3.5213,-3.5504,-3.5504,0.0,0.0,0.0,0.0,0.0,0.0,0.0,0.0,0.0,0.0,0.0,0.0,0.0,0.0,0.0,0.0,0.0,0.0,0.0,0.0,0.0,0.0,0.0,0.0,0.0,0.0,0.0,0.0,0.0,-3.044,0.0,0.0,-3.0879,-3.1385,0.0,0.0,0.0,0.0,0.0,0.0,0.0,0.0,0.0,0.0,0.0,0.0,0.0,0.0,0.0,0.0,0.0,-2.4827,-2.3748,-2.3321,-2.3493,-2.5103,-2.5639,-2.581,-2.619,-2.6195,-2.6151,-2.642,-2.5742,-2.4862,-2.4264,-2.2999,-2.18,-2.1268,-1.9963,-1.855,-1.709,-1.646,-1.5871,-1.5089,0.0,-1.5498,-1.5792,-1.5832,-1.5337,-1.407,0.0,-1.4854,0.0,0.0,0.0,0.0,0.0,0.0,0.0,-2.1952,-2.3135,-2.3135,-2.3135,-2.3135,-2.3135,-2.3135,-2.3299,-2.3637,-2.5557,-2.6648,-2.7046,-2.8961,-2.9792,-2.9792,0.0,0.0,0.0,-2.9792,-3.0709,-3.2249,-3.2464,-3.3616,-3.5067,-3.5359,-3.5504,-3.5504,0.0,0.0,0.0,0.0,0.0,0.0,0.0,0.0,0.0,0.0,0.0,0.0,0.0,0.0,0.0,0.0,0.0,0.0,0.0,0.0,0.0,0.0,0.0,0.0,0.0,0.0,0.0,0.0,0.0,0.0,0.0,-3.0897,-3.1463,-3.1813,0.0,0.0,0.0,0.0,0.0,0.0,0.0,0.0,0.0,0.0,0.0,0.0,0.0,0.0,0.0,0.0,0.0,0.0,0.0,-2.1711,-2.1818,0.0,-2.2703,-2.295,-2.295,-2.3966,-2.4791,-2.3818,-2.4264,-2.4492,-2.2478,-2.2027,-2.142,-1.9423,-1.9036,-1.831,-1.6108,-1.5965,-1.5871,-1.5089,-1.5211,0.0,-1.5792,-1.5832,-1.5337,0.0,0.0,-1.3878,0.0,0.0,0.0,0.0,0.0,0.0,0.0,-2.2403,-2.3135,-2.3135,-2.3135,-2.3135,-2.3135,-2.3135,-2.3637,-2.4787,-2.5975,-2.7046,-2.8096,-2.9287,-2.9792,0.0,0.0,0.0,0.0,-2.9792,-3.0343,-3.1315,-3.2249,-3.3171,-3.4163,-3.5133,-3.5504,-3.5504,0.0,0.0,0.0,0.0,0.0,0.0,0.0,0.0,0.0,0.0,0.0,0.0,0.0,0.0,0.0,0.0,0.0,0.0,0.0,0.0,0.0,0.0,0.0,0.0,0.0,0.0,0.0,0.0,0.0,0.0,0.0,0.0,0.0,-2.8664,-2.8664,0.0,0.0,0.0,0.0,0.0,0.0,0.0,0.0,0.0,0.0,0.0,0.0,0.0,0.0,0.0,0.0,0.0,0.0,0.0,0.0,-1.8751,-2.0069,-2.1924,-2.2342,-2.3015,-2.3461,-2.3176,-2.305,-2.2606,-2.1217,-2.0961,-2.045,-1.8301,-1.7827,-1.7415,-1.5944,-1.5132,-1.4799,-1.4972,-1.5037,0.0,0.0,0.0,0.0,-1.2818,-1.3295,0.0,0.0,0.0,0.0,0.0,0.0,0.0,0.0,-2.2041,-2.3135,-2.3135,-2.3135,-2.3135,-2.3135,-2.3877,-2.4457,-2.4787,-2.6696,-2.7763,-2.8176,-2.9287,0.0,0.0,0.0,0.0,0.0,-2.9792,-3.0709,-3.2177,-3.2464,-3.3602,-3.5067,-3.5359,-3.5504,-3.5504,0.0,0.0,0.0,0.0,0.0,0.0,0.0,0.0,0.0,0.0,0.0,0.0,0.0,0.0,0.0,0.0,0.0,0.0,0.0,0.0,0.0,0.0,0.0,0.0,0.0,0.0,0.0,0.0,0.0,0.0,0.0,0.0,0.0,0.0,0.0,0.0,0.0,0.0,0.0,0.0,0.0,0.0,-2.7807,0.0,0.0,0.0,0.0,0.0,0.0,0.0,0.0,0.0,0.0,0.0,0.0,0.0,-1.7458,-1.9196,-1.9634,-2.0493,-2.1115,-2.0759,-2.0722,-2.0507,-1.9506,-1.9316,-1.8868,-1.709,-1.6683,-1.6363,-1.5296,-1.4573,-1.4282,-1.487,-1.4591,0.0,0.0,0.0,0.0,-1.2818,0.0,0.0,0.0,0.0,0.0,0.0,0.0,0.0,0.0,0.0,-2.3135,-2.3135,-2.3135,-2.3135,-2.3135,-2.38,-2.4628,-2.5462,-2.6871,-2.7936,-2.8767,-2.9456,0.0,0.0,0.0,0.0,0.0,-3.0216,-3.1193,-3.2664,-3.2961,-3.4109,-3.5504,-3.5504,-3.5504,-3.5504,0.0,0.0,0.0,0.0,0.0,0.0,0.0,0.0,0.0,0.0,0.0,0.0,0.0,0.0,0.0,0.0,0.0,0.0,0.0,0.0,0.0,0.0,0.0,0.0,0.0,0.0,0.0,0.0,-2.1765,-2.1705,-2.1705,0.0,0.0,0.0,0.0,0.0,0.0,0.0,0.0,0.0,0.0,0.0,0.0,0.0,0.0,0.0,0.0,0.0,0.0,0.0,0.0,0.0,0.0,0.0,0.0,0.0,0.0,0.0,0.0,-1.6879,-1.8038,-1.7105,-1.7761,-1.8435,-1.7398,-1.7253,0.0,-1.5779,-1.5621,-1.5379,-1.4334,-1.4088,-1.4275,-1.4774,-1.3851,0.0,0.0,-1.4364,0.0,0.0,0.0,0.0,0.0,0.0,0.0,0.0,0.0,0.0,0.0,0.0,-2.3135,-2.3135,-2.3135,-2.3135,-2.3135,-2.3222,-2.4392,-2.6483,-2.6648,-2.7799,-2.9792,-2.9792,0.0,0.0,0.0,0.0,0.0,-3.0833,-3.1815,-3.282,-3.3671,-3.461,-3.5504,-3.5504,-3.5504,-3.5504,0.0,0.0,0.0,0.0,0.0,0.0,0.0,0.0,0.0,0.0,0.0,0.0,0.0,0.0,0.0,0.0,0.0,0.0,0.0,0.0,0.0,0.0,0.0,0.0,0.0,0.0,0.0,-2.1913,-2.1891,-2.1868,-2.1879,-2.2058,0.0,0.0,0.0,0.0,0.0,0.0,0.0,0.0,0.0,0.0,0.0,0.0,0.0,0.0,-2.3529,-2.236,0.0,0.0,0.0,0.0,0.0,0.0,0.0,0.0,-1.4027,-1.3897,-1.3323,0.0,-1.6632,-1.642,-1.6988,-1.739,0.0,-1.6683,-1.6772,-1.4901,-1.5137,-1.5379,-1.4334,-1.4088,-1.3926,-1.3572,0.0,0.0,-1.1492,0.0,0.0,-1.368,0.0,0.0,0.0,0.0,0.0,0.0,0.0,0.0,0.0,0.0,-2.3135,-2.3135,-2.3135,-2.3135,-2.3135,-2.4808,-2.5975,-2.6483,-2.8211,-2.93,-2.9792,-2.9792,0.0,0.0,0.0,0.0,-3.0895,-3.1106,-3.2177,-3.3671,-3.3876,-3.461,-3.5504,-3.5504,-3.5504,-3.5504,0.0,0.0,0.0,0.0,0.0,0.0,0.0,0.0,0.0,0.0,0.0,0.0,0.0,0.0,0.0,0.0,0.0,0.0,0.0,0.0,0.0,0.0,0.0,0.0,0.0,0.0,0.0,0.0,0.0,-2.0744,0.0,0.0,0.0,0.0,0.0,0.0,0.0,0.0,0.0,0.0,-2.4466,0.0,0.0,0.0,0.0,0.0,-2.2271,-2.1452,0.0,-1.9679,-1.8033,-1.6416,0.0,0.0,0.0,0.0,-1.3198,-1.3163,-1.2655,-1.366,-1.4794,-1.4794,-1.5298,-1.5711,-1.5144,-1.5387,-1.547,-1.4334,-1.4573,-1.4817,-1.4166,-1.4195,-1.4169,-1.3962,-1.3483,0.0,0.0,0.0,-1.1648,0.0,0.0,0.0,0.0,0.0,0.0,0.0,0.0,0.0,0.0,0.0,-2.2568,-2.2568,-2.2568,-2.2656,-2.2852,-2.4504,-2.5546,-2.58,-2.7496,-2.8546,-2.9013,-2.9013,0.0,0.0,0.0,0.0,-3.1254,-3.1669,-3.2678,-3.4027,-3.4543,-3.4986,-3.5504,-3.5504,-3.5504,-3.5504,0.0,0.0,0.0,0.0,0.0,0.0,0.0,0.0,0.0,0.0,0.0,0.0,0.0,0.0,0.0,0.0,0.0,0.0,0.0,0.0,0.0,0.0,0.0,0.0,0.0,0.0,0.0,0.0,0.0,0.0,0.0,0.0,0.0,0.0,0.0,0.0,0.0,0.0,0.0,0.0,-2.2062,0.0,0.0,0.0,0.0,0.0,0.0,0.0,0.0,-1.9588,-1.7906,-1.617,-1.5939,0.0,0.0,0.0,0.0,0.0,-1.2896,-1.3046,-1.3273,-1.3273,-1.3687,-1.4088,-1.4088,-1.4088,-1.4088,-1.4088,-1.4088,-1.4088,-1.4088,-1.4322,0.0,0.0,0.0,0.0,-1.2302,-1.2042,-1.2431,0.0,0.0,0.0,0.0,0.0,0.0,0.0,0.0,0.0,0.0,0.0,0.0,-2.1885,-2.1885,-2.2031,-2.2314,-2.3515,-2.4551,-2.5237,-2.6259,-2.7186,-2.8109,-2.8109,-2.836,0.0,0.0,0.0,-3.1196,-3.2118,-3.3154,-3.4167,-3.4984,-3.5415,-3.5504,-3.5504,-3.5504,-3.5504,0.0,0.0,0.0,0.0,0.0,0.0,0.0,0.0,0.0,0.0,0.0,0.0,0.0,0.0,0.0,0.0,0.0,0.0,0.0,0.0,0.0,0.0,0.0,0.0,0.0,0.0,0.0,0.0,0.0,0.0,-2.0371,-2.0371,-2.0438,0.0,0.0,0.0,0.0,-2.2559,-2.278,-2.2041,-2.2926,0.0,0.0,0.0,0.0,0.0,0.0,0.0,0.0,-1.976,-1.7906,-1.6211,-1.6154,0.0,0.0,0.0,0.0,0.0,-1.314,-1.3353,-1.3581,-1.3581,-1.3834,-1.4088,-1.4088,-1.4088,-1.4088,-1.4088,-1.4088,-1.4088,-1.4088,-1.4322,-1.4252,0.0,0.0,-1.2485,0.0,0.0,0.0,0.0,0.0,0.0,0.0,0.0,0.0,0.0,0.0,0.0,0.0,0.0,0.0,-2.1885,-2.1885,-2.1738,-2.1435,-2.3658,-2.5317,-2.6259,-2.7347,-2.795,-2.8109,-2.8109,-2.8147,0.0,0.0,-2.9904,-3.0938,-3.1825,-3.3085,-3.4416,-3.4558,-3.4996,-3.5504,-3.5504,-3.5504,-3.5504,0.0,0.0,0.0,0.0,0.0,0.0,0.0,0.0,0.0,0.0,0.0,0.0,0.0,0.0,0.0,0.0,0.0,0.0,0.0,0.0,0.0,0.0,0.0,0.0,0.0,0.0,0.0,0.0,0.0,-2.0566,-2.0566,-2.0566,-2.0566,-2.0644,0.0,0.0,-2.0644,-2.1527,-2.168,-2.1298,0.0,0.0,0.0,0.0,0.0,0.0,0.0,0.0,0.0,0.0,-1.8552,-1.6789,-1.666,0.0,0.0,0.0,0.0,0.0,-1.3447,-1.3661,-1.3881,-1.3881,-1.3988,-1.4088,-1.4088,-1.4088,-1.4088,-1.4088,-1.4088,-1.4088,0.0,0.0,-1.4487,-1.428,0.0,0.0,0.0,0.0,0.0,0.0,0.0,0.0,0.0,0.0,0.0,0.0,0.0,0.0,0.0,0.0,0.0,0.0,-2.1172,-2.1303,-2.1622,-2.333,-2.4423,-2.4883,-2.6467,-2.7218,-2.7218,-2.7218,-2.7381,-2.7729,0.0,-2.9617,-3.0865,-3.1738,-3.2855,-3.3948,-3.3948,-3.4143,-3.4457,-3.4816,-3.4951,-3.4996,0.0,0.0,0.0,0.0,0.0,0.0,0.0,0.0,0.0,0.0,0.0,0.0,0.0,0.0,0.0,0.0,0.0,0.0,0.0,0.0,0.0,0.0,0.0,0.0,0.0,0.0,0.0,-2.0566,-2.0566,-2.0566,-2.0566,-2.0566,-2.0566,0.0,0.0,0.0,-2.0566,-2.0566,-2.0566,-2.0566,0.0,0.0,0.0,0.0,0.0,0.0,0.0,0.0,0.0,0.0,0.0,0.0,0.0,0.0,0.0,-1.348,-1.3574,-1.3748,-1.3748,-1.3915,-1.4088,-1.4088,-1.4088,-1.4088,-1.4088,-1.4088,-1.4088,-1.4088,-1.4088,0.0,0.0,-1.4322,0.0,-1.5211,0.0,0.0,0.0,0.0,0.0,0.0,0.0,0.0,0.0,0.0,0.0,0.0,0.0,0.0,0.0,0.0,0.0,0.0,-2.0566,-2.1078,-2.1952,-2.2999,-2.3599,-2.3891,-2.5652,-2.6533,-2.6533,-2.6533,-2.6691,-2.7163,-2.8179,-2.9281,-3.045,-3.1503,-3.2467,-3.326,-3.326,-3.3365,-3.3559,-3.4068,-3.4358,-3.4604,0.0,0.0,0.0,0.0,0.0,0.0,0.0,0.0,0.0,0.0,0.0,0.0,0.0,0.0,0.0,0.0,0.0,0.0,0.0,0.0,0.0,0.0,0.0,0.0,0.0,-2.2038,-2.1517,-2.0566,-2.0566,-2.0566,-2.0566,-2.0566,-2.0566,-2.0566,0.0,0.0,-2.0566,-2.0566,-2.0566,-2.0566,-2.0566,0.0,0.0,0.0,0.0,0.0,0.0,0.0,0.0,0.0,0.0,0.0,0.0,0.0,-1.4048,-1.4028,-1.4041,-1.4055,-1.4055,-1.4075,-1.4088,-1.4088,-1.4088,-1.4088,-1.4088,-1.4088,-1.4088,-1.4088,-1.4088,0.0,0.0,-1.4322,-1.4623,-1.4943,0.0,0.0,0.0,0.0,0.0,0.0,0.0,0.0,0.0,0.0,0.0,0.0,0.0,0.0,0.0,0.0,0.0,0.0,0.0,-2.1078,-2.1952,-2.2999,-2.3963,-2.4933,-2.5955,-2.6533,-2.6533,-2.6533,-2.6546,-2.6653,-2.8235,-2.9022,-2.9253,-3.0909,-3.1974,-3.2587,-3.2587,-3.2961,-3.3499,-3.3544,-3.394,-3.4531,0.0,0.0,0.0,0.0,0.0,0.0,0.0,0.0,0.0,0.0,0.0,0.0,0.0,0.0,0.0,0.0,0.0,0.0,0.0,0.0,0.0,0.0,0.0,-2.2898,-2.192,-2.1649,-2.1491,-2.1387,-2.1387,-2.1034,-2.0263,-2.1043,0.0,0.0,0.0,0.0,-2.1387,-2.1387,-2.1387,-2.1387,-2.1387,-2.1387,0.0,0.0,0.0,0.0,0.0,0.0,0.0,0.0,-1.9599,-1.839,0.0,-1.6846,-1.5054,-1.5054,-1.4657,-1.4088,-1.4088,-1.4088,-1.4088,-1.4088,-1.4088,-1.4088,-1.4088,-1.4088,-1.4088,-1.4088,-1.4088,0.0,0.0,0.0,-1.4556,0.0,0.0,0.0,0.0,0.0,0.0,0.0,0.0,0.0,0.0,0.0,0.0,0.0,0.0,0.0,0.0,0.0,0.0,0.0,0.0,-2.1172,-2.1533,-2.2753,-2.3594,-2.3961,-2.5691,-2.6533,-2.6533,-2.6533,-2.6782,-2.7284,-2.8492,-2.9317,-2.9889,-3.1029,-3.1616,-3.1898,-3.1898,-3.2063,-3.2332,-3.2736,-3.3036,-3.3363,0.0,0.0,0.0,0.0,0.0,0.0,0.0,0.0,0.0,0.0,0.0,0.0,0.0,0.0,0.0,0.0,0.0,0.0,0.0,0.0,0.0,0.0,0.0,-2.3254,-2.208,-2.1787,-2.1719,-2.1885,-2.1534,-2.1089,-2.0643,0.0,0.0,0.0,0.0,0.0,0.0,-2.1885,-2.1885,-2.1885,-2.1885,-2.1885,0.0,0.0,0.0,0.0,0.0,0.0,0.0,0.0,-1.9957,0.0,0.0,0.0,0.0,-1.6191,-1.5711,-1.5068,-1.4741,-1.4573,-1.4489,-1.4166,-1.4088,-1.4088,-1.4088,-1.4088,-1.4088,-1.4088,-1.4088,-1.4088,-1.4088,0.0,0.0,0.0,0.0,0.0,0.0,0.0,0.0,0.0,0.0,0.0,0.0,0.0,0.0,0.0,0.0,0.0,0.0,0.0,0.0,0.0,0.0,-2.0845,-2.1485,-2.2411,-2.3211,-2.3779,-2.5294,-2.6025,-2.6257,-2.6705,-2.7162,-2.7736,-2.8939,-2.9766,-3.0329,-3.1161,-3.1482,-3.1482,-3.1482,-3.1482,-3.1584,-3.2033,-3.2315,-3.2695,0.0,0.0,0.0,0.0,0.0,0.0,0.0,0.0,0.0,0.0,0.0,0.0,0.0,0.0,0.0,0.0,0.0,0.0,0.0,0.0,0.0,0.0,0.0,-2.4218,-2.251,-2.2519,-2.2314,-2.1894,-2.0661,-2.0661,-2.1812,-2.0578,0.0,0.0,0.0,0.0,0.0,0.0,-2.1894,-2.1894,-2.1894,-2.1894,-2.1894,0.0,0.0,0.0,0.0,0.0,0.0,0.0,-2.0203,-1.9045,0.0,0.0,0.0,-1.7334,-1.7342,-1.709,-1.6026,-1.5696,-1.5455,-1.4412,-1.4173,-1.4173,-1.4173,-1.4088,-1.4088,-1.4088,-1.4088,-1.4088,-1.4088,-1.4088,0.0,0.0,0.0,0.0,0.0,0.0,0.0,0.0,0.0,0.0,0.0,0.0,0.0,0.0,0.0,0.0,0.0,0.0,0.0,0.0,0.0,0.0,-2.1956,-2.2024,-2.2931,-2.4808,-2.4808,-2.5084,-2.5611,-2.7077,-2.7657,-2.7789,-2.9566,-3.0329,-3.0389,-3.1161,-3.1482,-3.1482,-3.1482,-3.1482,-3.1482,-3.1482,-3.1951,-3.2695,0.0,0.0,0.0,0.0,0.0,0.0,0.0,0.0,0.0,0.0,0.0,0.0,0.0,0.0,0.0,0.0,0.0,0.0,0.0,0.0,0.0,0.0,0.0,0.0,0.0,0.0,-2.2891,-2.2764,-2.2399,-2.1503,0.0,0.0,0.0,-2.0253,0.0,0.0,0.0,0.0,-2.2764,-2.2764,-2.2764,-2.2764,-2.2734,0.0,0.0,0.0,0.0,0.0,0.0,0.0,0.0,0.0,0.0,0.0,0.0,-1.8479,-1.7908,-1.7253,-1.6927,-1.6846,-1.6764,-1.6445,-1.6363,-1.6363,-1.6363,-1.5144,-1.4088,0.0,-1.4088,-1.4088,-1.4088,0.0,0.0,0.0,0.0,0.0,0.0,0.0,0.0,0.0,0.0,0.0,0.0,0.0,0.0,0.0,0.0,0.0,0.0,0.0,0.0,0.0,0.0,0.0,-2.1453,-2.1786,-2.2468,-2.3578,-2.4042,-2.4531,-2.5071,-2.5851,-2.6857,-2.8083,-2.8997,-3.0072,-3.1161,-3.1409,-3.1482,-3.1482,-3.1482,-3.1482,-3.1482,-3.1482,-3.164,-3.2007,0.0,0.0,0.0,0.0,0.0,0.0,0.0,0.0,0.0,0.0,0.0,0.0,0.0,0.0,0.0,0.0,0.0,0.0,0.0,0.0,0.0,0.0,0.0,0.0,0.0,-2.3135,-2.3135,0.0,0.0,0.0,0.0,0.0,0.0,-2.0944,0.0,-2.3135,0.0,0.0,-2.3135,-2.3135,-2.3135,-2.3135,-2.3105,0.0,0.0,0.0,0.0,0.0,0.0,0.0,0.0,0.0,-2.1494,0.0,-2.0155,-1.9906,-1.9361,-1.8753,-1.8103,-1.7989,-1.7908,-1.7423,-1.7342,-1.7342,-1.7342,0.0,0.0,0.0,-1.5387,-1.5228,-1.4817,0.0,0.0,0.0,0.0,0.0,0.0,0.0,0.0,0.0,0.0,0.0,0.0,0.0,0.0,0.0,0.0,0.0,0.0,0.0,0.0,0.0,0.0,0.0,-2.0434,-2.1058,-2.1803,-2.2641,-2.3293,-2.3828,-2.4167,-2.5307,-2.6704,-2.8255,-2.9482,-3.0584,-3.1482,-3.1482,-3.1482,-3.1482,-3.1482,-3.1482,-3.1482,-3.1482,-3.1482,-3.1682,0.0,0.0,0.0,0.0,0.0,0.0,0.0,0.0,0.0,0.0,0.0,0.0,0.0,0.0,0.0,0.0,0.0,0.0,0.0,0.0,0.0,0.0,0.0,0.0,0.0,0.0,0.0,0.0,0.0,0.0,0.0,0.0,-2.2031,-2.295,0.0,-2.3135,0.0,0.0,-2.3135,-2.3135,-2.3135,-2.3135,-2.3135,-2.3135,0.0,0.0,0.0,0.0,0.0,0.0,0.0,0.0,-2.1943,-2.1914,-2.1807,-2.1416,-2.1289,-2.0951,-1.9617,-1.9179,-1.8922,-1.7827,-1.761,-1.7635,-1.7635,-1.7635,-1.7619,-1.7342,0.0,-1.7009,-1.6026,0.0,0.0,0.0,0.0,0.0,0.0,0.0,0.0,0.0,0.0,0.0,0.0,0.0,0.0,0.0,0.0,0.0,0.0,0.0,0.0,0.0,0.0,0.0,-1.9431,-2.0204,-2.1037,0.0,-2.2763,-2.3078,-2.3163,-2.5123,-2.6816,-2.8437,-3.0485,-3.1422,-3.1482,-3.1482,-3.1482,-3.1482,-3.1482,-3.1482,-3.1482,-3.1482,-3.1482,-3.1682,0.0,0.0,0.0,0.0,0.0,0.0,0.0,0.0,0.0,0.0,0.0,0.0,0.0,0.0,0.0,0.0,0.0,0.0,0.0,0.0,0.0,0.0,0.0,0.0,0.0,0.0,0.0,0.0,0.0,0.0,0.0,0.0,0.0,-2.1756,0.0,-2.3135,0.0,-2.3135,-2.3135,-2.3135,-2.3135,-2.3135,-2.3135,-2.3135,-2.3135,0.0,0.0,0.0,0.0,0.0,0.0,0.0,-2.2373,-2.2148,-2.1865,-2.1777,-2.1748,-2.1568,-2.088,-2.0764,-2.0598,-1.9998,-2.0099,-2.0344,-2.0344,-2.0344,-1.9758,-1.7725,-1.7342,-1.7253,0.0,0.0,0.0,0.0,0.0,0.0,0.0,0.0,0.0,0.0,0.0,0.0,0.0,0.0,0.0,0.0,0.0,0.0,0.0,0.0,0.0,0.0,0.0,-1.8721,-2.0333,-2.0526,-2.1353,0.0,-2.3005,-2.3078,-2.315,-2.4658,-2.6666,-2.9156,-3.0245,-3.1031,-3.1482,-3.1482,-3.1482,-3.1482,-3.1482,-3.1482,-3.1482,-3.1482,-3.1482,-3.164,0.0,0.0,0.0,0.0,0.0,0.0,0.0,0.0,0.0,0.0,0.0,0.0,0.0,0.0,0.0,0.0,0.0,0.0,0.0,0.0,0.0,0.0,0.0,0.0,0.0,0.0,0.0,0.0,0.0,0.0,0.0,0.0,0.0,-2.2208,0.0,-2.3135,0.0,-2.3135,-2.3135,-2.3135,-2.3135,-2.3135,-2.3135,-2.3135,-2.3135,-2.3135,-2.3135,0.0,0.0,0.0,0.0,0.0,0.0,0.0,-2.2441,-2.2246,-2.2187,-2.209,-2.166,-2.1553,-2.1494,-2.126,0.0,-2.1494,-2.1279,-2.123,-2.0774,-1.9197,-1.8868,0.0,0.0,0.0,0.0,0.0,0.0,0.0,0.0,0.0,0.0,0.0,0.0,0.0,0.0,0.0,0.0,0.0,0.0,0.0,0.0,-1.8008,-1.8008,0.0,-1.8008,-1.8664,-1.9944,-2.0398,-2.1227,-2.2506,-2.2944,-2.3305,-2.3734,-2.5109,-2.6699,-2.8525,-2.9888,-3.0717,-3.1061,-3.1405,-3.1482,-3.1482,-3.1482,-3.1482,-3.1482,-3.1482,-3.1739,-3.212,0.0,0.0,0.0,0.0,0.0,0.0,0.0,0.0,0.0,0.0,0.0,0.0,0.0,0.0,0.0,0.0,0.0,0.0,0.0,0.0,0.0,0.0,0.0,0.0,0.0,0.0,0.0,0.0,0.0,0.0,0.0,0.0,0.0,-2.3135,0.0,0.0,0.0,-2.3135,-2.3135,-2.3135,-2.3135,-2.3135,-2.3135,-2.3299,-2.3387,-2.3387,-2.3637,-2.3724,-2.38,-2.4798,0.0,0.0,0.0,0.0,-2.3404,-2.3218,-2.2948,-2.2529,-2.234,-2.2099,-2.1904,-2.1982,-2.1992,0.0,-2.1445,-2.1348,-2.1201,-2.0674,-2.0566,0.0,0.0,0.0,0.0,0.0,0.0,0.0,0.0,0.0,0.0,0.0,0.0,0.0,0.0,0.0,0.0,0.0,0.0,0.0,-1.8008,-1.8008,-1.8008,-1.8008,-1.8008,-1.8462,-1.9497,-2.0268,-2.1101,-2.2137,-2.2763,-2.3531,-2.4363,-2.5638,-2.6708,-2.7559,-2.923,-3.0186,-3.0552,-3.112,-3.1377,-3.1482,-3.1482,-3.1482,-3.1539,-3.164,-3.2064,-3.2695,0.0,0.0,0.0,0.0,0.0,0.0,0.0,0.0,0.0,0.0,0.0,0.0,0.0,0.0,0.0,0.0,0.0,0.0,-2.8176,0.0,0.0,-2.3135,0.0,0.0,0.0,0.0,0.0,0.0,0.0,0.0,0.0,0.0,0.0,-2.3135,0.0,0.0,0.0,-2.3135,-2.3135,-2.3135,-2.3135,-2.3135,-2.3222,-2.4211,-2.4542,-2.4713,-2.5724,-2.6069,-2.6058,-2.6224,-2.6141,0.0,0.0,0.0,-2.4787,-2.5648,-2.4555,-2.3122,-2.3742,-2.296,-2.1973,-2.2334,-2.2432,-2.2314,0.0,0.0,-2.1562,0.0,0.0,0.0,0.0,0.0,0.0,0.0,0.0,0.0,0.0,0.0,0.0,0.0,0.0,0.0,0.0,0.0,0.0,0.0,0.0,0.0,-1.8008,-1.8008,-1.8008,-1.8008,-1.8008,-1.8787,-2.0398,-2.0526,-2.1416,-2.2944,-2.3078,-2.3531,-2.435,-2.5145,-2.6259,-2.7515,-2.7799,-2.8884,-3.0507,-3.0612,-3.1001,-3.1482,-3.1482,-3.1482,-3.1582,-3.2216,-3.2547,-3.2695,0.0,0.0,0.0,0.0,0.0,0.0,0.0,0.0,0.0,0.0,0.0,0.0,0.0,0.0,0.0,-3.0558,-3.0075,-2.904,-2.729,-2.5136,-2.3637,-2.3135,-2.3135,0.0,0.0,0.0,0.0,0.0,0.0,0.0,0.0,-2.3135,-2.3135,0.0,0.0,0.0,0.0,0.0,-2.3714,-2.3222,-2.4478,-2.4638,-2.4211,-2.5305,-2.5714,-2.5797,-2.6307,-2.6483,-2.6554,-2.7197,-2.6964,-2.6637,-2.7209,0.0,0.0,0.0,-2.5808,-2.4925,-2.463,-2.4022,-2.3446,0.0,-2.2685,-2.2402,-2.1982,-2.1699,-2.1338,0.0,0.0,0.0,0.0,0.0,0.0,0.0,0.0,0.0,0.0,0.0,0.0,0.0,0.0,0.0,0.0,0.0,0.0,0.0,0.0,-1.8008,-1.8008,-1.8008,-1.8008,-1.8008,-1.8008,-1.8854,-2.059,-2.059,-2.1416,-2.3078,-2.3078,-2.3305,-2.3649,-2.4452,-2.555,-2.6996,-2.7749,-2.8625,-2.949,-3.0208,-3.0687,-3.1001,-3.1317,-3.1482,-3.1582,-3.2327,-3.2841,-3.3251,0.0,0.0,0.0,0.0,0.0,0.0,0.0,0.0,0.0,0.0,0.0,0.0,0.0,0.0,0.0,0.0,-2.9792,-2.887,-2.6648,-2.4392,-2.3135,-2.3135,-2.3135,-2.3135,0.0,0.0,0.0,0.0,0.0,0.0,-2.3135,-2.3135,-2.3135,0.0,-2.3135,-2.3222,0.0,-2.4457,-2.4467,-2.4145,-2.5808,-2.5975,-2.5378,-2.6461,-2.6883,-2.6964,-2.7221,-2.7313,-2.7464,-2.8267,-2.8028,-2.7464,-2.8267,-2.7775,0.0,0.0,0.0,-2.6625,-2.5546,-2.521,-2.4967,-2.38,-2.3232,-2.272,0.0,0.0,-2.1103,0.0,0.0,0.0,0.0,0.0,0.0,0.0,0.0,0.0,0.0,0.0,0.0,0.0,0.0,0.0,0.0,0.0,0.0,0.0,0.0,-1.8008,-1.8008,-1.8008,-1.8008,-1.8008,-1.8008,-1.8854,-2.059,-2.1037,-2.1865,-2.3078,-2.3078,-2.3078,-2.3138,-2.4105,-2.5175,-2.6312,-2.751,-2.8271,-2.8667,-2.9624,-3.0208,-3.0552,-3.1076,-3.1375,-3.1582,-3.2532,-3.3182,-3.3735,0.0,0.0,0.0,0.0,0.0,0.0,0.0,0.0,0.0,0.0,0.0,0.0,-3.282,-3.2593,-3.1829,-2.9934,-2.9792,-2.887,-2.6648,-2.4392,-2.3135,-2.3135,-2.3135,0.0,-2.3135,0.0,0.0,0.0,0.0,0.0,-2.3135,-2.3135,-2.3135,-2.3135,-2.3135,-2.3714,-2.4702,-2.4787,-2.5378,-2.6307,-2.6472,-2.6472,-2.6554,-2.7602,-2.8004,-2.8176,-2.9197,-2.9624,-2.9624,-2.9702,-2.9702,-2.9624,-2.9702,-2.8937,-2.8267,0.0,0.0,0.0,-2.6719,-2.6389,0.0,-2.4957,-2.4367,-2.3681,0.0,0.0,0.0,0.0,0.0,0.0,0.0,0.0,0.0,0.0,0.0,0.0,0.0,0.0,0.0,0.0,0.0,0.0,0.0,0.0,0.0,0.0,0.0,-1.8008,-1.8008,-1.8008,-1.8008,-1.8008,-1.8008,-1.8854,-2.059,-2.2187,-2.3005,-2.3078,-2.3078,-2.3078,-2.3125,-2.4667,-2.5398,-2.5508,-2.6258,-2.7354,-2.8607,-2.8667,-2.9415,-3.0507,-3.0537,-3.0956,-3.1682,-3.3024,-3.3582,-3.3786,0.0,0.0,0.0,0.0,0.0,0.0,0.0,0.0,0.0,0.0,0.0,0.0,0.0,-3.2593,-3.1829,-2.9934,-2.9106,-2.8108,-2.6565,-2.5052,-2.3877,-2.3135,-2.3135,-2.3135,-2.3135,0.0,0.0,0.0,0.0,-2.3135,-2.3135,-2.3887,-2.4211,-2.4211,-2.4211,-2.4457,-2.4872,-2.6356,0.0,0.0,0.0,0.0,-2.7614,-2.8779,0.0,0.0,0.0,0.0,-2.9792,-2.9792,-2.9792,-2.9792,-2.9792,-2.9534,-2.9275,-2.9702,-2.9534,-2.8949,-2.7855,0.0,0.0,-2.613,-2.5289,-2.4426,-2.3234,-2.2306,0.0,0.0,0.0,0.0,0.0,0.0,0.0,0.0,0.0,0.0,0.0,0.0,0.0,0.0,0.0,0.0,0.0,0.0,0.0,0.0,0.0,0.0,-1.8008,-1.8008,-1.8008,-1.8008,-1.8519,-1.9683,-2.1428,-2.2567,-2.3078,-2.3078,-2.3078,-2.3365,-2.3884,-2.4951,-2.5673,-2.6176,-2.6878,-2.749,-2.7979,-2.8412,-2.8876,-2.9355,-3.0178,-3.0657,-3.108,-3.2903,-3.3582,-3.3786,0.0,0.0,0.0,0.0,0.0,0.0,0.0,0.0,0.0,0.0,0.0,0.0,0.0,0.0,-3.1829,-2.9934,-2.8767,-2.7775,-2.7035,-2.5619,-2.4457,-2.3714,-2.3299,-2.3135,-2.3135,0.0,0.0,0.0,0.0,0.0,0.0,-2.4798,-2.5378,-2.5378,-2.5786,-2.5942,0.0,0.0,0.0,-2.7718,0.0,0.0,-2.8767,0.0,0.0,0.0,0.0,0.0,0.0,-2.9792,-2.9792,-2.9792,-2.9792,-2.9792,-2.9792,-2.9792,-2.9792,-2.9624,-2.8858,-2.8688,-2.839,0.0,-2.6153,-2.5258,-2.4002,0.0,0.0,0.0,0.0,0.0,0.0,0.0,0.0,0.0,0.0,0.0,0.0,0.0,0.0,0.0,0.0,0.0,0.0,0.0,0.0,0.0,0.0,0.0,-1.8395,-1.8462,-1.8596,-1.8844,-1.9694,-2.0719,-2.1877,-2.2702,-2.3078,-2.3078,-2.3078,-2.3365,-2.3943,-2.4951,-2.5673,-2.6176,-2.7188,-2.7625,-2.7655,-2.8068,-2.8397,-2.8682,-2.9535,-3.0118,-3.0704,-3.2593,-3.339,-3.3786,0.0,0.0,0.0,0.0,0.0,0.0,0.0,0.0,0.0,-3.5504,0.0,0.0,0.0,0.0,0.0,-2.9934,-2.8767,-2.8176,-2.8096,-2.6108,-2.4872,-2.4872,-2.38,-2.3222,-2.3222,0.0,0.0,0.0,0.0,0.0,0.0,0.0,-2.6554,-2.6554,-2.7695,-2.8176,-2.8176,0.0,-2.8767,-2.9792,0.0,-2.9792,-2.9792,0.0,0.0,0.0,-2.9792,-2.9792,0.0,-2.9792,0.0,0.0,0.0,-2.9792,-2.9792,-2.9792,-2.9792,-2.9792,0.0,0.0,0.0,0.0,0.0,0.0,-2.4593,0.0,0.0,0.0,0.0,0.0,0.0,0.0,0.0,0.0,0.0,0.0,0.0,0.0,0.0,0.0,0.0,0.0,0.0,0.0,0.0,0.0,0.0,-1.8462,-1.9299,-1.9354,-1.9738,-2.0568,-2.1393,-2.183,-2.1892,-2.264,-2.3027,-2.3053,-2.3113,-2.3113,-2.3185,-2.4724,-2.5453,-2.5563,-2.6967,-2.7625,-2.7625,-2.7625,-2.7964,-2.8577,-2.8592,-2.937,-3.0629,-3.2073,-3.3024,-3.3786,0.0,0.0,0.0,0.0,0.0,0.0,0.0,0.0,0.0,0.0,0.0,0.0,-3.282,-3.1415,-3.0355,-2.9869,-2.9534,-2.8937,-2.8176,-2.751,-2.686,-2.6058,-2.5724,-2.5568,-2.5568,0.0,0.0,0.0,0.0,0.0,0.0,0.0,0.0,0.0,-2.8858,-2.9365,-2.9365,-2.9365,0.0,-2.9792,-2.9792,-2.9792,0.0,0.0,0.0,0.0,0.0,-2.9792,-2.9792,0.0,-2.9792,-2.9792,0.0,-2.9792,-2.9792,-2.9792,-2.9792,-2.9792,-2.9792,0.0,0.0,0.0,0.0,0.0,0.0,0.0,0.0,0.0,0.0,0.0,0.0,0.0,0.0,0.0,0.0,0.0,0.0,0.0,0.0,0.0,0.0,0.0,0.0,0.0,0.0,0.0,-2.0009,-2.002,-2.0204,-1.9863,-1.9979,-2.0845,-2.0735,-2.0971,-2.1589,-2.1831,-2.2146,-2.2535,-2.3077,-2.3857,-2.4781,-2.5783,-2.6496,-2.7019,-2.7408,-2.7625,-2.7625,-2.7625,-2.7679,-2.7904,-2.8412,-2.9101,-3.0096,-3.1899,-3.3024,-3.3786,0.0,0.0,0.0,0.0,0.0,0.0,0.0,0.0,0.0,0.0,0.0,0.0,-3.282,-3.1267,-3.0203,-2.9869,-2.9792,-2.9534,-2.8846,-2.8347,-2.7844,-2.7197,-2.6719,-2.6483,-2.6483,0.0,0.0,0.0,0.0,0.0,0.0,0.0,0.0,0.0,0.0,0.0,0.0,0.0,0.0,0.0,-2.9792,0.0,0.0,-2.9792,-2.9792,0.0,0.0,0.0,-2.9792,-2.9792,-2.9792,0.0,0.0,0.0,0.0,0.0,0.0,-2.9792,-2.9792,-2.9792,-2.9591,0.0,0.0,0.0,-2.6417,-2.5871,0.0,0.0,0.0,0.0,0.0,0.0,0.0,0.0,0.0,0.0,0.0,0.0,0.0,0.0,0.0,0.0,0.0,0.0,0.0,-2.1164,-2.0782,-2.0782,-2.1101,-2.0545,-2.0635,-2.1498,-2.1046,-2.1006,-2.1493,-2.1493,-2.1812,-2.2342,-2.2763,-2.3715,-2.5011,-2.5763,-2.646,-2.7152,-2.7473,-2.7625,-2.7625,-2.7625,-2.7625,-2.7655,-2.8008,-2.877,-2.977,-3.1559,-3.2756,-3.3746,0.0,0.0,0.0,0.0,0.0,0.0,0.0,0.0,0.0,0.0,0.0,-3.4742,-3.2917,-3.1904,-3.1029,-3.0033,-2.9967,-2.9942,-2.9892,-2.8943,-2.8327,-2.8267,-2.7371,-2.6894,-2.6894,-2.6894,0.0,0.0,0.0,0.0,0.0,0.0,0.0,0.0,0.0,0.0,0.0,0.0,0.0,-2.9934,-2.9869,-2.9792,0.0,0.0,-2.9856,-2.9934,-2.9869,-2.9869,-2.9934,-2.9869,-2.9792,0.0,0.0,0.0,0.0,0.0,-2.9792,-2.9792,-2.9792,-2.9792,-2.9528,0.0,0.0,0.0,-2.6773,-2.6658,-2.6782,0.0,0.0,0.0,0.0,0.0,0.0,0.0,0.0,0.0,0.0,0.0,0.0,0.0,0.0,0.0,0.0,-2.1553,-2.2002,-2.2002,-2.1302,-2.1239,-2.2002,-2.1487,-2.1474,-2.2163,-2.1681,-2.1368,-2.1305,-2.1415,-2.1703,-2.2325,-2.2472,-2.3191,-2.4468,-2.5269,-2.5951,-2.6567,-2.7276,-2.7625,-2.7625,-2.766,-2.771,-2.771,-2.771,-2.8503,-2.9744,-3.1182,-3.2461,-3.3683,-3.6737,0.0,0.0,0.0,0.0,0.0,0.0,0.0,0.0,-3.5504,-3.528,-3.4636,-3.3398,-3.2898,-3.2215,-3.1153,-3.1085,-3.0896,-3.0482,-3.0273,-2.9915,-2.9468,-2.9287,-2.9131,-2.9131,-2.9131,0.0,0.0,0.0,0.0,0.0,0.0,0.0,0.0,0.0,0.0,0.0,0.0,0.0,-3.0833,-3.0062,0.0,-2.9792,-2.9792,-3.0279,-3.0833,-3.0075,-3.0279,-3.0833,-3.0075,-2.9792,-2.9792,0.0,0.0,0.0,-2.9792,0.0,0.0,0.0,0.0,0.0,0.0,0.0,0.0,-2.6911,-2.7537,-2.8298,0.0,0.0,0.0,0.0,0.0,0.0,0.0,0.0,0.0,0.0,0.0,0.0,0.0,0.0,0.0,0.0,-2.275,-2.2884,-2.2884,-2.2689,-2.2689,-2.2884,-2.2362,-2.1923,-2.1669,-2.1117,-2.0602,-2.0137,-2.0694,-2.1223,-2.1773,-2.2928,-2.3794,-2.4519,-2.5815,-2.6451,-2.6614,-2.7285,-2.7625,-2.7625,-2.814,-2.8319,-2.8319,-2.8319,-2.9106,-3.0402,-3.1808,-3.2804,-3.3683,-3.6843,0.0,0.0,0.0,0.0,0.0,0.0,0.0,0.0,-3.5998,-3.6088,-3.5805,-3.4838,-3.4087,-3.3298,-3.2316,-3.1699,-3.1286,-3.1022,-3.0997,-3.0884,-3.0595,-3.0344,-3.0206,-3.0206,-2.993,-2.9792,0.0,0.0,0.0,0.0,0.0,0.0,0.0,0.0,0.0,0.0,0.0,-3.0482,-3.0482,-3.0482,0.0,-3.1206,-3.1206,-3.1476,-3.1829,-3.1341,-3.1476,-3.1829,-3.1341,-3.0921,0.0,0.0,-3.0921,-3.0558,0.0,-3.1206,-3.1206,0.0,0.0,0.0,-3.017,0.0,0.0,0.0,-2.8644,-2.8876,-2.8427,0.0,0.0,0.0,0.0,0.0,0.0,0.0,0.0,0.0,0.0,0.0,0.0,0.0,0.0,0.0,-2.4266,-2.4266,-2.4266,-2.4266,-2.4266,-2.4266,-2.3712,-2.3131,-2.2564,-2.197,-2.1363,-2.0756,-2.1099,-2.1553,-2.2159,-2.2875,-2.3641,-2.4578,-2.5263,-2.5974,-2.6602,-2.6946,-2.726,-2.7675,-2.8238,-2.8701,-2.8966,-2.8966,-2.9523,-3.0465,-3.1555,-3.2608,-3.3579,-3.7128,0.0,0.0,0.0,0.0,0.0,0.0,0.0,0.0,-3.6656,-3.721,-3.7223,-3.623,-3.5515,-3.4685,-3.3724,-3.2787,0.0,-3.2175,-3.2013,-3.1813,-3.1711,-3.1065,-3.0721,-3.062,-3.0181,-2.9892,0.0,0.0,0.0,0.0,0.0,0.0,0.0,0.0,0.0,0.0,0.0,0.0,-3.0633,0.0,-3.196,-3.2321,-3.2522,-3.2749,-3.289,-3.289,-3.2749,-3.2593,-3.2393,-3.196,-3.1609,-3.2177,-3.196,0.0,0.0,0.0,0.0,0.0,0.0,0.0,0.0,0.0,-3.0846,0.0,0.0,0.0,-2.9254,0.0,0.0,0.0,0.0,0.0,0.0,0.0,0.0,0.0,0.0,0.0,0.0,0.0,0.0,0.0,-2.5398,-2.5398,-2.5398,-2.5398,-2.5398,-2.5398,-2.4914,-2.4321,-2.3616,-2.3156,-2.2519,-2.171,-2.1852,-2.2146,-2.2694,-2.283,-2.3391,-2.4388,-2.4522,-2.5317,-2.6585,-2.6576,-2.7094,-2.7993,-2.8463,-2.9012,-2.9585,-2.9585,-2.9935,-3.0559,-3.1314,-3.2336,-3.3508,-3.7978,-3.71,0.0,0.0,0.0,0.0,0.0,0.0,0.0,-3.724,-3.7868,-3.789,-3.6808,-3.7103,-3.6977,-3.5926,0.0,0.0,-3.4963,-3.4059,-3.329,-3.2804,-3.1877,-3.1085,-3.062,-3.0557,-3.0281,-2.9792,0.0,0.0,0.0,0.0,0.0,0.0,-3.2321,0.0,0.0,0.0,-3.289,0.0,-3.3671,-3.2749,0.0,-3.2321,-3.3101,-3.3808,-3.3808,-3.331,-3.2464,0.0,-3.1815,-3.2321,0.0,-3.1888,-3.2464,-3.2593,0.0,0.0,0.0,0.0,0.0,0.0,-3.1861,0.0,0.0,0.0,-3.1029,-3.0329,0.0,0.0,0.0,0.0,0.0,0.0,0.0,0.0,0.0,0.0,0.0,0.0,0.0,0.0,0.0,0.0,-2.5398,-2.5398,-2.5398,-2.5398,-2.5398,-2.5329,-2.4776,-2.3644,-2.3533,-2.2912,-2.171,-2.23,-2.2603,-2.2694,-2.3246,-2.3553,-2.3729,-2.4358,-2.5303,-2.65,-2.6542,-2.7593,-2.918,-2.9271,-2.9673,-3.0208,-3.0208,-3.0576,-3.1196,-3.1921,-3.2705,-3.3508,-3.8652,-3.7847,-3.704,0.0,0.0,0.0,0.0,0.0,0.0,0.0,0.0,0.0,0.0,0.0,-3.8753,-3.8331,0.0,-3.664,0.0,0.0,-3.5086,-3.4855,-3.4137,-3.362,-3.3394,-3.2701,-3.2235,-3.1982,-3.199,0.0,0.0,0.0,0.0,0.0,-3.282,0.0,-3.338,0.0,-3.331,0.0,0.0,0.0,0.0,-3.3905,-3.4558,-3.4839,-3.4839,-3.4624,-3.4192,0.0,-3.3547,0.0,0.0,0.0,0.0,0.0,0.0,0.0,0.0,0.0,0.0,0.0,0.0,0.0,-3.214,0.0,-3.1409,0.0,0.0,0.0,0.0,0.0,0.0,0.0,-3.1026,0.0,0.0,0.0,0.0,0.0,0.0,0.0,0.0,0.0,0.0,0.0,0.0,-2.6707,-2.6707,-2.6707,-2.6075,-2.48,-2.4757,-2.4119,-2.2801,-2.3084,-2.3231,-2.3246,-2.3465,-2.3595,-2.361,-2.421,-2.5213,-2.6539,-2.6878,-2.7926,-2.9406,-2.9761,-3.0081,-3.0335,-3.0699,-3.0975,-3.1241,-3.1546,-3.2121,-3.2865,-3.9631,-3.8946,-3.8094,0.0,0.0,0.0,0.0,0.0,0.0,0.0,0.0,0.0,-4.0651,-4.0433,0.0,0.0,-3.9047,-3.838,0.0,0.0,-3.6934,0.0,-3.605,-3.5585,-3.5432,-3.4547,-3.391,-3.3578,-3.335,0.0,0.0,0.0,0.0,0.0,0.0,-3.3754,-3.4394,0.0,-3.4041,-3.3533,-3.492,-3.5067,-3.4461,-3.5213,-3.5504,-3.5504,-3.5504,-3.5504,-3.5439,-3.5213,-3.4773,0.0,-3.492,0.0,0.0,0.0,0.0,0.0,-3.5504,0.0,0.0,0.0,0.0,0.0,0.0,0.0,0.0,0.0,0.0,0.0,0.0,0.0,0.0,0.0,0.0,-3.1587,0.0,0.0,0.0,0.0,0.0,0.0,0.0,0.0,0.0,0.0,-2.7944,-2.7894,-2.8076,-2.776,-2.715,-2.6166,-2.5783,-2.5046,-2.3894,-2.3684,-2.3595,-2.3595,-2.3595,-2.3681,-2.3837,-2.4225,-2.5342,-2.6983,-2.7211,-2.8265,-2.9892,-3.0208,-3.0393,-3.0601,-3.1015,-3.119,-3.119,-3.119,-3.1647,-3.2432,-4.1118,-4.0521,-3.9512,0.0,0.0,0.0,0.0,0.0,0.0,0.0,0.0,0.0,0.0,0.0,0.0,0.0,0.0,-4.1264,-4.1264,0.0,-3.8736,0.0,0.0,-3.5921,-3.5432,-3.5391,-3.4782,-3.3578,-3.4498,0.0,0.0,0.0,0.0,0.0,0.0,-3.5424,-3.5424,-3.5424,-3.5424,-3.5424,-3.5504,-3.5504,-3.5439,0.0,-3.5504,-3.5504,-3.5504,0.0,0.0,-3.4394,-3.4691,0.0,0.0,0.0,0.0,0.0,0.0,0.0,0.0,0.0,0.0,-3.5504,0.0,0.0,0.0,0.0,-3.2302,0.0,0.0,0.0,0.0,0.0,-3.1315,-3.0642,-3.1677,0.0,0.0,0.0,0.0,0.0,0.0,0.0,0.0,0.0,0.0,-2.9361,-2.8779,-2.8732,-2.9316,-2.8207,-2.7527,-2.7442,-2.6228,-2.5285,-2.4552,-2.3924,-2.3595,-2.3595,-2.3595,-2.3879,-2.4389,-2.4389,-2.5775,-2.8118,-2.7542,-2.878,-3.1112,-3.0518,-3.0658,-3.119,-3.119,-3.119,-3.119,-3.119,-3.1647,-3.2456,-4.1931,-4.2142,-4.1598,0.0,0.0,0.0,0.0,-3.9634,0.0,0.0,0.0,0.0,0.0,-4.2417,-4.2671,0.0,0.0,-4.2028,-4.2028,-4.108,0.0,0.0,0.0,-3.8704,0.0,-3.7624,-3.6967,-3.6105,-3.6001,0.0,0.0,0.0,0.0,0.0,0.0,-3.5504,0.0,0.0,0.0,0.0,0.0,-3.5504,-3.5504,0.0,0.0,-3.5504,-3.5504,-3.5504,0.0,-3.5133,-3.5213,-3.5439,-3.5133,-3.5213,-3.5504,-3.5504,-3.5504,0.0,0.0,0.0,-3.5504,-3.5504,0.0,0.0,0.0,0.0,0.0,0.0,0.0,0.0,0.0,0.0,-3.2139,-3.191,-3.267,-3.2819,0.0,0.0,0.0,0.0,0.0,0.0,0.0,0.0,0.0,-2.9406,-2.9225,-2.918,0.0,-2.8996,-2.8573,-2.8116,-2.7658,-2.691,-2.5738,-2.5513,-2.5127,-2.4657,-2.4657,-2.4736,-2.4965,-2.5796,-2.6928,-2.8229,-2.886,-2.9934,-3.119,-3.0975,-3.1015,-3.119,-3.119,-3.119,-3.119,-3.119,-3.1543,-3.2248,-4.2692,-4.3301,0.0,0.0,0.0,0.0,0.0,0.0,0.0,0.0,-4.2183,0.0,-4.2749,0.0,-4.3329,0.0,-4.294,-4.2701,-4.2701,-4.2087,0.0,-4.0771,-4.0531,0.0,0.0,-3.899,-3.8317,-3.7404,-3.7,-3.6372,0.0,0.0,0.0,0.0,0.0,-3.5504,-3.5504,-3.5504,-3.5504,0.0,0.0,-3.5504,0.0,0.0,-3.5504,-3.5504,0.0,-3.5504,-3.5504,-3.5504,-3.5504,-3.5504,-3.5504,-3.5504,-3.5504,-3.5504,-3.5504,-3.5504,-3.5504,-3.5504,0.0,-3.5504,-3.5175,0.0,-3.3709,0.0,0.0,0.0,0.0,0.0,0.0,0.0,-3.2695,-3.2949,-3.3547,-3.3697,0.0,-3.1858,0.0,0.0,0.0,0.0,0.0,0.0,-3.0038,-3.0038,-2.9848,-2.9805,0.0,0.0,-2.9271,-2.9065,-2.8619,-2.7971,-2.7073,-2.6816,-2.6463,-2.5997,-2.5997,-2.6076,-2.6302,-2.7098,-2.8009,-2.8932,-2.9719,-3.0531,-3.119,-3.119,-3.119,-3.119,-3.119,-3.1291,-3.1411,-3.1411,-3.2152,-3.3405,0.0,0.0,0.0,0.0,-4.1534,0.0,0.0,0.0,-4.2088,0.0,-4.3302,-4.3697,-4.3412,-4.3329,-4.3329,-4.3329,-4.3329,-4.3329,-4.3329,-4.2746,0.0,0.0,-4.0786,-4.0127,-3.9439,0.0,-3.8751,-3.7404,-3.7404,0.0,0.0,0.0,0.0,0.0,-3.5504,0.0,-3.5554,-3.5554,-3.5569,-3.5619,-3.5619,-3.5554,-3.5554,-3.5554,0.0,-3.5504,-3.5504,-3.5504,-3.5504,-3.5504,-3.5504,-3.5504,-3.5504,-3.5504,-3.5504,-3.5504,-3.5504,-3.5504,-3.5504,-3.5504,-3.5504,-3.5504,0.0,0.0,0.0,0.0,-3.3456,0.0,0.0,0.0,0.0,0.0,0.0,-3.3547,-3.4121,-3.425,-3.3507,0.0,0.0,0.0,0.0,0.0,0.0,-3.119,-3.119,-3.119,-3.0658,-3.0601,0.0,0.0,-2.9761,-3.0351,-2.9166,-2.8522,-2.849,-2.7856,-2.7517,-2.7469,-2.7469,-2.7729,-2.8252,-2.8285,-2.8948,-3.0108,-3.0142,-3.0548,-3.119,-3.119,-3.119,-3.119,-3.123,-3.147,-3.1861,-3.1861,-3.3439,-3.5612,-4.4282,-4.4451,-4.4632,0.0,-4.35,-4.255,0.0,0.0,0.0,0.0,-4.4486,-4.4536,-4.4419,-4.3771,-4.3329,-4.3329,-4.3329,0.0,0.0,0.0,0.0,-4.1429,-4.122,-4.0591,-3.9454,-3.9424,-3.8751,-3.7404,0.0,0.0,-3.5504,0.0,0.0,0.0,0.0,0.0,-3.6337,-3.6337,-3.6631,-3.7175,-3.7175,-3.6874,0.0,0.0,-3.6006,-3.5504,-3.5504,-3.5504,-3.5504,-3.5504,-3.5504,-3.5504,-3.5504,-3.5504,-3.5504,-3.5504,-3.5504,-3.5504,-3.5504,-3.5504,-3.5504,-3.5504,-3.5879,-3.5968,0.0,0.0,0.0,0.0,0.0,0.0,0.0,0.0,0.0,-3.4333,-3.3997,-3.364,0.0,0.0,0.0,-3.119,0.0,0.0,-3.119,-3.119,-3.119,-3.119,-3.1055,0.0,0.0,0.0,0.0,-3.0958,-3.0637,-3.0246,-2.9671,-2.951,-2.9142,-2.859,-2.859,-2.8682,-2.8811,-2.9345,-2.9791,-3.0142,-3.0683,-3.1021,-3.119,-3.119,-3.119,-3.123,-3.1545,-3.2144,-3.284,-3.284,-3.4002,-3.5643,-4.4587,0.0,0.0,-4.5568,0.0,0.0,-4.4578,0.0,0.0,-4.5688,-4.5879,0.0,-4.5431,-4.4915,-4.4403,-4.3989,-4.3927,0.0,-4.3329,0.0,0.0,-4.1429,-4.1115,-4.0663,-4.0021,-3.999,0.0,-3.7968,0.0,0.0,-3.5504,0.0,0.0,0.0,0.0,-3.5718,-3.6165,-3.643,-3.7084,-3.7822,-3.7822,0.0,0.0,-3.7144,-3.6631,-3.6006,-3.6368,-3.6085,-3.5504,-3.5504,-3.5504,-3.5504,-3.5504,-3.5504,-3.5504,-3.5504,-3.5504,-3.5504,-3.5504,-3.5733,-3.6006,-3.6006,-3.6585,-3.6723,-3.5341,-3.5348,-3.5401,0.0,0.0,0.0,0.0,0.0,0.0,-3.4988,-3.4387,0.0,0.0,0.0,0.0,0.0,-3.1768,0.0,-3.1768,-3.1428,-3.1368,-3.1731,-3.1582,0.0,0.0,0.0,0.0,-3.123,-3.1562,-3.1394,-3.0581,-3.0776,-3.0554,-2.9956,-2.9956,-2.9956,-2.9973,-3.0395,-3.0581,-3.0598,-3.1021,-3.119,-3.119,-3.119,-3.1291,-3.1545,-3.2161,-3.2727,-3.325,-3.3789,-3.4793,-3.6,0.0,0.0,0.0,0.0,0.0,0.0,0.0,-4.6877,0.0,-4.6597,0.0,-4.7306,-4.6454,-4.6244,-4.5905,-4.5079,0.0,-4.454,-4.3572,-4.3029,-4.238,-4.1625,-4.1036,-4.0817,-4.0894,-4.0878,-4.0209,0.0,-3.8838,-3.7787,-3.5797,0.0,0.0,0.0,0.0,0.0,0.0,-3.6737,-3.744,-3.8092,-3.8092,-3.8035,-3.7921,-3.7921,-3.744,-3.6843,-3.7573,-3.689,-3.5604,-3.5604,-3.5733,-3.5797,-3.5668,-3.5733,-3.5797,-3.5797,-3.5797,-3.5797,-3.5797,-3.629,-3.6737,-3.6737,-3.7259,-3.7439,-3.6107,-3.5846,-3.5606,-3.4872,-3.4284,-3.4202,0.0,0.0,0.0,0.0,0.0,0.0,0.0,0.0,0.0,0.0,0.0,0.0,-3.2583,-3.186,-3.1694,0.0,0.0,0.0,0.0,0.0,0.0,-3.1389,-3.2056,0.0,-3.1368,0.0,-3.1714,-3.1351,-3.1291,-3.1291,-3.1291,-3.123,-3.119,-3.119,-3.119,-3.119,-3.119,-3.119,-3.147,-3.1986,-3.2872,-3.3243,-3.3441,-3.4694,-3.5661,-3.6413,0.0,0.0,0.0,0.0,0.0,-4.7183,-4.8394,-4.8596,-4.8568,-4.8497,-4.8015,-4.7523,-4.7373,-4.6662,-4.6103,-4.5977,-4.5977,0.0,0.0,0.0,0.0,-4.2758,-4.2584,-4.2322,-4.1804,-4.1804,-4.1119,-3.9702,-3.9702,-3.8925,-3.7413,0.0,0.0,0.0,0.0,0.0,-3.8342,-3.9156,0.0,-3.9679,-3.9679,-3.9332,-3.869,-3.869,-3.8246,-3.7632,-3.7764,-3.7219,-3.6384,-3.6384,-3.6874,-3.7294,-3.6631,-3.6874,-3.7413,-3.7413,-3.7413,-3.7413,-3.7413,-3.7456,-3.7573,-3.7573,-3.7713,-3.7609,-3.6741,-3.6589,-3.639,-3.5609,-3.5316,-3.5316,-3.5577,0.0,0.0,0.0,0.0,0.0,0.0,0.0,0.0,0.0,0.0,-3.2648,0.0,0.0,0.0,0.0,0.0,0.0,0.0,0.0,0.0,0.0,0.0,0.0,0.0,0.0,0.0,-3.2248,-3.1861,-3.1696,-3.1696,-3.1351,-3.119,-3.119,-3.119,-3.119,-3.119,-3.119,-3.1657,-3.2451,-3.2983,-3.339,-3.389,-3.5485,-3.6174,-3.6413,0.0,0.0,0.0,0.0,0.0,0.0,0.0,-4.8443,0.0,-4.8951,-4.8576,-4.8306,-4.8306,-4.7933,-4.7292,-4.6448,-4.6348,-4.5837,-4.4585,-4.4202,-4.369,-4.3003,-4.2701,0.0,-4.2661,-4.2645,-4.2008,-4.0561,-4.0561,-3.9596,-3.7822,0.0,0.0,0.0,0.0,-3.8206,0.0,0.0,0.0,-4.007,-4.007,-3.985,-3.9542,-3.9542,-3.9032,-3.843,-3.8832,-3.8469,-3.7758,-3.7381,-3.7456,-3.7748,-3.7338,-3.7515,-3.7822,-3.7822,-3.7822,-3.7822,-3.7822,-3.8092,-3.8358,-3.8358,-3.8397,-3.8237,-3.7502,-3.7043,-3.6552,-3.5774,-3.5622,-3.5622,-3.5622,-3.5622,0.0,0.0,0.0,0.0,0.0,0.0,0.0,0.0,0.0,0.0,0.0,0.0,0.0,0.0,0.0,0.0,0.0,0.0,0.0,0.0,0.0,0.0,0.0,0.0,0.0,-3.2484,-3.2022,-3.1789,-3.1789,-3.1372,-3.1312,-3.1507,-3.1291,-3.1466,-3.1896,-3.2162,-3.2484,-3.2921,-3.3332,-3.3862,-3.4578,-3.5844,-3.656,-3.7037,0.0,-4.4587,0.0,0.0,-4.5703,0.0,-4.7479,-4.7682,-4.8003,-4.8883,-4.8866,-4.8781,-4.8781,-4.8629,-4.8012,-4.6689,-4.6576,-4.5927,-4.4464,-4.3881,-4.3508,-4.3362,-4.2812,-4.2892,-4.3562,-4.3396,-4.2684,0.0,-4.1266,-4.0226,0.0,0.0,0.0,0.0,0.0,0.0,0.0,0.0,-3.9542,-4.007,-4.007,-4.007,-4.007,-4.007,-3.9731,-3.9262,-3.9885,-3.9662,-3.9086,-3.8486,-3.8262,-3.8262,-3.8092,-3.8149,-3.8262,-3.8262,-3.8262,-3.8262,-3.8262,-3.8707,-3.9139,-3.9139,-3.8957,-3.8616,-3.8041,-3.7195,-3.6366,-3.574,-3.5622,-3.5622,-3.5622,-3.5694,0.0,0.0,0.0,0.0,0.0,0.0,0.0,0.0,0.0,0.0,-3.4119,0.0,0.0,0.0,0.0,0.0,0.0,0.0,0.0,0.0,0.0,-3.339,-3.2777,0.0,-3.3136,0.0,-3.2332,-3.2092,-3.2092,-3.1694,-3.164,-3.1915,-3.162,-3.186,-3.255,-3.3014,-3.3214,-3.3243,-3.3634,-3.4192,-3.489,-3.5917,-3.6728,-3.7477,0.0,0.0,0.0,0.0,0.0,0.0,0.0,-4.6904,-4.7411,-4.8815,-4.8426,-4.802,-4.802,-4.7411,-4.6972,-4.6768,-4.6752,-4.6448,-4.5589,-4.5471,-4.5134,-4.4461,-4.4417,-4.4384,-4.4457,-4.3765,-4.3006,0.0,-4.1521,-4.0762,0.0,-3.9901,0.0,0.0,0.0,0.0,0.0,-4.002,-4.002,-4.007,-4.007,-4.007,-4.007,-4.007,-4.007,-4.002,-4.007,-4.007,-3.9969,-3.9901,-3.9901,-3.9731,-3.9032,-3.9315,-3.9901,-3.9901,-3.9901,-3.9901,-3.9901,-3.9952,-4.002,-4.002,-3.8973,-3.799,-3.7922,-3.6772,-3.5707,-3.5639,-3.5622,-3.5622,-3.5622,-3.5985,-3.6333,0.0,0.0,0.0,0.0,0.0,-3.6834,-3.7228,0.0,0.0,0.0,-3.4229,0.0,0.0,0.0,0.0,0.0,0.0,0.0,-3.3662,0.0,-3.339,-3.368,-3.3734,0.0,-3.3662,-3.3255,-3.3075,-3.3045,-3.2583,-3.2417,-3.2417,-3.2384,-3.2417,-3.255,-3.3014,-3.3214,-3.3243,-3.3634,-3.3844,-3.4119,-3.5716,-3.6491,-3.6987,0.0,0.0,0.0,0.0,0.0,0.0,0.0,-4.6143,-4.6515,-4.753,-4.7428,-4.7242,-4.7242,-4.6972,-4.6616,-4.6177,-4.6143,-4.5821,-4.5077,-4.5026,-4.4891,-4.4587,-4.4587,-4.4587,-4.4587,-4.3809,-4.3047,0.0,0.0,-4.0815,-4.007,-4.007,0.0,0.0,0.0,-4.007,-4.007,-4.007,-4.007,-4.007,-4.007,-4.007,-4.007,-4.007,-4.007,-4.007,-4.007,-4.007,-4.007,-4.007,-4.007,-4.002,-3.9731,-3.9833,-4.007,-4.007,-4.007,-4.007,-4.007,-4.007,-3.9969,-3.9529,-3.8667,-3.7787,-3.733,-3.64,-3.5622,-3.5622,-3.5871,-3.6097,-3.6097,-3.6522,-3.6981,0.0,0.0,0.0,0.0,0.0,0.0,-3.7533,0.0,-3.6119,0.0,0.0,0.0,0.0,0.0,0.0,0.0,0.0,0.0,-3.3788,0.0,-3.3652,-3.3807,-3.3807,-3.3807,-3.3807,-3.339,-3.3214,-3.3184,-3.2713,-3.2484,-3.2517,-3.3057,-3.3136,-3.2934,-3.339,-3.355,-3.3578,-3.3734,-3.41,-3.4669,-3.5862,-3.6777,-3.7622,-4.5833,0.0,-4.5783,0.0,-4.5284,-4.5039,-4.5584,-4.5462,-4.5551,-4.6075,-4.6143,-4.6227,-4.6447,-4.6278,-4.5923,-4.5415,-4.5382,-4.5145,-4.4604,-4.4587,-4.4587,-4.4587,-4.4587,0.0,-4.4248,-4.3487,-4.2726,-4.1965,-4.1238,0.0,-4.007,0.0,0.0,0.0,-4.007,-4.007,-4.007,-4.007,-4.007,-4.007,-4.007,-4.007,-4.007,-4.007,-4.007,-4.007,-4.007,-4.007,-4.007,-4.007,-4.007,-4.007,-4.007,-4.007,-4.007,-4.007,-4.007,-4.007,-4.007,-4.007,-3.9901,-3.9174,-3.8447,-3.7719,-3.6958,-3.618,-3.565,-3.581,-3.6249,-3.6661,-3.6661,-3.7058,-3.7506,-3.7859,0.0,0.0,0.0,0.0,0.0,0.0,-3.7624,-3.7037,-3.5862,-3.5532,0.0,0.0,0.0,0.0,0.0,0.0,0.0,0.0,0.0,0.0,0.0,-3.3917,-3.3807,-3.3807,-3.3522,-3.3379,-3.3361,-3.3027,-3.2872,-3.2934,-3.3532,-3.3652,-3.3408,-3.368,-3.3807,-3.3807,-3.3807,-3.4191,-3.486,-3.5754,-3.6805,-3.7972,-4.6383,-4.6383,-4.6383,-4.6383,-4.5865,-4.5511,-4.5511,-4.5015,-4.4604,-4.4604,-4.4604,-4.4891,-4.5635,-4.5043,-4.4604,-4.4587,-4.4587,-4.4587,-4.4587,-4.4587,-4.4587,0.0,0.0,-4.4215,-4.3453,-4.2692,-4.1948,-4.1221,0.0,0.0,-4.007,0.0,-4.007,-4.007,-4.007,-4.007,-4.007,-4.007,-4.007,-4.007,-4.007,-4.007,-4.007,-4.007,-4.007,-4.007,-4.007,-4.007,-4.007,-4.007,-4.007,-4.007,-4.007,-4.007,-4.007,-4.007,-4.007,-4.007,-4.007,-4.007,-3.9901,-3.9174,-3.8447,-3.7719,-3.6958,-3.618,-3.5739,-3.6266,-3.6803,-3.7173,-3.7173,-3.7578,-3.7893,-3.7893,0.0,0.0,0.0,0.0,0.0,-3.8689,-3.7973,-3.7477,-3.7489,0.0,0.0,0.0,0.0,0.0,0.0,0.0,0.0,-3.6266,-3.544,0.0,-3.4972,-3.4211,-3.3807,-3.3807,-3.3807,-3.3788,-3.3788,-3.3807,-3.3762,-3.3788,-3.3807,-3.3807,-3.3788,-3.3807,-3.3807,-3.3807,-3.3807,-3.3979,-3.433,-3.5205,-3.6406,-3.7716,-4.715,-4.7088,-4.7088,-4.7088,-4.6524,-4.6094,-4.6094,-4.5965,-4.5681,-4.5284,-4.5232,-4.5138,-4.4965,-4.4722,-4.4587,0.0,-4.4587,-4.4587,0.0,-4.4079,-4.3792,-4.3792,-4.3284,-4.2895,-4.2658,-4.1931,-4.1441,-4.1204,0.0,0.0,0.0,-4.007,-4.007,-4.007,-4.007,-4.007,-4.007,-4.007,-4.007,-4.007,-4.007,-4.007,-4.007,-4.007,-4.007,-4.007,-4.007,-4.007,-4.007,-4.007,-4.007,-4.007,-4.007,-4.007,-4.007,-4.007,-4.007,-4.007,-4.007,-3.9715,-3.9238,-3.8848,-3.7945,-3.7138,-3.7078,-3.6858,-3.6746,-3.6921,-3.7323,-3.7685,-3.7685,-3.8117,-3.8465,-3.8465,-3.8578,0.0,0.0,0.0,0.0,-3.8707,-3.8469,-3.8102,0.0,-3.7257,0.0,0.0,0.0,0.0,0.0,0.0,0.0,0.0,-3.6028,0.0,-3.5009,-3.4761,-3.4357,-3.3807,-3.3807,-3.3807,-3.3807,-3.3807,-3.3807,-3.3807,-3.3807,-3.3807,-3.3807,-3.3807,-3.3807,-3.3815,-3.4012,-3.4123,-3.4335,-3.5383,-3.6174,-3.6915,-4.7797,-4.7756,-4.7756,-4.7756,-4.7176,-4.6774,-4.6774,-4.6571,-4.6192,-4.5597,-4.5438,-4.5163,-4.4534,-4.442,0.0,-4.4169,-4.4147,-4.4028,-4.3741,-4.3267,-4.2997,-4.2997,-4.254,-4.2168,-4.188,0.0,0.0,-4.0781,-4.0307,-4.007,-4.007,-4.007,-4.007,-4.007,-4.007,-4.007,-4.007,-4.007,-4.007,-4.007,-4.007,-4.007,-4.007,-4.007,-4.007,-4.0121,-4.0336,-4.0417,-4.0466,-4.0689,-4.0737,-4.0737,-4.0737,-4.0737,-4.0672,-4.0466,-4.0417,-4.0397,-4.0298,-3.9808,-3.9144,-3.8625,-3.7906,-3.7326,-3.7196,-3.7323,-3.747,-3.747,-3.7843,-3.8183,-3.8183,-3.8465,-3.8707,-3.8707,-3.8707,-3.8707,-3.8707,0.0,0.0,0.0,0.0,0.0,0.0,-3.7936,0.0,0.0,0.0,0.0,0.0,0.0,0.0,-3.7202,-3.6909,0.0,-3.5514,-3.5155,-3.4614,-3.3807,-3.3807,-3.3807,-3.3807,-3.3807,-3.3807,-3.3807,-3.3807,-3.3807,-3.3807,-3.3807,-3.3868,-3.3961,-3.4123,-3.4338,-3.463,-3.5341,-3.5968,-3.6613,-4.8141,-4.8141,0.0,0.0,-4.7674,0.0,-4.7325,-4.6793,-4.6129,-4.5525,-4.5304,-4.4941,-4.4349,-4.4108,-4.3838,-4.3382,0.0,0.0,0.0,-4.2342,-4.2308,-4.2308,-4.2221,-4.1813,-4.1136,-4.1119,-4.0781,-4.007,-4.007,-4.007,-4.007,-4.007,-4.007,-4.007,-4.007,-4.007,-4.007,-4.007,-4.007,-4.007,-4.007,-4.0121,-4.0171,-4.0171,-4.0154,-4.0286,-4.078,-4.0949,-4.1041,-4.1621,-4.181,-4.181,-4.181,-4.1853,-4.175,-4.1133,-4.0949,-4.0913,-4.0662,-4.0141,-3.9494,-3.8554,-3.8344,-3.8153,-3.7425,-3.7614,-3.7946,-3.7946,-3.8332,-3.8707,-3.8707,-3.8707,-3.8707,-3.8707,-3.8707,-3.8707,-3.8707,0.0,0.0,0.0,0.0,0.0,0.0,-3.8707,-3.8707,0.0,0.0,0.0,0.0,0.0,-3.8707,-3.8707,-3.7955,-3.7184,-3.6376,-3.5532,-3.4669,-3.3807,-3.3807,-3.3807,-3.3807,-3.3807,-3.3807,-3.3807,-3.3807,-3.3815,-3.3815,-3.3815,-3.3986,-3.4242,-3.4246,-3.4615,-3.5105,-3.5122,-3.5748,-3.6622,0.0,0.0,-4.6471,-4.6471,-4.6341,-4.6247,-4.6247,-4.6114,-4.5802,-4.5226,-4.5107,-4.4793,-4.412,-4.4036,-4.3708,-4.3092,-4.3535,-4.375,-4.3623,-4.2687,-4.2167,-4.2167,-4.1188,-4.0527,-4.0341,-4.0341,-4.0257,-4.007,-4.007,-4.007,-4.007,-4.007,-4.007,-4.007,-4.007,-4.007,-4.007,-4.007,-4.007,-4.007,-4.007,-4.0336,-4.0703,-4.0703,-4.1013,-4.1402,-4.1534,-4.1578,-4.1621,-4.175,-4.181,-4.181,-4.181,-4.2121,-4.2382,-4.175,-4.1578,-4.1462,-4.0789,-4.0094,-3.9446,-3.8936,-3.8721,-3.8437,-3.7879,-3.815,-3.8496,-3.8496,-3.8627,-3.8707,-3.8707,-3.8707,-3.8707,-3.8707,-3.8707,-3.8707,-3.8707,-3.8707,0.0,0.0,-3.8707,-3.8707,-3.8707,-3.8707,-3.8707,0.0,0.0,0.0,0.0,0.0,-3.8707,-3.8707,-3.8524,-3.8028,-3.7202,-3.6395,-3.5257,-3.3807,-3.3807,-3.3807,-3.3807,-3.3807,-3.3807,-3.3807,-3.3807,-3.3928,-3.4117,-3.4117,-3.4288,-3.4593,-3.4794,-3.4962,-3.5122,-3.532,-3.558,-3.5872,-4.5902,-4.5902,-4.5902,-4.5902,-4.5902,-4.5902,-4.5902,-4.5902,-4.568,-4.5062,-4.4932,-4.4617,-4.3989,-4.3835,-4.362,-4.3228,-4.338,-4.3332,-4.3041,-4.2324,-4.1978,-4.1978,-4.1256,-4.0908,-4.0908,-4.0908,-4.0908,-4.0908,-4.0908,-4.0908,-4.0908,-4.0908,-4.0908,-4.0908,-4.0908,-4.0908,-4.0908,-4.0908,-4.0908,-4.0908,-4.0908,-4.1059,-4.1313,-4.1313,-4.1534,-4.1853,-4.2121,-4.2203,-4.2244,-4.2483,-4.2562,-4.2562,-4.2562,-4.279,-4.2941,-4.2224,-4.1848,-4.1511,-4.0953,-4.007,-3.9226,-3.8932,-3.8775,-3.8627,-3.8332,-3.8496,-3.8707,-3.8707,-3.8707,-3.8707,-3.8707,-3.8707,-3.8707,-3.8707,-3.8707,-3.8707,-3.8707,-3.8803,0.0,-3.8884,-3.9008,-3.91,-3.91,-3.91,-3.91,-3.91,0.0,0.0,-3.8884,-3.8884,-3.8815,-3.8707,-3.8707,-3.8138,-3.6945,-3.5752,-3.4688,-3.3807,-3.3807,-3.3807,-3.3807,-3.3807,-3.3807,-3.3807,-3.3807,-3.3961,-3.42,-3.42,-3.4467,-3.4908,-3.5034,-3.5155,-3.5304,-3.5446,-3.5493,-3.5565,-4.5535,-4.5535,-4.5535,-4.5535,-4.5535,-4.5535,-4.5535,-4.5535,-4.5352,-4.4838,-4.4637,-4.4309,-4.3803,-4.3616,-4.3497,-4.3497,-4.3195,-4.2697,-4.2098,-4.1979,-4.1937,-4.1937,-4.1853,-4.181,-4.181,-4.181,-4.181,-4.181,-4.181,-4.181,-4.181,-4.181,-4.181,-4.181,-4.181,-4.181,-4.181,-4.181,-4.181,-4.181,-4.181,-4.1853,-4.1937,-4.1937,-4.1979,-4.2103,-4.2637,-4.2826,-4.2902,-4.3339,-4.3497,-4.3461,-4.3351,-4.3314,-4.3149,-4.2359,-4.1683,-4.1144,-4.0976,-3.9953,-3.8932,-3.8742,-3.8707,-3.8707,-3.8707,-3.8707,-3.8707,-3.8707,-3.8707,-3.8707,-3.8707,-3.8707,-3.8707,-3.8707,-3.875,-3.8762,-3.8762,0.0,-3.9178,-3.9178,-3.9432,-3.9599,-3.9599,-3.9599,-3.9599,-3.9599,-3.9599,-3.9481,0.0,-3.9178,-3.9063,-3.8833,-3.875,-3.7936,-3.6321,-3.4761,-3.3917,-3.3807,-3.3807,-3.3807,-3.3807,-3.3807,-3.3815,-3.385,-3.385,-3.4043,-3.4338,-3.4338,-3.4656,-3.5155,-3.5155,-3.5304,-3.5493,-3.5493,-3.5493,-3.5493,-4.3864,-4.3864,-4.3864,-4.3864,-4.3864,-4.3864,-4.3864,-4.3864,-4.3864,-4.3741,-4.3719,-4.3646,-4.3558,-4.3518,-4.3497,-4.3497,-4.3431,-4.3359,-4.3232,-4.2808,-4.2577,-4.2577,-4.208,-4.181,-4.181,-4.181,-4.181,-4.181,-4.181,-4.181,-4.181,-4.181,-4.181,-4.181,-4.181,-4.181,-4.181,-4.181,-4.181,-4.181,-4.181,-4.2121,-4.2577,-4.2577,-4.2846,-4.3232,-4.3321,-4.3375,-4.341,-4.3479,-4.3497,-4.3369,-4.269,-4.2488,-4.2323,-4.1534,-4.0734,-4.0115,-4.0102,-3.9415,-3.8742,-3.8695,-3.8707,-3.8707,-3.8707,-3.8707,-3.8707,-3.8707,-3.8707,-3.8707,-3.8707,-3.8707,-3.8707,-3.8707,-3.8894,-3.9036,-3.9036,0.0,-3.951,-3.951,-3.9576,-3.9599,-3.9599,-3.9599,-3.9599,-3.9599,-3.9599,-3.9576,-3.9529,-3.951,-3.9505,-3.9457,-3.897,-3.7936,-3.6321,-3.5312,-3.4486,-3.3807,-3.3807,-3.3807,-3.3807,-3.3807,-3.391,-3.4147,-3.4147,-3.4449,-3.4962,-3.4962,-3.5155,-3.5432,-3.5432,-3.546,-3.5493,-3.5493,-3.5493,-3.5493,-4.3497,-4.3497,-4.3497,-4.3497,-4.3497,-4.3497,-4.3497,-4.3497,-4.3497,-4.3497,-4.3497,-4.3497,-4.3497,-4.3497,-4.3497,-4.3497,-4.3497,-4.3497,-4.3497,-4.325,-4.3142,-4.3142,-4.2865,-4.2734,-4.2734,-4.2734,-4.2734,-4.2734,-4.2734,-4.2734,-4.2734,-4.2734,-4.2734,-4.2734,-4.2734,-4.2734,-4.2734,-4.2734,-4.2734,-4.2698,-4.2226,-4.2249,-4.2449,-4.1995,-4.1971,-4.2213,-4.2213,-4.2213,-4.2213,-4.2213,-4.2213,-4.2139,-4.1772,-4.1662,-4.1497,-4.0689,-4.0194,-3.9808,-3.9368,-3.8982,-3.8707,-3.8707,-3.8707,-3.8707,-3.8707,-3.8707,-3.875,-3.8884,-3.8923,-3.8923,-3.8923,-3.9073,-3.9127,-3.8933,-3.9171,0.0,0.0,-3.9645,-3.988,-3.988,-3.9984,-4.0082,-4.0082,-4.0082,-4.0082,-4.0082,-4.0082,-4.0024,-3.988,-3.988,-3.9797,-3.9599,-3.8305,-3.6962,-3.5624,-3.478,-3.4174,-3.3807,-3.3807,-3.3807,-3.3788,-3.3935,-3.4074,-3.42,-3.4379,-3.4715,-3.5105,-3.5105,-3.5273,-3.5493,-3.5493,-3.5493,-3.5493,-3.5493,-3.5493,-3.5526,-4.3497,-4.3497,-4.3497,-4.3497,-4.3497,-4.3497,-4.3497,-4.3497,-4.3497,-4.3497,-4.3497,-4.3497,-4.3497,-4.3497,-4.3497,-4.3497,-4.3497,-4.3497,-4.3497,-4.3497,-4.3497,-4.3497,-4.3497,-4.3497,-4.3497,-4.3497,-4.3497,-4.3497,-4.3497,-4.3497,-4.3497,-4.3497,-4.3497,-4.3497,-4.3497,-4.3387,-4.3222,-4.3222,-4.3112,-4.2892,-4.2268,-4.2029,-4.1956,-4.135,-4.1111,-4.1111,-4.1111,-4.1111,-4.1111,-4.1111,-4.1111,-4.1075,-4.0891,-4.0836,-4.0671,-3.9863,-3.9625,-3.9478,-3.8872,-3.8707,-3.8719,-3.8792,-3.8803,-3.8803,-3.8873,-3.8902,-3.897,-3.9178,-3.9212,-3.9212,-3.9212,-3.9432,-3.9529,-3.9264,0.0,0.0,0.0,-3.9983,-4.0195,-4.0195,-4.0372,-4.0489,-4.0489,-4.0489,-4.0489,-4.0489,-4.0489,-4.0406,-4.0195,-4.0195,-3.9871,-3.9145,-3.7606,-3.6261,-3.5128,-3.4281,-3.385,-3.3807,-3.385,-3.3902,-3.3902,-3.4171,-3.4338,-3.4427,-3.4675,-3.4944,-3.519,-3.519,-3.5304,-3.5493,-3.5493,-3.5493,-3.5493,-3.5526,-3.5526,-3.5545,-4.3497,-4.3497,-4.3497,-4.3497,-4.3497,-4.3497,-4.3497,-4.3497,-4.3497,-4.3497,-4.3497,-4.3497,-4.3497,-4.3497,-4.3497,-4.3497,-4.3497,-4.3497,-4.3497,-4.3497,-4.3497,-4.3497,-4.3497,-4.3497,-4.3497,-4.3497,-4.3497,-4.3497,-4.3497,-4.3497,-4.3497,-4.3497,-4.3497,-4.3497,-4.3497,-4.3075,-4.2396,-4.2396,-4.1974,-4.1277,-4.1222,-4.1203,-4.1185,-4.113,-4.1111,-4.1111,-4.1111,-4.1111,-4.1111,-4.1111,-4.1111,-4.0983,-4.0212,-3.9992,-3.9827,-3.9019,-3.8799,-3.8781,-3.8726,-3.8707,-3.8762,-3.9027,-3.9072,-3.9152,-3.9457,-3.9529,-3.9529,-3.9552,-3.9576,-3.9576,-3.9576,-3.9576,-3.9599,-3.9576,0.0,0.0,-4.0042,-4.0304,-4.0473,-4.0473,-4.0489,-4.0489,-4.0489,-4.0489,-4.0489,-4.0489,-4.0489,-4.0489,-4.0473,-4.0473,-3.9627,-3.7812,-3.7312,-3.6535,-3.5479,-3.4599,-3.4043,-3.3788,-3.4043,-3.4171,-3.4195,-3.4508,-3.4793,-3.5034,-3.507,-3.5223,-3.546,-3.546,-3.5493,-3.5493,-3.5493,-3.5493,-3.5526,-3.5584,-3.5603,-3.5603,-4.3497,-4.3497,-4.3497,-4.3497,-4.3497,-4.3497,-4.3497,-4.3497,-4.3497,-4.3497,-4.3497,-4.3497,-4.3497,-4.3497,-4.3497,-4.3497,-4.3497,-4.3497,-4.3497,-4.3497,-4.3497,-4.3497,-4.3497,-4.3497,-4.3497,-4.3497,-4.3497,-4.3497,-4.3497,-4.3497,-4.3497,-4.3497,-4.3222,-4.2763,-4.2763,-4.2304,-4.157,-4.157,-4.1387,-4.1075,-4.0561,-4.0359,-4.0304,-3.9808,-3.9625,-3.9625,-3.9625,-3.9625,-3.9625,-3.9625,-3.9625,-3.957,-3.9258,-3.9166,-3.9136,-3.8987,-3.9082,-3.9268,-3.9268,-3.9109,-3.8971,-3.9072,-3.9257,-3.9438,-3.9576,-3.9599,-3.9645,-3.988,-3.9901,-3.9901,-3.9901,-4.0043,-4.0101,-3.9943,0.0,-4.0356,-4.0356,-4.0441,-4.0489,-4.0489,-4.0489,-4.0489,-4.0489,-4.0489,-4.0489,-4.0489,-4.0489,-4.0489,-4.0489,-4.0027,-3.8919,-3.7095,-3.6922,-3.6254,-3.5015,-3.4677,-3.4464,-3.4353,-3.4464,-3.4508,-3.4529,-3.4813,-3.4999,-3.5105,-3.5273,-3.5417,-3.5493,-3.5493,-3.5493,-3.5493,-3.5565,-3.5565,-3.5584,-3.5641,-3.5654,-3.5669,-4.3497,-4.3497,-4.3497,-4.3497,-4.3497,-4.3497,-4.3497,-4.3497,-4.3497,-4.3497,-4.3497,-4.3497,-4.3497,-4.3497,-4.3497,-4.3497,-4.3497,-4.3497,-4.3497,-4.3497,-4.3497,-4.3497,-4.3497,-4.3497,-4.3497,-4.3497,-4.3497,-4.3497,-4.324,-4.3112,-4.3112,-4.2855,-4.2451,-4.1919,-4.1919,-4.1479,-4.0726,-4.0726,-4.0579,-4.0304,-3.9753,-3.9515,-3.946,-3.8909,-3.8707,-3.8707,-3.8707,-3.8707,-3.8719,-3.8803,-3.8815,-3.8844,-3.8942,-3.897,-3.9008,-3.9205,-3.9414,-3.9599,-3.9599,-3.9529,-3.9414,-3.9414,-3.9599,-3.9775,-3.9863,-3.9884,-3.9944,-4.0177,-4.0233,-4.0233,-4.0233,-4.0372,-4.0441,-4.0269,-4.0372,-4.0489,-4.0489,-4.0489,-4.0489,-4.0489,-4.0489,-4.0489,-4.0489,-4.0489,-4.0489,-4.0489,-4.0489,-4.0392,-4.0142,-3.9335,-3.8219,-3.6757,-3.6449,-3.5875,-3.4963,-3.487,-3.4774,-3.4694,-3.4793,-3.4832,-3.4832,-3.5105,-3.5223,-3.5242,-3.5432,-3.5493,-3.5493,-3.5526,-3.5545,-3.5545,-3.5622,-3.5631,-3.5628,-3.572,-3.5755,-3.5775,-4.3497,-4.3497,-4.3497,-4.3497,-4.3497,-4.3497,-4.3497,-4.3497,-4.3497,-4.3497,-4.3497,-4.3497,-4.3497,-4.3497,-4.3497,-4.3497,-4.3497,-4.3497,-4.3479,-4.3461,-4.3461,-4.3461,-4.3479,-4.3479,-4.3479,-4.3461,-4.3461,-4.3461,-4.2671,-4.2286,-4.2268,-4.1479,-4.1111,-4.1111,-4.1111,-4.0653,-3.9882,-3.9882,-3.9423,-3.8707,-3.8707,-3.8707,-3.8707,-3.8707,-3.8707,-3.8707,-3.8707,-3.8707,-3.875,-3.9027,-3.9099,-3.9178,-3.9486,-3.9599,-3.9599,-3.9599,-3.9599,-3.9599,-3.9599,-3.984,-4.0101,-4.0101,-4.0101,-4.0177,-4.0441,-4.0489,-4.0489,-4.0489,-4.0489,-4.0489,-4.0489,-4.0489,-4.0489,-4.0489,-4.0489,-4.0489,-4.0489,-4.0489,-4.0489,-4.0489,-4.0489,-4.0489,-4.0489,-4.0489,-4.0489,-4.0489,-4.0489,-4.0142,-3.9335,-3.8469,-3.7603,-3.6719,-3.593,-3.5493,-3.5493,-3.5223,-3.4963,-3.4694,-3.4981,-3.5105,-3.5105,-3.5383,-3.5493,-3.5493,-3.5493,-3.5493,-3.5526,-3.5584,-3.5603,-3.5603,-3.568,-3.5704,-3.5721,-3.5847,-3.5905,-3.59,-4.3497,-4.3497,-4.3497,-4.3497,-4.3497,-4.3497,-4.3497,-4.3497,-4.3497,-4.3497,-4.3497,-4.3497,-4.3497,-4.3497,-4.3497,-4.3497,-4.3497,-4.3259,-4.269,-4.2139,-4.1827,-4.1827,-4.2359,-4.2653,-4.2653,-4.2103,-4.1827,-4.1827,-4.1589,-4.1479,-4.146,-4.1222,-4.0799,-4.0267,-4.0267,-3.9808,-3.9056,-3.9056,-3.8927,-3.8707,-3.8707,-3.8707,-3.8707,-3.8707,-3.8707,-3.8707,-3.8707,-3.8707,-3.875,-3.9027,-3.9099,-3.9178,-3.9486,-3.9775,-3.9943,-3.9943,-4.0082,-4.023,-4.023,-4.0302,-4.0339,-4.0139,-4.0232,-4.0389,-4.0489,-4.0489,-4.0335,-3.9758,-3.9662,-3.9662,-3.9662,-3.9662,-3.9835,-4.0412,-4.0489,-4.0489,-4.0489,-4.0489,-4.0489,-4.0489,-4.0489,-4.0489,-4.0489,-4.0489,-4.0489,-4.0489,-4.0489,-3.9873,-3.845,-3.8142,-3.7334,-3.5911,-3.5641,-3.5493,-3.5493,-3.5432,-3.5354,-3.5254,-3.5335,-3.5383,-3.5383,-3.546,-3.5493,-3.5493,-3.5565,-3.5584,-3.5584,-3.5641,-3.5666,-3.5669,-3.5791,-3.5843,-3.5858,-3.593,-3.5966,-3.5974,-4.2543,-4.28,-4.302,-4.302,-4.3277,-4.3497,-4.3497,-4.3497,-4.3497,-4.3497,-4.3222,-4.302,-4.302,-4.2745,-4.2543,-4.2543,-4.2543,-4.2341,-4.1864,-4.1387,-4.1111,-4.1111,-4.1258,-4.1497,-4.1827,-4.1368,-4.1111,-4.1111,-4.0781,-4.0634,-4.0616,-4.0304,-3.99,-3.9423,-3.9423,-3.9166,-3.8707,-3.8707,-3.8707,-3.8707,-3.8707,-3.8707,-3.8689,-3.8833,-3.8855,-3.8884,-3.9008,-3.9064,-3.91,-3.9383,-3.958,-3.9697,-3.9905,-4.0101,-4.0269,-4.0269,-4.0372,-4.0489,-4.0489,-4.0258,-3.9977,-3.9825,-4.0142,-4.0412,-4.0085,-4.0027,-3.9777,-3.895,-3.8796,-3.8892,-3.9238,-3.9296,-3.9546,-4.0354,-4.0489,-4.0489,-4.0489,-4.0489,-4.0489,-4.0489,-4.0489,-4.0508,-4.0581,-4.0581,-4.06,-4.062,-4.062,-4.0008,-3.8627,-3.8257,-3.743,-3.6026,-3.568,-3.5493,-3.5493,-3.5545,-3.5545,-3.5493,-3.5493,-3.5493,-3.5493,-3.5545,-3.5545,-3.5545,-3.5622,-3.5644,-3.5654,-3.5734,-3.5789,-3.5795,-3.5899,-3.5935,-3.5947,-3.5984,-3.5996,-3.5996,-4.1111,-4.1699,-4.2194,-4.2194,-4.28,-4.3277,-4.3277,-4.3277,-4.3277,-4.3277,-4.2653,-4.2194,-4.2194,-4.1552,-4.1111,-4.1111,-4.1038,-4.1001,-4.1001,-4.0946,-4.091,-4.091,-4.0175,-4.0139,-4.0873,-4.091,-4.091,-4.091,-4.0157,-3.979,-3.9772,-3.9038,-3.8707,-3.8707,-3.8707,-3.8707,-3.8707,-3.8707,-3.8719,-3.875,-3.875,-3.8732,-3.8822,-3.9036,-3.9133,-3.9186,-3.9486,-3.9599,-3.9645,-3.9982,-4.0286,-4.0489,-4.0489,-4.0489,-4.0489,-4.0489,-4.045,-4.0392,-4.0392,-3.9796,-3.9181,-3.9181,-3.9719,-4.0065,-3.9354,-3.9181,-3.8931,-3.8065,-3.795,-3.8238,-3.9027,-3.9238,-3.9565,-4.0373,-4.0508,-4.0543,-4.0543,-4.0543,-4.0543,-4.0543,-4.0543,-4.0581,-4.0696,-4.0708,-4.0723,-4.08,-4.08,-4.0395,-3.948,-3.8715,-3.7829,-3.6757,-3.6026,-3.5603,-3.5526,-3.5584,-3.5584,-3.5526,-3.5526,-3.5526,-3.5526,-3.5584,-3.5617,-3.5605,-3.5694,-3.572,-3.5725,-3.5847,-3.5907,-3.591,-3.5985,-3.5996,-3.5996,-3.5996,-3.5996,-3.5996,-4.1111,-4.1258,-4.1368,-4.1368,-4.1515,-4.1625,-4.1625,-4.1625,-4.1625,-4.1625,-4.1479,-4.1368,-4.1368,-4.1203,-4.1111,-4.1111,-4.0524,-4.0157,-4.0157,-3.957,-3.9221,-3.9221,-3.9056,-3.9038,-3.9221,-3.9221,-3.9221,-3.9221,-3.9056,-3.8964,-3.8964,-3.8781,-3.8707,-3.8707,-3.8707,-3.8707,-3.8707,-3.8707,-3.8815,-3.9008,-3.9008,-3.9171,-3.9427,-3.9481,-3.9486,-3.9505,-3.9576,-3.9599,-3.9645,-3.9982,-4.0286,-4.0489,-4.0489,-4.0489,-4.0489,-4.0489,-4.0046,-3.9546,-3.9546,-3.8931,-3.8277,-3.8277,-3.8411,-3.8507,-3.8315,-3.8277,-3.8027,-3.7161,-3.7526,-3.8065,-3.8257,-3.8888,-3.9657,-4.0523,-4.0696,-4.0735,-4.0735,-4.0735,-4.0735,-4.0735,-4.0735,-4.0754,-4.0773,-4.0769,-4.0781,-4.0801,-4.0801,-4.0451,-3.9607,-3.938,-3.8565,-3.6978,-3.6766,-3.6348,-3.5661,-3.568,-3.5641,-3.5584,-3.5641,-3.5661,-3.5661,-3.568,-3.5666,-3.5685,-3.5797,-3.5868,-3.5871,-3.5947,-3.5991,-3.5974,-3.5994,-3.5996,-3.5996,-3.5996,-3.5996,-3.5993,-3.9974,-4.0267,-4.0524,-4.0524,-4.0855,-4.1111,-4.1111,-4.1111,-4.1111,-4.1111,-4.0781,-4.0524,-4.0524,-4.0194,-4.0,-4.0141,-3.9908,-3.976,-3.976,-3.9369,-3.9127,-3.9127,-3.9127,-3.9127,-3.9127,-3.9127,-3.8998,-3.8707,-3.8707,-3.8762,-3.8894,-3.8894,-3.898,-3.9127,-3.9127,-3.9127,-3.9127,-3.9127,-3.9216,-3.9339,-3.9339,-3.9438,-3.9622,-3.9775,-3.984,-3.9859,-3.9984,-4.0024,-4.0043,-4.0232,-4.0372,-4.0489,-4.0489,-4.0489,-4.0412,-4.0027,-3.9623,-3.92,-3.8796,-3.8046,-3.7392,-3.7392,-3.7123,-3.6949,-3.7296,-3.7392,-3.7142,-3.6315,-3.6834,-3.7599,-3.8022,-3.8864,-3.9769,-4.0609,-4.0769,-4.0788,-4.0788,-4.0788,-4.0788,-4.0788,-4.0788,-4.0836,-4.0885,-4.0943,-4.0992,-4.0992,-4.0992,-4.0777,-4.029,-3.9864,-3.9217,-3.8274,-3.7422,-3.6783,-3.6327,-3.5965,-3.5776,-3.5738,-3.5709,-3.5697,-3.5697,-3.5779,-3.5804,-3.5805,-3.5904,-3.5942,-3.5956,-3.5984,-3.5996,-3.5996,-3.5996,-3.5996,-3.5996,-3.5996,-3.5974,-3.5942,-3.8707,-3.9239,-3.968,-3.968,-4.0249,-4.0708,-4.0708,-4.0708,-4.0708,-4.0708,-4.0102,-3.968,-3.968,-3.9093,-3.8773,-3.9008,-3.9333,-3.951,-3.951,-3.9576,-3.9599,-3.9599,-3.9599,-3.9599,-3.9599,-3.9599,-3.9352,-3.8862,-3.8862,-3.898,-3.9205,-3.9205,-3.9339,-3.9599,-3.9599,-3.9599,-3.9599,-3.9599,-3.9622,-3.9709,-3.9709,-3.9712,-3.9778,-4.0062,-4.0158,-4.0195,-4.0406,-4.0489,-4.0489,-4.0489,-4.0489,-4.0469,-4.0335,-4.0277,-4.0123,-3.9315,-3.8969,-3.87,-3.8007,-3.718,-3.6507,-3.6526,-3.6065,-3.579,-3.6382,-3.6529,-3.6392,-3.5853,-3.6496,-3.7409,-3.8273,-3.921,-4.0075,-4.0733,-4.0848,-4.087,-4.087,-4.087,-4.087,-4.087,-4.087,-4.0902,-4.1016,-4.1125,-4.1191,-4.1191,-4.1191,-4.1152,-4.1035,-4.0351,-3.9852,-3.9656,-3.8246,-3.7356,-3.7058,-3.645,-3.6059,-3.5925,-3.5799,-3.5747,-3.5761,-3.5863,-3.5913,-3.5916,-3.5985,-3.5996,-3.5996,-3.5996,-3.5996,-3.5996,-3.5996,-3.5993,-3.5999,-3.5999,-3.5924,-3.5856,-3.8707,-3.8799,-3.8854,-3.8854,-3.8946,-3.9019,-3.9019,-3.9019,-3.9019,-3.9019,-3.8927,-3.8854,-3.8854,-3.8781,-3.8719,-3.8732,-3.8999,-3.9178,-3.9178,-3.9438,-3.9599,-3.9599,-3.9599,-3.9599,-3.9599,-3.9599,-3.9552,-3.9481,-3.9481,-3.9505,-3.9529,-3.9529,-3.9552,-3.9599,-3.9599,-3.9599,-3.9599,-3.9599,-3.9775,-4.0022,-4.0022,-4.0157,-4.037,-4.0422,-4.0457,-4.0457,-4.0489,-4.0489,-4.0489,-4.0489,-4.0489,-4.0373,-3.9681,-3.945,-3.9277,-3.843,-3.7642,-3.7046,-3.7051,-3.6397,-3.5757,-3.5815,-3.5757,-3.5701,-3.5812,-3.585,-3.6007,-3.667,-3.7506,-3.8382,-3.9255,-4.0176,-4.0862,-4.0964,-4.1071,-4.115,-4.115,-4.115,-4.115,-4.115,-4.115,-4.1147,-4.1162,-4.119,-4.1191,-4.1191,-4.1191,-4.1191,-4.1172,-4.1055,-4.0644,-3.988,-3.9626,-3.8787,-3.7263,-3.7153,-3.6727,-3.5982,-3.5963,-3.5955,-3.5955,-3.5989,-3.5986,-3.5987,-3.5995,-3.5996,-3.5996,-3.5996,-3.5996,-3.5996,-3.5996,-3.6007,-3.5994,-3.5937,-3.5834,-3.5713,-3.8229,-3.8608,-3.899,-3.9163,-3.9189,-3.9189,-3.9189,-3.9189,-3.9189,-3.9189,-3.9189,-3.9189,-3.9189,-3.9371,-3.947,-3.947,-3.9735,-3.9886,-3.9886,-4.0005,-4.0101,-4.0101,-4.0101,-3.989,-3.9433,-3.9433,-3.9185,-3.8707,-3.9302,-3.9709,-3.988,-3.988,-3.9963,-4.0101,-4.0101,-4.0101,-4.0101,-4.0101,-4.0194,-4.0321,-4.0321,-4.0389,-4.045,-3.9988,-3.9815,-3.9758,-3.9277,-3.9104,-3.9104,-3.9104,-3.9104,-3.9046,-3.8681,-3.8565,-3.8392,-3.7526,-3.7007,-3.6622,-3.6262,-3.5892,-3.5624,-3.5678,-3.5763,-3.5797,-3.5809,-3.5843,-3.6086,-3.6833,-3.7711,-3.8614,-3.9506,-4.0457,-4.111,-4.111,-4.1169,-4.1191,-4.1191,-4.1191,-4.1191,-4.1191,-4.1191,-4.1191,-4.1191,-4.1191,-4.1191,-4.1191,-4.1191,-4.1191,-4.1191,-4.1191,-4.1016,-4.0644,-4.0156,-3.9531,-3.8769,-3.8276,-3.7592,-3.6735,-3.6728,-3.6465,-3.5996,-3.5996,-3.5996,-3.5996,-3.5996,-3.5996,-3.5996,-3.5967,-3.5939,-3.5935,-3.5851,-3.582,-3.5834,-3.5798,-3.5733,-3.5646]}]]